[[{"header":{"parameterUnit":"m.s-1","parameterCategory":1,"la1":30.6,"la2":28.766,"lo1":-90.7593,"lo2":-88.6598,"dy":0.0162,"dx":0.0183,"nx":116,"ny":114,"refTime":"2023-03-09T06:00:00:Z","depth":0,"parameterNumber":2,"parameterNumberName":"U-component_of_WINDS"},"data":[0.0,0.0,0.0,0.0,0.0,0.0,0.0,0.0,0.0,0.0,0.0,0.0,0.0,0.0,0.0,0.0,0.0,0.0,0.0,0.0,0.0,0.0,0.0,0.0,0.0,0.0,0.0,0.0,0.0,0.0,0.0,0.0,0.0,0.0,0.0,0.0,0.0,0.0,0.0,0.0,0.0,0.0,0.0,0.0,0.0,0.0,0.0,0.0,0.0,0.0,0.0,0.0,0.0,0.0,0.0,0.0,0.0,0.0,0.0,0.0,0.0,0.0,0.0,0.0,0.0,0.0,0.0,0.0,0.0,0.0,0.0,0.0,0.0,0.0,0.0,0.0,0.0,0.0,0.0,0.0,0.0,0.0,0.0,0.0,0.0,0.0,0.0,0.0,0.0,0.0,0.0,0.0,0.0,0.0,0.0,0.0,0.0,0.0,0.0,0.0,0.0,0.0,0.0,0.0,0.0,0.0,0.0,0.0,0.0,0.0,0.0,0.0,0.0,0.0,0.0,0.0,0.0,0.0,0.0,0.0,0.0,0.0,0.0,0.0,0.0,0.0,0.0,0.0,0.0,0.0,0.0,0.0,0.0,0.0,0.0,0.0,0.0,0.0,0.0,0.0,0.0,0.0,0.0,0.0,0.0,0.0,0.0,0.0,0.0,0.0,0.0,0.0,0.0,0.0,0.0,0.0,0.0,0.0,0.0,0.0,0.0,0.0,0.0,0.0,0.0,0.0,0.0,0.0,0.0,0.0,0.0,0.0,0.0,0.0,0.0,0.0,0.0,0.0,0.0,0.0,0.0,0.0,0.0,0.0,0.0,0.0,0.0,0.0,0.0,0.0,0.0,0.0,0.0,0.0,0.0,0.0,0.0,0.0,0.0,0.0,0.0,0.0,0.0,0.0,0.0,0.0,0.0,0.0,0.0,0.0,0.0,0.0,0.0,0.0,0.0,0.0,0.0,0.0,0.0,0.0,0.0,0.0,0.0,0.0,0.0,0.0,0.0,0.0,0.0,0.0,0.0,0.0,0.0,0.0,0.0,0.0,0.0,0.0,0.0,0.0,0.0,0.0,0.0,0.0,0.0,0.0,0.0,0.0,0.0,0.0,0.0,0.0,0.0,0.0,0.0,0.0,0.0,0.0,0.0,0.0,0.0,0.0,0.0,0.0,0.0,0.0,0.0,0.0,0.0,0.0,0.0,0.0,0.0,0.0,0.0,0.0,0.0,0.0,0.0,0.0,0.0,0.0,0.0,0.0,0.0,0.0,0.0,0.0,0.0,0.0,0.0,0.0,0.0,0.0,0.0,0.0,0.0,0.0,0.0,0.0,0.0,0.0,0.0,0.0,0.0,0.0,0.0,0.0,0.0,0.0,0.0,0.0,0.0,0.0,0.0,0.0,0.0,0.0,0.0,0.0,0.0,0.0,0.0,0.0,0.0,0.0,0.0,0.0,0.0,0.0,0.0,0.0,0.0,0.0,0.0,0.0,0.0,0.0,0.0,0.0,0.0,0.0,0.0,0.0,0.0,0.0,0.0,0.0,0.0,0.0,0.0,0.0,0.0,0.0,0.0,0.0,0.0,0.0,0.0,0.0,0.0,0.0,0.0,0.0,0.0,0.0,0.0,0.0,0.0,0.0,0.0,0.0,0.0,0.0,0.0,0.0,0.0,0.0,0.0,0.0,0.0,0.0,0.0,0.0,0.0,0.0,0.0,0.0,0.0,0.0,0.0,0.0,0.0,0.0,0.0,0.0,0.0,0.0,0.0,0.0,0.0,0.0,0.0,0.0,0.0,0.0,0.0,0.0,0.0,0.0,0.0,0.0,0.0,0.0,0.0,0.0,0.0,0.0,0.0,0.0,0.0,0.0,0.0,0.0,0.0,0.0,0.0,0.0,0.0,0.0,0.0,0.0,0.0,0.0,0.0,0.0,0.0,0.0,0.0,0.0,0.0,0.0,0.0,0.0,0.0,0.0,0.0,0.0,0.0,0.0,0.0,0.0,0.0,0.0,0.0,0.0,0.0,0.0,0.0,0.0,0.0,0.0,0.0,0.0,0.0,0.0,0.0,0.0,0.0,0.0,0.0,0.0,0.0,0.0,0.0,0.0,0.0,0.0,0.0,0.0,0.0,0.0,0.0,0.0,0.0,0.0,0.0,0.0,0.0,0.0,0.0,0.0,0.0,0.0,0.0,0.0,0.0,0.0,0.0,0.0,0.0,0.0,0.0,0.0,0.0,0.0,0.0,0.0,0.0,0.0,0.0,0.0,0.0,0.0,0.0,0.0,0.0,0.0,0.0,0.0,0.0,0.0,0.0,0.0,0.0,0.0,0.0,0.0,0.0,0.0,0.0,0.0,0.0,0.0,0.0,0.0,0.0,0.0,0.0,0.0,0.0,0.0,0.0,0.0,0.0,0.0,0.0,0.0,0.0,0.0,0.0,0.0,0.0,0.0,0.0,0.0,0.0,0.0,0.0,0.0,0.0,0.0,0.0,0.0,0.0,0.0,0.0,0.0,0.0,0.0,0.0,0.0,0.0,0.0,0.0,0.0,0.0,0.0,0.0,0.0,0.0,0.0,0.0,0.0,0.0,0.0,0.0,0.0,0.0,0.0,0.0,0.0,0.0,0.0,0.0,0.0,0.0,0.0,0.0,0.0,0.0,0.0,0.0,0.0,0.0,0.0,0.0,0.0,0.0,0.0,0.0,0.0,0.0,0.0,0.0,0.0,0.0,0.0,0.0,0.0,0.0,0.0,0.0,0.0,0.0,0.0,0.0,0.0,0.0,0.0,0.0,0.0,0.0,0.0,0.0,0.0,0.0,0.0,0.0,0.0,0.0,0.0,0.0,0.0,0.0,0.0,0.0,0.0,0.0,0.0,0.0,0.0,0.0,0.0,0.0,0.0,0.0,0.0,0.0,0.0,0.0,0.0,0.0,0.0,0.0,0.0,0.0,0.0,0.0,0.0,0.0,0.0,0.0,0.0,0.0,0.0,0.0,0.0,0.0,0.0,0.0,0.0,0.0,0.0,0.0,0.0,0.0,0.0,0.0,0.0,0.0,0.0,0.0,0.0,0.0,0.0,0.0,0.0,0.0,0.0,0.0,0.0,0.0,0.0,0.0,0.0,0.0,0.0,0.0,0.0,0.0,0.0,0.0,0.0,0.0,0.0,0.0,0.0,0.0,0.0,0.0,0.0,0.0,0.0,0.0,0.0,0.0,0.0,0.0,0.0,0.0,0.0,0.0,0.0,0.0,0.0,0.0,0.0,0.0,0.0,0.0,0.0,0.0,0.0,0.0,0.0,0.0,0.0,0.0,0.0,0.0,0.0,0.0,0.0,0.0,0.0,0.0,0.0,0.0,0.0,0.0,0.0,0.0,0.0,0.0,0.0,0.0,0.0,0.0,0.0,0.0,0.0,0.0,0.0,0.0,0.0,0.0,0.0,0.0,0.0,0.0,0.0,0.0,0.0,0.0,0.0,0.0,0.0,0.0,0.0,0.0,0.0,0.0,0.0,0.0,0.0,0.0,0.0,0.0,0.0,0.0,0.0,0.0,0.0,0.0,0.0,0.0,0.0,0.0,0.0,0.0,0.0,0.0,0.0,0.0,0.0,0.0,0.0,0.0,0.0,0.0,0.0,0.0,0.0,0.0,0.0,0.0,0.0,0.0,0.0,0.0,0.0,0.0,0.0,0.0,0.0,0.0,0.0,0.0,0.0,0.0,0.0,0.0,0.0,0.0,0.0,0.0,0.0,0.0,0.0,0.0,0.0,0.0,0.0,0.0,0.0,0.0,0.0,0.0,0.0,0.0,0.0,0.0,0.0,0.0,0.0,0.0,0.0,0.0,0.0,0.0,0.0,0.0,0.0,0.0,0.0,0.0,0.0,0.0,0.0,0.0,0.0,0.0,0.0,0.0,0.0,0.0,0.0,0.0,0.0,0.0,0.0,0.0,0.0,0.0,0.0,0.0,0.0,0.0,0.0,0.0,0.0,0.0,0.0,0.0,0.0,0.0,0.0,0.0,0.0,0.0,0.0,0.0,0.0,0.0,0.0,0.0,0.0,0.0,0.0,0.0,0.0,0.0,0.0,0.0,0.0,0.0,0.0,0.0,0.0,0.0,0.0,0.0,0.0,0.0,0.0,0.0,0.0,0.0,0.0,0.0,0.0,0.0,0.0,0.0,0.0,0.0,0.0,0.0,0.0,0.0,0.0,0.0,0.0,0.0,0.0,0.0,0.0,0.0,0.0,0.0,0.0,0.0,0.0,0.0,0.0,0.0,0.0,0.0,0.0,0.0,0.0,0.0,0.0,0.0,0.0,0.0,0.0,0.0,0.0,0.0,0.0,0.0,0.0,0.0,0.0,0.0,0.0,0.0,0.0,0.0,0.0,0.0,0.0,0.0,0.0,0.0,0.0,0.0,0.0,0.0,0.0,0.0,0.0,0.0,0.0,0.0,0.0,0.0,0.0,0.0,0.0,0.0,0.0,0.0,0.0,0.0,0.0,0.0,0.0,0.0,0.0,0.0,0.0,0.0,0.0,0.0,0.0,0.0,0.0,0.0,0.0,0.0,0.0,0.0,0.0,0.0,0.0,0.0,0.0,0.0,0.0,0.0,0.0,0.0,0.0,0.0,0.0,0.0,0.0,0.0,0.0,0.0,0.0,0.0,0.0,0.0,0.0,0.0,0.0,0.0,0.0,0.0,0.0,0.0,0.0,0.0,0.0,0.0,0.0,0.0,0.0,0.0,0.0,0.0,0.0,0.0,0.0,0.0,0.0,0.0,0.0,0.0,0.0,0.0,0.0,0.0,0.0,0.0,0.0,0.0,0.0,0.0,0.0,0.0,0.0,0.0,0.0,0.0,0.0,0.0,0.0,0.0,0.0,0.0,0.0,0.0,0.0,0.0,0.0,0.0,0.0,0.0,0.0,0.0,0.0,0.0,0.0,0.0,0.0,0.0,0.0,0.0,0.0,0.0,0.0,0.0,0.0,0.0,0.0,0.0,0.0,0.0,0.0,0.0,0.0,0.0,0.0,0.0,0.0,0.0,0.0,0.0,0.0,0.0,0.0,0.0,0.0,0.0,0.0,0.0,0.0,0.0,0.0,0.0,0.0,0.0,0.0,0.0,0.0,0.0,0.0,0.0,0.0,0.0,0.0,0.0,0.0,0.0,0.0,0.0,0.0,0.0,0.0,0.0,0.0,0.0,0.0,0.0,0.0,0.0,0.0,0.0,0.0,0.0,0.0,0.0,0.0,0.0,0.0,0.0,0.0,0.0,0.0,0.0,0.0,0.0,0.0,0.0,0.0,0.0,0.0,0.0,0.0,0.0,0.0,0.0,0.0,0.0,0.0,0.0,0.0,0.0,0.0,0.0,0.0,0.0,0.0,0.0,0.0,0.0,0.0,0.0,0.0,0.0,0.0,0.0,0.0,0.0,0.0,0.0,0.0,0.0,0.0,0.0,0.0,0.0,0.0,0.0,0.0,0.0,0.0,0.0,0.0,0.0,0.0,0.0,0.0,0.0,0.0,0.0,0.0,0.0,0.0,0.0,0.0,0.0,0.0,0.0,0.0,0.0,0.0,0.0,0.0,0.0,0.0,0.0,0.0,0.0,0.0,0.0,0.0,0.0,0.0,0.0,0.0,0.0,0.0,0.0,0.0,0.0,0.0,0.0,0.0,0.0,0.0,0.0,0.0,0.0,0.0,0.0,0.0,0.0,0.0,0.0,0.0,0.0,0.0,0.0,0.0,0.0,0.0,0.0,0.0,0.0,0.0,0.0,0.0,0.0,0.0,0.0,0.0,0.0,0.0,0.0,0.0,0.0,0.0,0.0,0.0,0.0,0.0,0.0,0.0,0.0,0.0,0.0,0.0,0.0,0.0,0.0,0.0,0.0,0.0,0.0,0.0,0.0,0.0,0.0,0.0,0.0,0.0,0.0,0.0,0.0,0.0,0.0,0.0,0.0,0.0,0.0,0.0,0.0,0.0,0.0,0.0,0.0,0.0,0.0,0.0,0.0,0.0,0.0,0.0,0.0,0.0,0.0,0.0,0.0,0.0,0.0,0.0,0.0,0.0,0.0,0.0,0.0,0.0,0.0,0.0,-5.6899,-5.6717,0.0,0.0,0.0,0.0,0.0,0.0,0.0,0.0,0.0,0.0,0.0,0.0,0.0,0.0,0.0,0.0,0.0,0.0,0.0,0.0,0.0,0.0,0.0,0.0,0.0,0.0,0.0,0.0,0.0,0.0,0.0,0.0,0.0,0.0,0.0,0.0,0.0,0.0,0.0,-5.6447,-5.6799,-5.712,-5.6787,-5.5936,0.0,0.0,0.0,0.0,0.0,0.0,0.0,0.0,0.0,0.0,0.0,0.0,0.0,0.0,0.0,0.0,0.0,0.0,0.0,0.0,0.0,0.0,0.0,0.0,0.0,0.0,0.0,0.0,0.0,0.0,0.0,0.0,0.0,0.0,0.0,0.0,0.0,0.0,0.0,0.0,0.0,0.0,0.0,0.0,0.0,0.0,0.0,0.0,0.0,0.0,0.0,0.0,0.0,0.0,0.0,0.0,0.0,0.0,0.0,0.0,0.0,0.0,0.0,0.0,0.0,0.0,0.0,0.0,0.0,0.0,-5.9796,-5.8492,0.0,0.0,0.0,0.0,0.0,0.0,0.0,0.0,0.0,0.0,0.0,0.0,0.0,0.0,0.0,0.0,0.0,0.0,0.0,0.0,0.0,0.0,0.0,0.0,0.0,0.0,0.0,0.0,0.0,0.0,0.0,0.0,0.0,0.0,0.0,0.0,0.0,0.0,0.0,-5.7455,-5.833,-5.8471,-5.7716,-5.6315,-5.6034,0.0,0.0,0.0,0.0,0.0,0.0,0.0,0.0,0.0,0.0,0.0,0.0,0.0,0.0,0.0,0.0,0.0,0.0,0.0,0.0,0.0,0.0,0.0,0.0,0.0,0.0,0.0,0.0,0.0,0.0,0.0,0.0,0.0,0.0,0.0,0.0,0.0,0.0,0.0,0.0,0.0,0.0,0.0,0.0,0.0,0.0,0.0,0.0,0.0,0.0,0.0,0.0,0.0,0.0,0.0,0.0,0.0,0.0,0.0,0.0,0.0,0.0,0.0,-6.3418,-6.4142,-6.407,-6.4867,-6.5591,-6.6098,-6.3563,-6.1317,-5.947,-5.9868,0.0,0.0,0.0,0.0,0.0,0.0,0.0,0.0,0.0,0.0,0.0,0.0,0.0,0.0,0.0,0.0,0.0,0.0,0.0,0.0,0.0,-5.4981,-5.5507,-5.5507,-5.5507,-5.5507,0.0,0.0,0.0,0.0,0.0,0.0,0.0,0.0,0.0,0.0,0.0,-5.8737,-5.8905,-5.9538,-5.9717,-5.944,-5.8105,-5.7926,-5.8519,0.0,0.0,0.0,0.0,0.0,0.0,0.0,0.0,0.0,0.0,0.0,0.0,0.0,0.0,0.0,0.0,0.0,0.0,0.0,0.0,0.0,0.0,0.0,0.0,0.0,0.0,0.0,0.0,0.0,0.0,0.0,0.0,0.0,0.0,0.0,0.0,0.0,0.0,0.0,0.0,0.0,-5.6899,-5.6899,0.0,0.0,0.0,0.0,0.0,0.0,0.0,0.0,0.0,0.0,0.0,0.0,0.0,-6.186,-6.2549,-6.4867,-6.5663,-6.5011,-6.7293,-6.8017,-6.7402,-6.8199,-6.8627,-6.8736,-6.8995,0.0,-6.349,-6.2223,0.0,0.0,0.0,0.0,0.0,0.0,0.0,0.0,0.0,0.0,0.0,0.0,0.0,0.0,0.0,0.0,0.0,0.0,0.0,0.0,0.0,-5.5402,-5.6139,-5.6139,-5.6526,-5.6596,-5.6139,0.0,0.0,0.0,0.0,0.0,0.0,0.0,0.0,0.0,-5.9721,-6.0739,-6.1581,-6.2354,-6.2705,-6.267,-6.2003,-6.0704,-5.8948,-5.8246,0.0,0.0,0.0,0.0,0.0,0.0,0.0,0.0,0.0,0.0,0.0,0.0,0.0,0.0,0.0,0.0,0.0,0.0,0.0,0.0,0.0,0.0,0.0,0.0,0.0,0.0,0.0,0.0,0.0,0.0,0.0,0.0,0.0,0.0,0.0,0.0,0.0,0.0,0.0,-5.4882,-5.5821,-5.5642,-5.5861,-5.5628,0.0,0.0,0.0,0.0,0.0,0.0,0.0,0.0,0.0,-6.2911,-6.4106,-6.5084,-6.5881,-6.7836,-6.8633,-6.8307,-7.0263,-7.0987,-7.0661,-7.1458,-7.2074,-7.2545,-7.2907,-7.1784,-6.9502,-6.6098,-6.3744,-6.215,0.0,0.0,0.0,0.0,-6.0303,-6.0158,0.0,0.0,0.0,0.0,0.0,0.0,0.0,0.0,0.0,0.0,0.0,0.0,-5.4911,-5.628,-5.7122,-5.6912,-5.7649,-5.7754,-5.6947,-5.6701,0.0,0.0,0.0,0.0,0.0,0.0,0.0,-6.0388,-6.1581,-6.2845,-6.4179,-6.4952,-6.5303,-6.5303,-6.5303,-6.3512,-6.0423,-5.9861,-5.8913,0.0,0.0,0.0,0.0,0.0,0.0,0.0,0.0,0.0,0.0,0.0,0.0,0.0,0.0,0.0,0.0,0.0,0.0,0.0,0.0,0.0,0.0,0.0,0.0,0.0,0.0,0.0,0.0,0.0,0.0,0.0,0.0,0.0,0.0,0.0,0.0,0.0,0.0,-5.4904,-5.5654,-5.4992,-5.5713,-5.5983,0.0,0.0,0.0,0.0,0.0,0.0,-6.1969,-6.3563,-6.5048,-6.646,-6.7474,-6.8488,-6.9502,-7.1096,-7.2001,-7.2219,-7.3595,-7.4247,-7.4283,-7.4863,-7.537,-7.5732,-7.5732,-7.5261,-7.4175,-6.9792,-6.7076,-6.5446,-6.3852,-6.2875,-6.2476,-6.3671,-6.3744,-6.3599,0.0,0.0,0.0,0.0,0.0,0.0,0.0,0.0,0.0,0.0,0.0,-5.649,-5.649,-5.793,-5.8562,-5.7825,-5.8492,-5.8597,-5.779,-5.7017,-5.6561,0.0,0.0,0.0,0.0,0.0,0.0,-6.123,-6.3442,-6.4952,-6.5794,-6.6532,-6.6883,-6.6883,-6.6883,-6.597,-6.425,-6.2108,-6.1125,-6.0809,0.0,0.0,0.0,0.0,0.0,0.0,0.0,0.0,0.0,0.0,0.0,0.0,0.0,0.0,0.0,0.0,0.0,0.0,0.0,0.0,0.0,0.0,0.0,0.0,0.0,0.0,0.0,0.0,0.0,0.0,0.0,0.0,0.0,0.0,0.0,0.0,0.0,0.0,0.0,-5.6591,-5.8113,0.0,0.0,0.0,0.0,-6.0913,-6.2176,-6.3566,-6.5265,-6.6895,-6.8162,-6.8989,-7.048,-7.2038,-7.3595,-7.5189,-7.6384,-7.7144,-7.8014,-7.8412,-7.8412,-7.8448,-7.805,-7.7362,-7.7362,-7.6927,-7.5913,-7.2617,-7.0335,-6.8808,-6.7184,-6.6533,-6.6496,-6.6605,-6.6605,-6.6569,0.0,0.0,0.0,0.0,0.0,0.0,0.0,0.0,0.0,-5.4946,-5.5964,-5.6806,-5.7333,-5.9229,-6.0352,-6.0072,-6.0739,-6.0633,-5.9369,-5.807,-5.7158,0.0,0.0,0.0,0.0,0.0,-6.123,-6.2775,-6.5057,-6.6602,-6.7409,-6.8182,-6.8533,-6.8533,-6.8533,-6.7936,-6.6813,-6.4495,-6.2635,-6.116,-5.951,-5.7697,0.0,0.0,0.0,0.0,0.0,0.0,0.0,0.0,0.0,0.0,0.0,0.0,0.0,0.0,0.0,0.0,0.0,0.0,0.0,0.0,0.0,0.0,0.0,0.0,0.0,0.0,0.0,0.0,0.0,0.0,0.0,0.0,0.0,0.0,0.0,0.0,0.0,-5.899,-6.0484,0.0,-6.1654,-6.1557,-6.2159,-6.3811,-6.529,-6.689,-6.8567,-7.0661,-7.24,-7.3704,-7.5297,-7.642,-7.7,-7.8086,-7.8484,-7.8267,-7.8557,-7.8702,-7.8702,-7.8702,-7.8557,-7.8267,-7.8267,-7.7833,-7.6963,-7.5841,-7.4138,-7.2074,-7.0444,-6.9539,-6.9249,-7.0227,-7.0263,-7.0046,0.0,0.0,0.0,0.0,0.0,0.0,0.0,0.0,0.0,-5.5683,-5.6771,-5.7825,-5.8878,-6.1055,-6.2354,-6.2108,-6.2494,-6.2038,-6.0212,-5.8667,-5.7438,0.0,-5.6139,0.0,0.0,-6.102,-6.2951,-6.4741,-6.6813,-6.8076,-6.8603,-6.913,-6.9412,-6.9412,-6.9412,-6.9095,-6.8498,-6.6672,-6.4566,-6.2354,-6.102,-5.9309,-5.7402,0.0,0.0,0.0,0.0,0.0,0.0,0.0,0.0,0.0,0.0,0.0,0.0,0.0,0.0,0.0,0.0,0.0,0.0,0.0,0.0,0.0,0.0,0.0,0.0,0.0,0.0,0.0,0.0,0.0,0.0,0.0,0.0,0.0,0.0,0.0,-5.9351,-6.1051,-6.3032,-6.4427,-6.4852,-6.4885,-6.5607,-6.7321,-6.872,-7.0329,-7.223,-7.4064,-7.572,-7.7017,-7.8382,-7.9354,-7.9897,-8.044,-8.0585,-8.0332,-8.0332,-8.0332,-8.0295,-8.0042,-7.9752,-7.9499,-7.9209,-7.8666,-7.7869,-7.7615,-7.6565,-7.4971,-7.3631,-7.2798,-7.2509,-7.3523,-7.3595,-7.3342,0.0,0.0,0.0,0.0,0.0,0.0,0.0,0.0,-5.484,-5.6385,-5.8,-5.9615,-6.116,-6.3372,-6.4425,-6.3688,-6.3618,-6.2599,-6.0247,-5.8632,-5.7403,0.0,0.0,0.0,-6.1265,-6.288,-6.4811,-6.7058,-6.8603,-6.9412,-6.9412,-6.9412,-6.9412,-6.9412,-6.9412,-6.9412,-6.934,-6.8568,-6.6918,-6.4636,-6.2319,-6.0618,-5.9175,0.0,0.0,0.0,0.0,0.0,0.0,0.0,0.0,0.0,0.0,0.0,0.0,0.0,0.0,0.0,0.0,0.0,0.0,0.0,0.0,0.0,0.0,0.0,0.0,0.0,0.0,0.0,0.0,0.0,0.0,0.0,0.0,0.0,-5.6198,-5.987,-6.2642,-6.2747,-6.5863,-6.7508,-6.625,-6.7257,-6.9002,-7.1479,-7.2371,-7.3832,-7.6185,-7.7116,-7.7903,-7.8653,-7.9576,-8.0766,-8.2324,-8.2324,-8.2722,-8.3483,-8.3483,-8.3483,-8.3446,-8.265,-8.1853,-8.1092,-8.0295,-7.9499,-7.8666,-7.7905,-7.7543,-7.7434,-7.6601,-7.6275,-7.6275,-7.6275,-7.6275,-7.6275,0.0,0.0,0.0,0.0,0.0,0.0,0.0,-5.3717,-5.4244,-5.6315,-5.8,-5.9791,-6.1862,-6.3653,-6.4636,-6.4425,-6.3898,-6.2599,-6.0247,-5.8105,-5.6596,0.0,0.0,0.0,-6.2073,-6.4706,-6.6672,-6.7901,-6.8884,-6.9412,-6.9412,-6.9412,-6.9412,-6.9412,-6.9412,-6.9412,-6.9412,-6.9165,-6.8357,-6.7058,-6.4706,-6.2534,-6.0581,0.0,0.0,0.0,0.0,0.0,0.0,0.0,0.0,0.0,0.0,0.0,0.0,0.0,0.0,0.0,0.0,0.0,0.0,0.0,0.0,0.0,0.0,0.0,0.0,0.0,0.0,0.0,0.0,0.0,0.0,0.0,0.0,-5.9133,-5.9004,-6.2404,-6.5803,-6.7996,-6.959,-7.1267,-7.3249,-7.2656,-7.3147,-7.5542,-7.6472,-7.7471,-7.8681,-8.0146,-8.0803,-8.0406,-8.2323,-8.3012,-8.2324,-8.3446,-8.3845,-8.3483,-8.3483,-8.3483,-8.3446,-8.265,-8.2179,-8.1925,-8.1128,-8.0332,-7.9571,-7.9318,-7.8557,-7.7434,-7.6601,-7.6275,-7.6275,-7.6275,-7.6275,-7.6275,0.0,0.0,0.0,0.0,0.0,0.0,0.0,-5.3471,-5.4138,-5.6771,-5.8492,-6.0352,-6.2635,-6.4285,-6.5092,-6.4741,-6.3723,-6.1967,-5.9299,-5.7263,0.0,0.0,0.0,-6.2424,-6.4776,-6.6602,-6.8076,-6.9165,-6.9621,-6.9691,-6.9412,-6.9412,-6.9412,-6.9412,-6.9412,-6.9412,-6.9412,-6.9412,-6.913,-6.8568,-6.6848,-6.4987,-6.3057,-6.1633,-6.0546,-5.9654,-5.9015,-5.8574,-5.8363,-5.8668,0.0,0.0,0.0,0.0,0.0,0.0,0.0,0.0,0.0,0.0,0.0,0.0,0.0,0.0,0.0,0.0,0.0,0.0,0.0,0.0,0.0,0.0,0.0,0.0,-5.9953,-6.2058,-6.3708,-6.6163,-6.8975,-7.2077,-7.3364,-7.4762,-7.6552,-7.6229,-7.6538,-7.822,-7.8829,-7.9578,-8.0645,-8.1686,-8.2168,-8.2024,-8.3768,-8.4388,-8.3809,-8.4714,-8.4968,-8.4497,-8.4497,-8.4497,-8.446,-8.3301,-8.2794,-8.2722,-8.1599,-8.0839,-8.0404,-8.0042,-7.9354,-7.8376,0.0,0.0,0.0,0.0,-7.6275,-7.6275,0.0,0.0,0.0,0.0,0.0,0.0,0.0,-5.3218,-5.4307,-5.7403,-5.9053,-6.0879,-6.3196,-6.4671,-6.5198,-6.4495,-6.3021,-6.0879,-5.786,0.0,0.0,-6.102,-6.1581,-6.3828,-6.8112,-6.8287,-6.906,-7.0499,-7.0429,-7.0078,-6.9516,-6.9516,-6.9516,-6.9516,-6.9516,-6.9483,-6.9412,-6.9412,-6.9412,-6.9342,-6.8638,-6.7409,-6.59,-6.4458,-6.3404,-6.2664,-6.2028,-6.1097,-6.0149,-6.0033,0.0,0.0,0.0,0.0,0.0,0.0,0.0,0.0,0.0,0.0,0.0,0.0,0.0,0.0,0.0,0.0,0.0,0.0,0.0,0.0,0.0,0.0,0.0,0.0,-6.212,-6.5363,-6.894,-7.0361,-7.2035,-7.4903,-7.6481,-7.7451,-7.7804,-7.8423,-7.9216,-8.0123,-8.0266,-8.0945,-8.2294,0.0,0.0,0.0,0.0,-8.5112,-8.5764,-8.5837,-8.5909,-8.5909,-8.5909,-8.5909,-8.5837,-8.4316,-8.3591,-8.341,-8.1998,-8.1273,-8.1056,-8.044,-8.0078,-7.9752,-7.8231,-7.7181,-7.6565,-7.6456,-7.642,-7.642,0.0,0.0,0.0,0.0,0.0,0.0,0.0,-5.3218,-5.4307,-5.7403,-5.8632,-6.0107,-6.2354,-6.288,-6.2986,-6.2845,-6.1441,-5.9475,0.0,0.0,-5.9545,-6.0282,-6.3337,-6.6005,-6.8182,-6.8849,-6.9586,-7.0499,-6.9902,-6.9832,-7.0288,-7.0288,-7.0288,-7.0288,-7.0288,-6.9937,-6.9412,-6.9412,-6.9412,-6.9412,-6.92,-6.8217,-6.6708,-6.6105,-6.5393,-6.4787,-6.4902,-6.488,-6.4721,-6.406,-6.34,-6.2584,-6.1051,0.0,0.0,0.0,0.0,0.0,0.0,0.0,0.0,0.0,0.0,0.0,0.0,0.0,0.0,0.0,0.0,0.0,0.0,0.0,0.0,-6.2178,-6.5699,-6.8756,-7.067,-7.2758,-7.4534,-7.59,-7.6272,-7.7456,-8.0117,-7.9896,-8.0417,-8.2362,-8.3277,-8.3786,-8.3937,-8.4754,-8.4922,-8.4416,-8.5218,-8.5438,-8.4931,-8.5583,-8.5909,-8.5909,-8.5909,0.0,-8.5873,-8.4895,-8.4098,-8.3483,-8.3157,-8.2287,-8.1165,-8.1635,-8.1056,-7.9788,-7.8847,-7.8376,-7.8159,-7.7507,-7.7253,-7.7181,0.0,0.0,0.0,0.0,0.0,0.0,0.0,-5.3752,-5.4559,-5.6912,-5.7895,-5.8983,-6.0528,-6.102,-6.109,-6.0739,-5.9264,0.0,0.0,-5.9018,-6.0949,-6.2915,-6.5198,-6.755,-6.9902,-6.9586,-6.9762,-7.0499,-6.9762,-6.9762,-7.0499,-7.0499,-7.071,-7.1096,-7.1096,-7.092,-7.0569,-7.092,-7.0885,-7.0569,-7.0955,-7.0148,-6.8673,-6.8116,-6.7412,-6.6811,-6.7116,-6.6898,-6.647,-6.6272,-6.5609,-6.4547,-6.2555,-6.0919,-5.9373,0.0,0.0,0.0,0.0,0.0,0.0,0.0,0.0,0.0,0.0,0.0,0.0,0.0,0.0,-5.6596,0.0,0.0,-6.255,-6.4816,-6.774,-7.0511,-7.287,-7.4482,-7.5814,-7.6754,-7.7486,-7.8927,-8.1455,-8.1668,-8.2272,-8.3816,-8.4416,-8.4815,-8.515,-8.5608,-8.5728,-8.5293,-8.5692,-8.5692,-8.5293,-8.5692,-8.5909,-8.5909,-8.5909,-8.5909,-8.5873,-8.5076,-8.4243,-8.3483,-8.3483,-8.2577,-8.1128,-8.1527,-8.1237,-8.0476,-8.0078,-7.9426,-7.8666,-7.8231,-7.7833,-7.7434,0.0,0.0,0.0,0.0,0.0,0.0,0.0,0.0,-5.484,-5.6385,-5.7158,-5.786,-5.8702,-5.9299,-5.9334,-5.8597,0.0,0.0,0.0,-5.9896,-6.2459,-6.5759,-6.6918,-6.8673,-7.1201,-7.0043,-6.9691,-7.0288,-6.9691,-6.9762,-7.0499,-7.0675,-7.1096,-7.1728,-7.2009,-7.1974,-7.1763,-7.25,-7.236,-7.1763,-7.236,-7.1801,-7.0541,-6.9943,-6.9313,-6.8645,-6.8822,-6.813,-6.7135,-6.7487,-6.6854,-6.5641,-6.3783,-6.257,-6.1347,-5.8717,-5.8088,0.0,0.0,0.0,0.0,0.0,0.0,0.0,0.0,0.0,-5.6235,-5.829,-5.9098,-5.9776,-6.0791,-6.3193,-6.5561,-6.7218,-6.9517,-7.2022,-7.459,-7.5861,-7.6782,-7.7535,-7.9007,-8.0746,-8.2577,-8.3338,-8.4062,-8.4859,-8.4931,-8.5221,-8.5873,-8.5909,-8.5909,-8.5909,-8.5909,-8.5909,-8.5909,-8.5909,-8.5909,-8.5909,-8.5909,-8.5801,-8.5619,-8.5004,-8.4243,-8.3483,-8.3301,-8.2541,-8.1309,-8.1165,-8.1128,-8.1128,-8.1128,-8.0332,-7.9136,-7.8992,-7.8521,-7.7905,0.0,0.0,0.0,0.0,0.0,0.0,0.0,0.0,0.0,-5.6385,-5.6666,-5.7052,-5.786,-5.8,-5.7754,0.0,0.0,0.0,-5.8878,-6.2213,-6.4706,-6.5829,-6.8007,-6.927,-6.9621,-6.9481,-6.9448,-6.9516,-6.9448,-6.9762,-7.0534,-7.1236,-7.1622,-7.1763,-7.3132,-7.2992,-7.1763,-7.25,-7.236,-7.1728,-7.1798,-7.1495,-7.1016,-7.0945,-7.0629,-7.0196,-6.9818,-6.8917,-6.7861,-6.7957,-6.7385,-6.6632,-6.6391,-6.5345,-6.3734,-6.1355,0.0,-5.6969,-5.5501,-5.5208,-5.5744,-5.7377,-5.7726,-5.8182,0.0,0.0,-5.9939,-6.1533,-6.1443,-6.167,-6.3734,-6.5459,-6.7286,-6.9451,-7.2437,-7.4549,-7.4791,-7.6835,-7.8351,-7.8436,-7.9828,-8.175,-8.4169,-8.4497,-8.4895,-8.5692,-8.5764,-8.5801,-8.5909,-8.5909,-8.5909,-8.5909,-8.5909,-8.5909,-8.5909,-8.5909,-8.5909,-8.5909,-8.5909,-8.5511,-8.4823,-8.475,-8.4243,-8.3446,-8.2722,-8.2324,-8.2106,-8.1382,-8.1128,-8.1128,-8.1128,-8.0984,-8.0766,-8.0042,-7.9716,-7.9426,0.0,0.0,0.0,0.0,0.0,0.0,0.0,0.0,0.0,0.0,-5.5964,-5.6104,-5.642,-5.6455,-5.635,0.0,0.0,0.0,-5.8983,-6.3021,-6.5935,-6.7199,-6.9024,-7.0253,-7.071,-6.9832,-6.9412,-6.9412,-6.9412,-7.0007,-7.1201,-7.1552,-7.2184,-7.3062,-7.3729,-7.3659,-7.3097,-7.3834,-7.3694,-7.3097,-7.3755,-7.3134,-7.169,-7.1482,-7.0551,-6.9314,-6.8618,-6.7482,0.0,0.0,-6.6062,-6.5424,-6.5436,-6.4627,-6.3167,-6.0549,-5.8961,0.0,-5.7504,-5.7771,-5.8365,-5.912,-5.9892,-6.0804,-6.2189,-6.2291,-6.2668,-6.4517,-6.5868,-6.6773,-6.7157,-6.8795,-7.0439,0.0,-7.3378,-7.5171,-7.614,-7.759,-7.8983,-7.9934,-8.0223,-8.1271,-8.3735,-8.4424,-8.504,-8.5837,-8.5909,-8.5909,-8.5909,-8.5909,-8.5909,-8.5909,-8.5909,-8.5909,-8.5909,-8.5909,-8.5909,-8.5873,-8.5438,-8.5257,-8.5366,-8.4895,-8.4497,-8.4098,-8.236,-8.1853,-8.2215,-8.1418,-8.1128,-8.1128,-8.1128,-8.1128,-8.1056,-8.073,-8.0006,-7.91,0.0,0.0,0.0,0.0,0.0,0.0,0.0,0.0,0.0,0.0,0.0,0.0,0.0,0.0,0.0,0.0,0.0,0.0,0.0,-6.2915,-6.604,-6.7796,-6.9586,-7.0885,-7.1693,-7.0394,-6.9691,-6.9691,-6.9518,-7.0078,-7.1377,-7.1622,-7.2395,-7.3694,-7.4115,-7.4185,-7.4045,-7.4782,-7.4537,-7.3768,-7.4935,-7.3887,-7.1659,-7.1264,-6.9562,-6.7333,-6.6665,-6.5328,0.0,0.0,-6.3506,-6.3096,-6.3544,-6.3281,-6.2328,-5.9921,-5.855,-5.7981,-5.8673,-5.9335,-6.0083,-6.0974,-6.2402,-6.3832,-6.4764,-6.5214,-6.5979,-6.7981,-6.9454,-7.0417,-7.0427,-7.1515,-7.2673,-7.3313,-7.4602,-7.6104,-7.7702,-7.8568,-7.9428,-8.0622,-8.0078,-8.0332,-8.2324,-8.3627,-8.4678,-8.5511,-8.5764,-8.5909,-8.5909,-8.5909,-8.5909,-8.5909,-8.5909,-8.5909,-8.5909,-8.5909,-8.5909,-8.5873,-8.5076,-8.4895,-8.5221,-8.4388,-8.3917,-8.3627,-8.2106,-8.1635,-8.1925,-8.1346,-8.1128,-8.1128,-8.1128,-8.1128,-8.1092,-8.0875,-8.0187,-7.9318,0.0,0.0,0.0,0.0,0.0,0.0,0.0,0.0,0.0,0.0,0.0,0.0,0.0,0.0,0.0,0.0,0.0,0.0,0.0,-6.1932,-6.4671,-6.6953,-6.927,-7.0885,-7.1693,-7.0885,-7.0464,-7.0464,-6.9727,-6.9762,-7.0569,-7.1342,-7.2114,-7.2886,-7.4396,-7.4677,-7.4045,-7.4782,-7.4221,-7.2925,-7.4158,-7.2973,-7.0407,-7.0025,-6.7611,-6.4483,-6.4056,0.0,0.0,0.0,-5.9574,-5.9772,-6.1248,-6.1989,0.0,-6.0583,-5.7988,0.0,0.0,0.0,-5.9357,-6.3075,-6.5435,-6.7234,-6.8635,-6.9547,-7.0529,-7.2181,-7.1284,-7.0951,-7.3233,-7.3003,-7.3268,-7.5598,-7.6756,-7.7863,-7.9397,-7.9754,-7.9862,-7.9933,-7.9245,-7.9064,0.0,-8.2143,-8.3845,-8.4678,-8.5475,-8.5909,-8.5909,-8.5909,-8.5909,-8.5909,-8.5909,-8.5909,-8.5909,-8.5909,-8.5909,-8.5873,-8.5076,-8.4279,-8.3555,-8.2722,-8.1925,-8.1273,-8.1961,-8.1817,-8.1128,-8.1128,-8.1128,-8.1128,-8.1128,-8.1128,-8.102,-8.0223,-8.0404,-8.0802,0.0,0.0,0.0,0.0,0.0,0.0,0.0,0.0,0.0,0.0,0.0,0.0,0.0,0.0,0.0,0.0,0.0,0.0,0.0,-6.109,-6.3372,-6.4671,-6.6953,-6.8568,-6.9376,-6.913,-6.9481,-7.0499,-7.0253,-7.078,-7.2044,-7.229,-7.2851,-7.3624,-7.4389,-7.465,-7.4438,-7.4917,-7.4214,-7.283,-7.3476,-7.1899,-6.9167,-6.8759,-6.6198,-6.2557,0.0,0.0,0.0,0.0,0.0,0.0,-5.762,0.0,0.0,-5.6553,0.0,0.0,0.0,0.0,-6.4421,-6.6848,-6.8752,-7.031,-7.1279,-7.1693,-7.2184,-7.3202,-7.2104,-7.1046,-7.1371,-7.1593,-7.1983,-7.2774,-7.541,-7.758,-7.8115,-7.8711,-7.8919,-7.8376,-7.7579,0.0,0.0,0.0,0.0,-8.3048,-8.4352,-8.4859,-8.4316,-8.533,-8.5656,-8.5112,-8.5619,-8.5619,-8.5112,-8.5112,-8.4823,-8.4279,-8.4026,-8.3483,-8.2686,-8.2396,-8.2143,-8.1889,-8.1635,-8.1346,-8.1128,-8.1128,-8.1128,-8.1128,-8.1128,-8.0766,-8.0259,-8.0006,-7.9752,-7.9354,0.0,0.0,0.0,0.0,0.0,0.0,0.0,0.0,0.0,0.0,0.0,0.0,0.0,0.0,0.0,0.0,0.0,0.0,0.0,0.0,-6.1336,-6.2705,-6.4425,-6.5865,-6.6953,-6.6707,-6.7164,-6.8428,-6.8182,-6.8814,-7.0323,-7.0604,-7.1242,-7.2129,-7.2674,-7.3003,-7.3078,-7.3012,-7.2085,-7.0658,-7.0709,-6.8866,-6.5925,-6.5206,-6.2763,0.0,0.0,0.0,0.0,0.0,0.0,0.0,0.0,0.0,0.0,0.0,0.0,0.0,0.0,-6.4743,-6.7358,-6.9813,-7.141,-7.262,-7.3388,-7.3557,-7.3598,-7.3788,-7.2046,-7.0344,-6.992,-6.9527,-6.9527,-7.0416,-7.2762,-7.4975,-7.6374,-7.6799,-7.7108,-7.747,-7.7036,-7.6818,0.0,0.0,0.0,-8.178,-8.3084,-8.3845,-8.3917,-8.4895,-8.5366,-8.5149,-8.533,-8.5221,-8.4714,-8.4388,-8.3845,-8.3048,-8.3048,-8.265,-8.1853,-8.1853,-8.1853,-8.1817,-8.1309,-8.1128,-8.1128,-8.1128,-8.1128,-8.1128,-8.1128,-8.0802,-8.0295,-8.0006,-7.9571,-7.8955,0.0,0.0,0.0,0.0,0.0,0.0,0.0,0.0,0.0,0.0,0.0,0.0,0.0,0.0,0.0,0.0,0.0,0.0,0.0,0.0,0.0,-6.0949,-6.1792,-6.2915,-6.4426,-6.3793,-6.3793,-6.4601,-6.3828,-6.4284,-6.5759,-6.6497,-6.7412,-6.8539,-6.9318,-6.9883,-7.0123,-6.9374,-6.8126,-6.6589,-6.6191,-6.4064,-6.1028,-5.979,0.0,0.0,0.0,0.0,0.0,0.0,0.0,0.0,0.0,0.0,0.0,0.0,0.0,-6.0623,-6.5407,-6.7121,-6.8409,-7.1943,-7.344,-7.4226,-7.494,-7.5047,-7.4726,-7.3902,-7.1053,-6.8788,0.0,0.0,-6.6356,-6.8759,-6.9388,-7.0842,-7.4612,-7.4573,-7.4935,0.0,0.0,0.0,0.0,0.0,0.0,-8.0947,0.0,-8.2903,-8.4497,-8.4605,-8.5004,-8.5801,-8.504,-8.4642,-8.4642,-8.3772,-8.2976,-8.2215,-8.2215,-8.1817,-8.1128,-8.1128,-8.1128,-8.1128,-8.1128,-8.1128,-8.1128,-8.1128,-8.1128,-8.1128,-8.1128,-8.1056,-8.0911,-8.0187,-7.9861,-7.9571,0.0,0.0,0.0,0.0,0.0,0.0,0.0,0.0,0.0,0.0,0.0,0.0,0.0,0.0,0.0,0.0,0.0,0.0,0.0,0.0,0.0,0.0,0.0,0.0,0.0,0.0,0.0,0.0,0.0,-6.2682,-6.3599,-6.4607,-6.5199,-6.5545,-6.6621,-6.7207,-6.7267,-6.7369,-6.6157,-6.4101,0.0,-6.2048,-5.9095,0.0,0.0,0.0,0.0,0.0,0.0,0.0,0.0,0.0,0.0,-5.6756,-5.7894,0.0,0.0,-6.5189,-6.7358,-7.0015,-7.2575,-7.4119,-7.5082,-7.557,-7.5209,-7.4186,-7.2938,-7.1553,-6.8141,-6.5229,0.0,0.0,0.0,-6.8066,-7.1784,0.0,-7.5841,-7.6348,0.0,-7.7434,0.0,-7.7651,-7.805,-7.8448,0.0,0.0,-8.0947,-8.1853,-8.2831,-8.3483,-8.4171,-8.4968,-8.4207,-8.3809,-8.3809,-8.2396,-8.1599,-8.1418,-8.1418,-8.1309,-8.1128,-8.1128,-8.1128,-8.1128,-8.1128,-8.1128,-8.1128,-8.1128,-8.1128,-8.1128,-8.1128,-8.0368,-7.9354,-7.9752,-7.9136,-7.8084,0.0,0.0,0.0,0.0,0.0,0.0,0.0,0.0,0.0,0.0,0.0,0.0,0.0,0.0,0.0,0.0,0.0,0.0,0.0,0.0,0.0,0.0,0.0,0.0,0.0,0.0,0.0,0.0,0.0,0.0,0.0,-6.1062,-6.1426,-6.1611,-6.2635,-6.317,-6.3315,-6.3189,0.0,0.0,0.0,0.0,0.0,0.0,0.0,0.0,0.0,0.0,0.0,0.0,0.0,-5.5656,-5.8178,-5.9381,-6.032,-6.2654,0.0,-6.8329,-7.0297,-7.2573,-7.4538,-7.5008,-7.568,-7.5732,-7.3559,-7.2581,-7.1339,-6.8392,-6.5317,0.0,-6.1814,-6.2927,0.0,0.0,0.0,0.0,-7.5008,-7.5949,-7.6855,0.0,-7.834,0.0,-7.8702,-7.9028,-7.9426,0.0,-8.0332,-8.1237,-8.2722,-8.2903,-8.3483,-8.4642,-8.3555,-8.2794,-8.2432,-8.1563,-8.1128,-8.1128,-8.1128,-8.1128,-8.1128,-8.1128,-8.1128,-8.1128,-8.1128,-8.1128,-8.1128,-8.1128,-8.1128,-8.1128,-8.1128,-8.0549,-7.9788,-7.9861,-7.9571,-7.9063,0.0,0.0,0.0,0.0,0.0,0.0,0.0,0.0,0.0,0.0,0.0,0.0,0.0,0.0,0.0,0.0,0.0,0.0,0.0,0.0,0.0,0.0,0.0,0.0,0.0,0.0,0.0,0.0,0.0,0.0,0.0,0.0,0.0,0.0,0.0,0.0,0.0,0.0,0.0,0.0,0.0,0.0,0.0,0.0,0.0,0.0,0.0,0.0,0.0,0.0,-5.7942,-5.8409,-6.1243,-6.2379,-6.3333,-6.7045,-6.9108,-7.07,-7.3191,-7.4572,-7.5263,-7.5275,-7.5623,-7.5008,-7.1241,-7.0661,-6.9539,-6.4867,0.0,-6.1208,-5.9579,-6.0122,-6.1426,-6.3345,0.0,-6.9756,-7.3812,-7.5008,-7.6275,-7.8593,-7.9499,-7.968,-7.91,-7.9643,-8.0078,-8.0078,-8.0078,-8.102,-8.3193,-8.2577,-8.2758,-8.4171,-8.2939,-8.1889,-8.1128,-8.1128,-8.1128,-8.1128,-8.1128,-8.1092,-8.1128,-8.1128,-8.1128,-8.1128,-8.1128,-8.1092,-8.1092,-8.0984,-8.102,-8.1092,-8.0984,-8.0875,-8.073,-8.0259,-8.0368,-8.0729,0.0,0.0,0.0,0.0,0.0,0.0,0.0,0.0,0.0,0.0,-5.5507,-5.5507,0.0,0.0,0.0,0.0,0.0,0.0,0.0,0.0,0.0,0.0,0.0,0.0,0.0,0.0,0.0,0.0,0.0,0.0,0.0,0.0,0.0,0.0,0.0,0.0,0.0,0.0,0.0,0.0,0.0,0.0,0.0,0.0,0.0,0.0,0.0,0.0,0.0,0.0,-5.997,-6.1448,-6.4101,-6.6277,-6.8131,-6.955,-7.148,-7.3261,-7.3747,-7.498,-7.6104,-7.6097,-7.5189,-7.3631,-7.0987,-6.8959,0.0,0.0,-6.0665,-5.9542,-5.7913,-5.9361,-6.2005,-6.5591,-6.8307,-7.1603,-7.6239,-7.7,-7.7724,0.0,-7.9825,-8.0114,-8.0658,-8.0802,0.0,0.0,-8.0911,-8.1346,-8.2432,-8.1744,-8.1454,-8.1744,-8.2106,-8.1889,-8.1128,-8.1128,-8.1128,-8.1128,-8.1128,-8.1163,-8.134,-8.134,-8.134,-8.134,-8.134,-8.1234,-8.1056,-8.0404,-8.0513,-8.1056,-8.0368,-7.9716,-7.9245,-8.0476,-8.0151,-7.9244,0.0,0.0,0.0,0.0,0.0,0.0,0.0,-5.5507,-5.5507,-5.5507,-5.5507,-5.5507,-5.5507,-5.5507,0.0,0.0,0.0,0.0,0.0,0.0,0.0,0.0,0.0,0.0,0.0,0.0,0.0,0.0,0.0,0.0,0.0,0.0,0.0,0.0,0.0,0.0,0.0,0.0,0.0,0.0,0.0,0.0,0.0,0.0,0.0,0.0,0.0,0.0,0.0,0.0,-5.9965,-6.2749,-6.5856,-6.7923,-6.9547,-7.1597,-7.3333,-7.4716,-7.5559,-7.6022,-7.6275,-7.6275,-7.479,-7.2327,-6.8706,0.0,0.0,0.0,-5.8637,-5.7985,-5.679,-5.8891,0.0,-6.3382,-6.675,0.0,0.0,0.0,0.0,-7.968,-8.0259,-8.0694,0.0,-8.1128,-8.1128,-8.1128,-8.1128,-8.1454,-8.2251,-8.2033,-8.1634,-8.1128,-8.1562,-8.1598,-8.1128,-8.1128,-8.1128,-8.1128,-8.1128,-8.1199,-8.141,-8.141,-8.1445,-8.1512,-8.1512,-8.1155,-8.0618,-8.0218,-8.0291,-8.0581,-8.0077,-7.975,-7.9529,-7.9892,-7.9783,-7.9526,0.0,0.0,0.0,0.0,0.0,0.0,0.0,-5.5648,-5.5753,-5.5753,-5.5753,-5.5753,-5.5753,-5.5613,-5.5507,0.0,0.0,0.0,0.0,0.0,0.0,0.0,0.0,0.0,0.0,0.0,0.0,-5.5526,0.0,0.0,0.0,0.0,0.0,0.0,0.0,0.0,0.0,0.0,0.0,0.0,0.0,0.0,0.0,0.0,0.0,0.0,0.0,0.0,0.0,0.0,-5.9216,-6.2234,-6.5754,-6.8011,-6.9884,-7.2407,-7.41,-7.5406,-7.6863,-7.6782,-7.6348,-7.6492,-7.4464,-7.1313,-6.6858,-6.4359,0.0,-5.7985,-5.7188,-5.7007,-5.6355,-5.8311,-6.0267,0.0,-6.4251,-6.8126,0.0,0.0,0.0,0.0,0.0,0.0,-8.1128,-8.1128,0.0,-8.1128,-8.1128,-8.1453,-8.207,-8.2285,-8.2029,-8.1199,-8.134,-8.1305,-8.1163,-8.1092,-8.1128,-8.1128,-8.1128,-8.1199,-8.1445,-8.1445,-8.1512,-8.1647,-8.1647,-8.1216,-8.0499,-8.0135,-8.0099,-8.021,-7.989,-7.9743,-7.9701,-7.959,-7.9735,-7.9987,0.0,0.0,0.0,0.0,0.0,0.0,0.0,-5.6069,-5.649,-5.649,-5.649,-5.649,-5.649,-5.5894,-5.5507,0.0,0.0,0.0,0.0,0.0,0.0,0.0,0.0,0.0,0.0,0.0,0.0,-5.6642,-5.6108,0.0,0.0,0.0,0.0,0.0,0.0,-5.3603,0.0,0.0,0.0,0.0,0.0,0.0,0.0,0.0,0.0,0.0,0.0,0.0,0.0,0.0,0.0,-5.91,-6.2087,-6.632,-7.0331,-7.0654,0.0,0.0,-7.6167,-7.6348,-7.6456,-7.7217,-7.4464,-7.077,-6.7438,0.0,-6.1208,-5.7876,-5.7188,-5.7188,-5.708,-5.7333,-5.8492,-6.1399,0.0,-6.491,0.0,0.0,0.0,0.0,0.0,0.0,0.0,-8.1128,0.0,-8.1128,-8.127,-8.1411,-8.1484,-8.1621,-8.1654,-8.1581,-8.1443,-8.1375,-8.1375,-8.1163,-8.1128,-8.1128,-8.1128,-8.127,-8.1579,-8.1579,-8.1683,-8.1885,-8.1885,-8.1715,-8.1362,-7.9868,-7.9722,-8.0305,-7.9576,-7.8847,-7.8482,-8.056,-8.0451,-7.95,0.0,0.0,0.0,0.0,0.0,0.0,-5.5507,-5.5753,-5.6104,-5.6526,-5.621,-5.6104,-5.6561,-5.5929,-5.5507,0.0,0.0,0.0,0.0,0.0,0.0,0.0,0.0,0.0,0.0,0.0,-5.6812,-5.6812,-5.6736,0.0,0.0,0.0,0.0,0.0,0.0,-5.3711,0.0,0.0,0.0,0.0,0.0,0.0,0.0,0.0,0.0,0.0,0.0,0.0,0.0,0.0,0.0,0.0,-5.8864,-6.2038,0.0,0.0,-7.1051,-7.2923,-7.6174,-7.6674,-7.6492,-7.7289,-7.3414,-6.8814,-6.6569,0.0,-5.918,-5.6935,-5.6862,-5.7043,-5.6573,-5.6862,-5.7442,-5.8275,0.0,0.0,-6.5634,0.0,0.0,0.0,0.0,0.0,0.0,0.0,-8.1128,-8.1128,-8.1375,-8.1512,-8.1512,-8.1683,-8.1751,-8.1579,-8.1649,-8.1615,-8.1512,-8.1375,-8.134,-8.1408,-8.1199,-8.134,-8.1748,-8.1139,-8.1054,-8.1355,-8.0841,-8.0268,-7.9556,-7.8934,-7.8861,-7.9121,-7.9168,-7.88,-7.839,-8.036,-8.036,-7.9588,0.0,0.0,0.0,0.0,0.0,-5.5507,-5.5507,-5.5683,-5.5999,-5.6526,-5.6139,-5.6034,-5.6526,-5.5929,-5.5507,-5.5507,0.0,0.0,0.0,0.0,0.0,0.0,0.0,0.0,0.0,0.0,-5.6907,-5.6907,-5.7087,-5.7188,0.0,0.0,-5.621,-5.5921,0.0,0.0,0.0,0.0,0.0,0.0,0.0,0.0,0.0,0.0,0.0,0.0,0.0,0.0,0.0,0.0,0.0,0.0,0.0,0.0,0.0,0.0,-6.8798,-7.117,-7.5019,-7.6203,-7.642,-7.7,-7.269,-6.7873,0.0,0.0,-5.8311,-5.6681,-5.679,-5.7043,-5.6464,-5.6826,-5.7007,0.0,0.0,-5.9072,-6.1969,0.0,0.0,0.0,0.0,-7.613,0.0,-8.0549,-8.1092,-8.1163,-8.1408,-8.1581,-8.1579,-8.1751,-8.1818,-8.1785,-8.1852,-8.1818,-8.1717,-8.1512,-8.1512,-8.1579,-8.1339,-8.1479,-8.1849,-8.0911,-8.0682,-8.0975,-8.0131,-7.9407,-7.873,-7.8473,-7.84,-7.8437,-7.9113,-7.8963,-7.8583,-8.0194,-8.0414,-8.0044,0.0,0.0,0.0,0.0,0.0,0.0,-5.5507,-5.6139,-5.6596,-5.6596,-5.6596,-5.6596,-5.6596,-5.5929,-5.5507,-5.5507,0.0,0.0,0.0,0.0,0.0,0.0,0.0,0.0,0.0,0.0,-5.7188,-5.7188,-5.7188,-5.7188,-5.7188,-5.7188,-5.6754,-5.5957,0.0,0.0,0.0,0.0,0.0,0.0,0.0,0.0,0.0,0.0,0.0,0.0,0.0,0.0,0.0,0.0,0.0,0.0,0.0,0.0,0.0,0.0,-6.6025,-7.0734,-7.2327,-7.45,-7.6275,-7.6311,-7.269,-6.8555,0.0,0.0,-5.9144,-5.7514,-5.7188,-5.7188,-5.7188,-5.7188,-5.7188,-5.7188,-5.7188,0.0,-6.2621,0.0,0.0,0.0,0.0,-7.2798,-7.6022,-7.9245,-8.1163,-8.1375,-8.141,0.0,-8.1579,-8.1579,-8.1785,-8.2186,-8.1985,-8.1885,-8.1885,-8.1717,-8.1579,-8.1579,-8.1579,-8.1717,-8.1849,-8.108,-8.0813,-8.0975,-8.0131,-7.9764,-7.969,-7.8919,-7.8589,-7.8662,-7.947,-7.9286,-7.8772,-8.0388,-8.1012,-8.1012,0.0,0.0,0.0,0.0,0.0,0.0,0.0,-5.5718,-5.6034,-5.6526,-5.6174,-5.6034,-5.6561,-5.5929,-5.5566,-5.5764,0.0,0.0,0.0,0.0,0.0,0.0,0.0,0.0,0.0,0.0,-5.7188,-5.7188,-5.7188,-5.7188,-5.7188,-5.7188,-5.7043,-5.679,-5.5894,0.0,0.0,0.0,0.0,0.0,0.0,0.0,0.0,0.0,0.0,0.0,0.0,0.0,0.0,0.0,0.0,0.0,0.0,0.0,0.0,0.0,0.0,0.0,-6.7257,-6.8814,-6.9684,-6.9104,-6.6605,-6.3961,-6.2621,-6.005,-5.7659,-5.6609,-5.6826,-5.7188,-5.7188,-5.7188,-5.7188,-5.7188,-5.7188,0.0,0.0,0.0,0.0,0.0,0.0,-7.8484,0.0,0.0,-8.1128,-8.1163,-8.1305,-8.141,-8.1479,-8.1547,-8.1717,-8.2022,-8.1919,-8.1696,-8.1281,-8.1629,-8.1596,-8.1216,-8.0914,-8.0981,-8.1208,-7.9723,-7.9164,-7.9323,-7.8479,-7.8112,-7.8075,-7.7818,-7.7708,-7.7818,-7.8662,-7.8479,-7.8002,-8.0204,-8.0645,-8.0351,0.0,0.0,0.0,0.0,0.0,0.0,0.0,-5.5507,-5.5683,-5.6139,-5.5788,-5.5683,-5.6139,-5.5877,-5.5706,-5.5908,0.0,0.0,0.0,0.0,0.0,0.0,0.0,0.0,0.0,-5.7188,-5.7163,-5.7112,-5.7163,-5.7163,-5.7112,-5.7163,-5.7018,-5.6642,-5.6061,-5.5599,0.0,0.0,0.0,0.0,0.0,0.0,-5.6625,0.0,0.0,0.0,0.0,0.0,0.0,0.0,0.0,0.0,0.0,0.0,0.0,0.0,0.0,0.0,0.0,-6.5482,-6.6605,-6.5808,-6.378,0.0,0.0,-5.8927,-5.7043,-5.6536,-5.6826,-5.7188,-5.7188,-5.7188,-5.7188,-5.7188,-5.7188,0.0,0.0,0.0,0.0,-6.9394,0.0,0.0,0.0,-7.9933,-8.0766,-8.1092,-8.1199,-8.1305,-8.141,-8.1188,-8.1178,-8.1446,-8.1739,-8.1586,-8.0915,-8.1652,-8.1538,-8.0534,-8.0601,-8.0601,-8.0498,-7.9082,-7.8495,-7.8552,-7.7708,-7.7273,0.0,-7.7273,-7.7273,-7.7384,-7.8259,-7.8259,-7.8038,-7.9874,-8.0241,-7.9984,0.0,0.0,0.0,0.0,0.0,0.0,0.0,0.0,-5.5537,-5.5537,-5.5537,-5.5566,-5.5566,-5.5793,-5.5929,-5.5957,0.0,0.0,0.0,0.0,0.0,0.0,0.0,0.0,0.0,-5.7188,-5.7138,-5.6984,-5.7138,-5.7112,-5.6933,-5.7087,-5.6689,-5.5815,-5.5815,-5.5266,0.0,0.0,0.0,0.0,0.0,0.0,0.0,0.0,0.0,0.0,0.0,0.0,0.0,0.0,0.0,0.0,0.0,0.0,0.0,0.0,0.0,0.0,0.0,0.0,0.0,0.0,0.0,0.0,0.0,0.0,0.0,-5.7188,-5.7188,-5.7188,-5.7188,-5.7188,-5.7188,-5.7188,0.0,0.0,0.0,-6.244,0.0,0.0,-7.2327,0.0,-7.5011,-7.7977,-8.0114,-8.0875,-8.0947,-8.1054,-8.1228,-8.0537,-8.0274,-8.0572,-8.1337,-8.1337,-8.0532,-8.1534,-8.1232,-7.969,-8.0461,-8.0424,-7.969,-7.8883,-7.8516,-7.8479,-7.7671,-7.7273,-7.7273,-7.7273,-7.7273,-7.7384,-7.8185,-7.8516,-7.8589,-7.9396,-7.969,-7.98,0.0,0.0,0.0,0.0,0.0,0.0,0.0,0.0,0.0,0.0,-5.6021,-5.6189,-5.6189,-5.6245,-5.6383,0.0,0.0,0.0,0.0,0.0,0.0,0.0,0.0,0.0,0.0,-5.7188,-5.7138,-5.6984,-5.7138,-5.6959,-5.6447,-5.6644,-5.6536,-5.6161,-5.6089,-5.5818,0.0,0.0,0.0,0.0,0.0,0.0,0.0,0.0,0.0,0.0,-5.4954,-5.5314,0.0,0.0,0.0,0.0,0.0,0.0,0.0,0.0,-5.5816,0.0,-5.7268,0.0,-5.9253,-5.8456,-5.8275,-5.8275,0.0,0.0,0.0,0.0,0.0,0.0,0.0,-5.7188,-5.7188,-5.7188,0.0,0.0,-5.9651,0.0,0.0,-7.2472,-7.5623,-7.6927,-7.5228,-7.747,-7.9133,-7.9489,-7.9489,-7.9558,-7.9691,-7.9509,-7.947,-7.9533,-7.9881,-7.9755,-7.9113,-7.9947,-7.9874,-7.8883,-7.9066,-7.9066,-7.8846,-7.8002,-7.7635,-7.7567,-7.7384,-7.7273,-7.7273,-7.7273,-7.7273,-7.731,-7.753,-7.7635,-7.7708,-7.8589,-7.8883,-7.8993,0.0,0.0,0.0,0.0,0.0,0.0,0.0,0.0,0.0,0.0,0.0,0.0,0.0,0.0,0.0,0.0,0.0,0.0,0.0,0.0,0.0,0.0,0.0,-5.7087,-5.7087,-5.7036,-5.6959,-5.6881,-5.7036,-5.6803,-5.6201,-5.6591,-5.6537,-5.6126,-5.5986,-5.5671,0.0,0.0,0.0,0.0,-5.4926,0.0,0.0,0.0,0.0,0.0,-5.4803,-5.5164,0.0,-5.5525,-5.5402,-5.5291,0.0,0.0,0.0,0.0,-5.4809,-5.5568,-5.5819,-5.6523,-5.708,-5.6645,-5.6862,-5.7188,-5.7188,0.0,0.0,0.0,0.0,0.0,0.0,0.0,0.0,0.0,-5.7514,0.0,0.0,0.0,-6.9901,-7.2979,-7.4899,-7.6022,0.0,-7.7398,-7.8372,-7.8976,-7.8976,-7.9078,-7.9344,-7.8979,-7.8829,-7.8926,-7.8656,-7.85,-7.8463,-7.9365,-7.9176,-7.8002,-7.8405,-7.8405,-7.8002,-7.7494,-7.7273,-7.7273,-7.7273,-7.7273,-7.7273,-7.7273,-7.7273,-7.7273,-7.7273,-7.7273,-7.7384,-7.8295,-7.8369,-7.8185,0.0,0.0,0.0,0.0,0.0,0.0,0.0,0.0,0.0,0.0,0.0,0.0,0.0,0.0,0.0,0.0,0.0,0.0,0.0,0.0,0.0,0.0,0.0,-5.6984,-5.6984,-5.6881,-5.6803,-5.6803,-5.6933,-5.6733,-5.6304,-5.6823,-5.6662,-5.5963,-5.5847,-5.5274,0.0,0.0,-5.4679,0.0,-5.4645,0.0,0.0,0.0,0.0,0.0,0.0,0.0,0.0,-5.5354,-5.5219,-5.4939,-5.4198,0.0,0.0,0.0,0.0,0.0,-5.5512,-5.6555,-5.7333,-5.7224,-5.7188,-5.7188,-5.7188,0.0,0.0,0.0,0.0,0.0,0.0,-5.7188,0.0,0.0,0.0,0.0,-6.4722,-6.6677,-6.8959,-7.2327,-7.3052,0.0,-7.6529,-7.7142,-7.7717,-7.861,-7.868,-7.8847,-7.9174,-7.8515,-7.8212,-7.8405,-7.7708,-7.7578,-7.8149,-7.9003,-7.8699,-7.731,-7.8075,-7.8002,-7.7273,-7.7273,-7.7273,-7.7273,-7.7273,-7.7273,-7.7273,-7.7273,-7.7273,-7.7273,-7.7273,-7.7273,-7.7384,-7.8148,-7.7928,-7.7494,0.0,0.0,0.0,0.0,0.0,0.0,0.0,0.0,0.0,0.0,0.0,0.0,0.0,0.0,0.0,0.0,0.0,0.0,0.0,0.0,0.0,0.0,-5.7061,-5.6984,-5.6984,-5.6959,-5.6959,-5.6959,-5.6984,-5.7056,-5.7121,-5.7206,-5.6921,-5.633,-5.6234,-5.5487,-5.4269,-5.4267,-5.4267,-5.4237,-5.3979,0.0,0.0,0.0,0.0,0.0,0.0,0.0,0.0,-5.4652,-5.4108,-5.3356,-5.2775,0.0,0.0,0.0,0.0,0.0,-5.5476,-5.6825,-5.8058,-5.7369,-5.7188,-5.7188,-5.7188,0.0,0.0,0.0,0.0,0.0,0.0,-5.7188,-5.7188,0.0,0.0,-6.4106,0.0,0.0,-7.2038,-7.2653,0.0,-7.5152,-7.3595,-7.5429,-7.6865,-7.7101,-7.7299,-7.7458,-7.7646,-7.7499,-7.7494,-7.7494,-7.7347,-7.7347,-7.7463,-7.7604,-7.753,-7.7273,-7.742,-7.742,-7.7273,-7.7273,-7.7273,-7.7273,-7.7273,-7.7273,-7.7273,-7.7273,-7.7273,-7.7273,-7.7273,-7.7273,-7.731,-7.742,-7.7384,-7.7347,0.0,0.0,0.0,0.0,0.0,0.0,0.0,0.0,0.0,0.0,0.0,0.0,0.0,0.0,0.0,0.0,0.0,0.0,0.0,0.0,0.0,-5.7738,-5.6939,-5.6671,-5.6984,-5.6855,-5.7018,-5.7529,-5.7486,-5.741,-5.7339,-5.6554,-5.5862,-5.523,-5.5164,-5.4675,-5.3849,-5.4108,-5.4044,-5.3816,0.0,0.0,0.0,0.0,0.0,0.0,0.0,0.0,0.0,0.0,-5.3883,-5.3001,-5.2211,0.0,0.0,0.0,0.0,0.0,-5.4512,-5.562,-5.6717,-5.7623,-5.8166,-5.8492,-5.8492,-5.8492,0.0,0.0,0.0,0.0,0.0,0.0,-5.9868,-6.2041,0.0,-6.6714,-6.9388,-7.0335,-7.1277,0.0,0.0,-7.4428,-7.4645,-7.5726,-7.6545,-7.6769,-7.6866,-7.7024,-7.731,-7.7273,-7.7273,-7.7273,-7.7273,-7.7273,-7.7273,-7.7273,-7.7273,-7.7273,-7.7273,-7.7273,-7.7273,-7.7273,-7.7273,-7.7273,-7.7273,-7.7273,-7.7273,-7.7273,-7.7273,-7.7273,-7.7273,-7.7273,-7.7273,-7.7273,-7.7273,-7.7273,0.0,0.0,0.0,0.0,0.0,0.0,0.0,0.0,0.0,0.0,0.0,0.0,0.0,0.0,0.0,0.0,0.0,0.0,0.0,0.0,-5.7299,-5.7939,-5.7065,-5.6769,-5.7221,-5.6904,-5.72,-5.8052,-5.7961,-5.7723,-5.7342,-5.6482,-5.5501,-5.4512,-5.451,-5.4151,-5.3517,-5.3882,-5.3816,-5.3517,0.0,0.0,0.0,0.0,0.0,0.0,0.0,0.0,0.0,0.0,0.0,0.0,0.0,0.0,0.0,-5.0634,-5.1237,-5.2519,-5.4066,-5.4936,-5.5957,-5.813,0.0,-5.918,-5.976,-5.976,-5.9542,0.0,0.0,0.0,0.0,-6.0013,0.0,-6.5917,-6.78,-6.9249,-7.0408,-7.0734,-7.1531,-7.3342,-7.3559,-7.4283,-7.6094,-7.6345,-7.6478,-7.6705,-7.6801,-7.6961,-7.715,-7.7243,-7.731,-7.7243,-7.7273,-7.7273,-7.7273,-7.7273,-7.7273,-7.7273,-7.7273,-7.7273,-7.7273,-7.7273,-7.7273,-7.7273,-7.7273,-7.7273,-7.7273,-7.7273,-7.7273,-7.7273,-7.7273,-7.7273,-7.7273,-7.7273,-7.7273,-7.7273,0.0,0.0,0.0,0.0,0.0,0.0,0.0,0.0,0.0,0.0,0.0,0.0,0.0,0.0,0.0,0.0,0.0,0.0,0.0,0.0,-5.7072,-5.7235,-5.7637,-5.7864,-5.7918,-5.7481,-5.7537,-5.8211,-5.8182,-5.7867,-5.7219,-5.8012,-5.7268,-5.5302,-5.5432,-5.4728,-5.3518,-5.3517,-5.3517,-5.3518,-5.3517,0.0,0.0,0.0,0.0,0.0,0.0,0.0,0.0,0.0,0.0,0.0,0.0,0.0,-5.1025,-5.0556,-5.2048,-5.4054,-5.5033,-5.6186,-5.7442,-5.9108,-5.842,-5.7949,-6.0194,-6.0158,0.0,-6.1435,0.0,0.0,0.0,-6.0846,-6.2738,-6.5265,-6.8814,-7.2074,-7.4323,0.0,-7.5841,-7.6022,-7.6022,-7.6094,-7.6275,-7.6478,-7.6581,-7.6614,-7.6902,-7.7029,-7.6834,-7.7118,-7.7248,-7.7124,-7.7248,-7.7273,-7.7273,-7.7273,-7.7273,-7.7273,-7.7273,-7.7273,-7.7273,-7.7273,-7.7273,-7.7273,-7.7273,-7.7273,-7.7273,-7.7273,-7.7273,-7.7273,-7.7273,-7.7273,-7.7273,-7.7273,-7.7273,-7.7273,0.0,0.0,0.0,0.0,0.0,0.0,0.0,0.0,0.0,0.0,0.0,0.0,0.0,0.0,0.0,0.0,0.0,0.0,0.0,0.0,-5.7185,-5.7784,-5.7155,-5.7025,-5.7405,-5.8024,-5.8552,-5.8859,-5.8496,-5.7894,-5.7187,-5.6757,-5.5874,-5.4617,-5.439,-5.4023,-5.3518,-5.3518,-5.3518,-5.3518,-5.3518,-5.3518,0.0,0.0,0.0,0.0,0.0,0.0,0.0,0.0,-5.2939,-5.1826,-5.1417,-5.1332,-5.1196,-5.046,-5.1773,-5.3708,-5.448,-5.5898,-5.7478,-5.8565,-5.8383,0.0,0.0,-6.244,-6.2621,-6.273,-6.3961,0.0,0.0,0.0,-6.6351,-6.8271,-7.1494,-7.4247,-7.5659,-7.6094,-7.6275,-7.6275,-7.6275,-7.6275,-7.6275,-7.6378,-7.6445,-7.6581,-7.6806,-7.6929,-7.6998,-7.7217,-7.731,-7.7248,-7.7243,-7.7273,-7.7273,-7.7273,-7.7273,-7.7273,-7.7273,-7.7273,-7.7273,-7.7273,-7.7273,-7.7273,-7.7273,-7.7273,-7.7273,-7.7273,-7.7273,-7.7273,-7.7273,-7.7273,-7.7273,-7.7273,-7.7273,-7.7273,0.0,0.0,0.0,0.0,0.0,0.0,0.0,0.0,0.0,0.0,0.0,0.0,0.0,0.0,0.0,0.0,0.0,0.0,-5.7138,-5.6943,-5.6973,-5.7418,-5.6759,-5.6539,-5.6794,-5.8281,-5.894,-5.8703,-5.8567,-5.79,-5.6702,-5.5988,-5.5171,-5.4288,-5.3885,-5.3787,-5.3822,-5.3585,-5.3518,-5.3518,-5.3518,-5.3518,0.0,0.0,0.0,0.0,0.0,0.0,0.0,0.0,-5.2604,-5.186,0.0,0.0,-5.161,-5.1113,-5.2362,-5.4027,-5.4558,-5.5732,-5.708,-5.813,0.0,0.0,-6.3092,-6.4178,-6.4577,-6.5301,-6.5989,-6.617,-6.5301,0.0,0.0,0.0,-7.3088,-7.5659,-7.6203,-7.6275,-7.6275,-7.6275,-7.6275,-7.6275,-7.6275,-7.6275,-7.6378,-7.6581,-7.6741,-7.6834,-7.6998,-7.7181,-7.7273,-7.7248,-7.731,-7.7273,-7.7273,-7.7273,-7.7273,-7.7273,-7.7273,-7.7273,-7.7273,-7.7273,-7.7273,-7.7273,-7.7273,-7.7273,-7.7273,-7.7273,-7.7273,-7.7273,-7.7273,-7.7273,-7.7273,-7.7273,-7.7273,-7.7273,0.0,0.0,0.0,0.0,0.0,0.0,0.0,0.0,0.0,0.0,0.0,0.0,0.0,0.0,0.0,0.0,0.0,0.0,-5.6984,-5.6855,-5.6505,-5.583,-5.6577,-5.6702,-5.6098,-5.8107,-5.858,-5.7402,-5.8383,-5.7775,-5.5716,-5.6167,-5.5757,-5.4567,-5.4321,-5.4357,-5.4532,-5.3822,-5.3518,-5.3518,-5.3518,-5.3518,-5.3518,0.0,0.0,0.0,0.0,0.0,0.0,0.0,-5.1826,0.0,0.0,0.0,0.0,-5.2712,-5.3929,-5.5285,-5.5692,-5.5894,-5.6391,0.0,0.0,0.0,-6.4504,-6.4975,-6.5518,-6.9575,-6.7836,-6.5881,-6.6677,-6.751,0.0,-6.9098,-7.3197,-7.6275,-7.6275,-7.6275,-7.6275,-7.6275,-7.6275,-7.6275,-7.6275,-7.6275,-7.6342,-7.6545,-7.6705,-7.6801,-7.6801,-7.7118,-7.7212,-7.7092,-7.7212,-7.7273,-7.7273,-7.7273,-7.7273,-7.7273,-7.7273,-7.7273,-7.7273,-7.7273,-7.7273,-7.7273,-7.7273,-7.7273,-7.7273,-7.7273,-7.7273,-7.7273,-7.7273,-7.7273,-7.7273,-7.7273,-7.7273,-7.7273,0.0,0.0,0.0,0.0,0.0,0.0,0.0,0.0,0.0,0.0,0.0,0.0,0.0,0.0,0.0,0.0,0.0,0.0,-5.6891,-5.6803,-5.6678,-5.6374,-5.659,-5.6255,-5.5284,-5.5729,-5.6667,-5.8116,-5.7458,-5.6574,-5.5415,-5.5582,-5.5171,-5.4355,-5.4975,-5.4703,-5.3856,-5.416,-5.3957,-5.3551,-5.4059,-5.3957,-5.3551,0.0,0.0,0.0,0.0,0.0,0.0,0.0,0.0,0.0,0.0,0.0,0.0,-5.2933,-5.4169,-5.5608,-5.5862,-5.6969,0.0,-5.8342,0.0,0.0,0.0,-6.4975,0.0,0.0,-6.9539,-6.838,-6.9176,-6.9937,0.0,-7.077,-7.345,-7.5659,-7.6203,-7.6275,-7.6275,-7.6275,-7.5804,-7.5696,-7.6239,-7.5804,-7.5545,-7.5742,-7.5903,-7.5776,-7.5348,-7.5495,-7.5842,-7.6399,-7.5879,-7.6136,-7.7273,-7.6173,-7.5909,-7.646,-7.5909,-7.6173,-7.7273,-7.7273,-7.7273,-7.7273,-7.7273,-7.7273,-7.7273,-7.7273,-7.7273,-7.7273,-7.7273,-7.7273,-7.7273,-7.7273,-7.7273,-7.7273,0.0,0.0,0.0,0.0,0.0,0.0,0.0,0.0,0.0,0.0,-5.7188,-5.7163,0.0,0.0,0.0,0.0,0.0,0.0,0.0,-5.676,-5.6483,-5.5973,-5.5976,-5.5719,-5.5095,-5.4769,-5.5451,-5.724,-5.6472,-5.5758,-5.5041,-5.5348,-5.5212,-5.4836,-5.5755,-5.548,-5.4397,-5.4871,-5.46,-5.3991,-5.4397,-5.4329,-5.3991,0.0,0.0,0.0,0.0,0.0,0.0,0.0,0.0,0.0,0.0,0.0,0.0,-5.3282,-5.4585,-5.609,-5.6691,-5.7752,0.0,-5.9644,-6.1534,-6.378,-6.6025,0.0,0.0,0.0,-7.1893,-7.0842,-7.1639,-7.1893,0.0,-7.24,-7.4211,-7.5623,-7.5804,-7.5804,-7.5696,-7.537,-7.4935,-7.4826,-7.5297,-7.5001,-7.4809,-7.5002,-7.516,-7.5097,-7.4805,-7.4859,-7.5139,-7.5616,-7.5175,-7.5395,-7.6319,-7.5395,-7.5139,-7.5616,-7.5139,-7.5579,-7.6827,-7.6827,-7.7011,-7.7273,-7.7273,-7.7273,-7.7273,-7.7273,-7.7273,-7.7273,-7.7273,-7.7273,-7.7273,-7.7273,-7.7273,-7.7273,0.0,0.0,0.0,0.0,0.0,0.0,0.0,0.0,0.0,0.0,-5.7188,-5.7138,0.0,0.0,0.0,0.0,0.0,0.0,0.0,0.0,-5.608,-5.5005,-5.5109,-5.5313,-5.5572,-5.4907,-5.4839,-5.5339,-5.5519,-5.5243,-5.4499,-5.5344,-5.5681,-5.5715,-5.6461,-5.6393,-5.5681,-5.5649,-5.5175,-5.4499,-5.4566,-5.4566,-5.4499,-5.4566,0.0,0.0,0.0,0.0,0.0,0.0,0.0,0.0,0.0,-5.1148,-5.2442,-5.3748,-5.5193,-5.6624,-5.7935,0.0,0.0,-6.1616,-6.2983,0.0,-6.7728,-7.1205,-7.4211,-7.5659,0.0,-7.3233,-7.3885,-7.3414,-7.3124,-7.378,-7.5116,-7.5841,-7.5083,-7.4974,-7.4721,-7.3993,-7.3849,-7.3849,-7.3921,-7.401,-7.4097,-7.4181,-7.4366,-7.4482,-7.4558,-7.4558,-7.4661,-7.4808,-7.4735,-7.4771,-7.4918,-7.4771,-7.4735,-7.4808,-7.4735,-7.5102,-7.5873,-7.5946,-7.6423,-7.7163,-7.7273,-7.7273,-7.7273,-7.7273,-7.7273,-7.7273,-7.7273,-7.7273,-7.7273,-7.7273,-7.7273,-7.7273,0.0,0.0,0.0,0.0,0.0,0.0,0.0,0.0,0.0,0.0,0.0,0.0,0.0,0.0,0.0,0.0,0.0,0.0,0.0,0.0,-5.6027,-5.5539,-5.5679,-5.6109,-5.6816,-5.5348,-5.4669,-5.4771,-5.4838,-5.4465,-5.3788,-5.5108,-5.5681,-5.5715,-5.6461,-5.6393,-5.5647,-5.5074,-5.4397,-5.3788,-5.4363,-5.4262,-5.3788,-5.4363,-5.3653,0.0,0.0,0.0,0.0,0.0,0.0,0.0,-5.1454,-5.2001,-5.2546,-5.4346,-5.5772,-5.7142,0.0,-5.9879,0.0,0.0,-6.5917,-6.8561,-7.1132,-7.2364,-7.3052,-7.3414,-7.4573,-7.5406,-7.4935,-7.4685,-7.4431,-7.3993,-7.4211,-7.4356,-7.4178,-7.4142,-7.4102,-7.3921,-7.3342,-7.3233,-7.3849,-7.3506,-7.3016,-7.2393,-7.2632,-7.2555,-7.1955,-7.2034,-7.2642,-7.3927,-7.334,-7.3634,-7.4918,-7.367,-7.334,-7.3927,-7.3303,-7.345,-7.4221,-7.4882,-7.5616,-7.6387,-7.7017,-7.7273,-7.7273,-7.7273,-7.7273,-7.7273,-7.7273,-7.7273,-7.7273,-7.7273,-7.7273,-7.7273,0.0,0.0,0.0,0.0,0.0,0.0,0.0,0.0,0.0,0.0,0.0,0.0,0.0,0.0,0.0,0.0,0.0,0.0,0.0,0.0,-5.6212,-5.5994,-5.5296,-5.523,-5.5955,-5.4737,-5.4059,-5.4059,-5.4059,-5.389,-5.3551,-5.5006,-5.5681,-5.5749,-5.6833,-5.6731,-5.5683,-5.531,-5.4702,-5.4093,-5.4837,-5.4668,-5.4059,-5.4431,-5.3653,-5.2266,-5.1894,0.0,0.0,0.0,0.0,0.0,0.0,0.0,-5.2961,-5.4206,-5.5484,0.0,0.0,0.0,0.0,-6.4809,0.0,-7.0191,-7.1784,-7.2436,-7.2834,-7.3197,-7.4283,-7.5044,-7.4576,-7.4504,-7.4392,-7.3993,-7.3595,-7.3342,-7.3342,-7.3016,-7.2617,-7.2255,-7.1857,-7.1603,-7.1639,-7.1433,-7.109,-7.069,-7.0864,-7.0858,-7.0543,-7.0592,-7.1016,-7.1945,-7.1945,-7.2165,-7.2606,-7.2532,-7.2312,-7.1982,-7.2349,-7.2716,-7.3156,-7.4368,-7.5139,-7.5542,-7.5983,-7.6387,-7.6754,-7.6754,-7.6943,-7.7273,-7.7273,-7.7273,-7.7273,-7.7273,-7.7273,-7.7273,0.0,0.0,0.0,0.0,0.0,0.0,0.0,0.0,0.0,0.0,0.0,0.0,0.0,0.0,0.0,0.0,0.0,0.0,0.0,0.0,0.0,-5.6283,-5.4881,-5.4394,-5.5043,-5.4161,-5.3687,-5.3687,-5.3551,-5.3585,-5.3721,-5.5074,-5.5749,-5.5953,-5.7036,-5.6833,-5.5647,-5.5446,-5.4972,-5.4465,-5.5074,-5.4972,-5.4397,-5.4397,-5.3518,-5.2232,-5.1623,-5.1319,-5.1185,0.0,0.0,0.0,0.0,0.0,-5.3322,-5.3938,-5.5155,0.0,0.0,0.0,-6.2157,-6.5888,-6.8416,0.0,-7.0915,-7.1748,-7.2509,-7.316,-7.3631,-7.3885,-7.374,-7.3704,-7.3667,-7.3523,-7.2943,-7.2472,-7.2327,-7.1748,-7.1024,-7.0294,-7.0221,-6.9932,-6.9279,-6.9328,-6.9345,-6.917,-6.934,-6.9485,-6.9636,-6.9693,-6.9851,-7.0073,-7.077,-7.077,-7.011,-7.1431,-7.1431,-7.011,-7.1578,-7.2312,-7.2349,-7.3817,-7.4588,-7.4698,-7.4845,-7.5359,-7.6093,-7.6093,-7.657,-7.7273,-7.7273,-7.7273,-7.7273,-7.7273,-7.7273,-7.7273,0.0,0.0,0.0,0.0,0.0,0.0,0.0,0.0,0.0,0.0,-5.6933,-5.6933,0.0,0.0,0.0,0.0,0.0,0.0,0.0,0.0,0.0,-5.6098,-5.5838,-5.6056,-5.6822,-5.5313,-5.4431,-5.4431,-5.3822,-5.3822,-5.4465,-5.531,-5.6055,-5.663,-5.619,-5.5886,-5.5649,-5.4363,-5.3754,-5.3653,-5.3754,-5.3754,-5.3653,-5.3653,-5.3078,-5.23,-5.2198,-5.1758,-5.1185,-5.1185,-5.1185,0.0,0.0,0.0,-5.299,-5.4391,0.0,0.0,0.0,0.0,-6.4367,0.0,-6.7583,-6.8525,0.0,0.0,-7.0734,0.0,-7.2472,-7.3704,-7.3016,-7.2871,-7.2653,-7.1929,-7.1748,-7.1458,-7.077,-7.0589,-7.0227,-6.9461,-6.9388,-6.9316,-6.9207,-6.9328,-6.9067,-6.8229,-6.8604,-6.8739,-6.8617,-6.8879,-6.9348,-7.0073,-7.0183,-7.022,-7.011,-7.0293,-7.0293,-7.011,-7.1027,-7.1468,-7.1505,-7.2422,-7.3193,-7.3891,-7.4588,-7.5359,-7.6093,-7.6093,-7.657,-7.7273,-7.7273,-7.7273,-7.7273,-7.7273,-7.7273,-7.7273,0.0,0.0,0.0,0.0,0.0,0.0,0.0,0.0,0.0,0.0,0.0,-5.675,0.0,0.0,0.0,0.0,0.0,0.0,0.0,0.0,0.0,-5.5593,-5.4991,-5.4965,-5.5719,-5.4567,-5.3991,-5.3991,-5.3653,-5.4296,0.0,-5.6156,-5.6494,-5.6799,-5.6461,-5.6089,-5.5614,-5.4566,-5.389,-5.3551,-5.3957,-5.4126,-5.4059,-5.3653,-5.3551,-5.3484,-5.2604,-5.2401,-5.2503,-5.2503,-5.2503,-5.257,-5.2875,0.0,0.0,0.0,0.0,0.0,-5.9199,-6.1748,-6.4106,0.0,-6.7076,-6.809,-6.8452,0.0,-6.975,-6.975,-7.0553,-7.1422,-7.1929,-7.1313,-7.077,-7.0879,-7.0118,-6.9575,-6.9714,-6.9321,-6.8923,-6.8561,-6.8525,-6.8343,-6.7909,-6.7497,-6.7309,-6.7329,-6.7157,-6.7283,-6.7684,-6.7982,-6.8303,-6.8752,-6.9192,-6.9192,-6.8752,-6.9633,-7.011,-7.011,-7.0,-7.044,-7.1293,-7.1688,-7.2275,-7.3046,-7.3413,-7.4258,-7.5432,-7.5432,-7.6166,-7.7273,-7.7273,-7.7273,-7.7273,-7.7273,-7.7273,-7.7273,0.0,0.0,0.0,0.0,0.0,0.0,0.0,0.0,0.0,0.0,0.0,0.0,0.0,0.0,0.0,0.0,0.0,0.0,0.0,0.0,0.0,-5.4996,-5.4156,-5.3922,-5.4466,-5.3822,-5.3518,-5.3518,0.0,0.0,-5.6799,-5.7002,-5.7273,-5.7611,-5.7239,-5.6664,-5.5919,-5.4972,-5.4397,-5.4093,-5.4431,-5.46,-5.4566,-5.4194,-5.4397,-5.4702,-5.3348,-5.3281,-5.3754,-5.3551,-5.3518,-5.3518,-5.3518,-5.3717,0.0,0.0,0.0,0.0,0.0,0.0,-6.2404,-6.4251,-6.5591,-6.6605,0.0,0.0,-6.8561,0.0,-6.8742,-6.9285,-7.0661,-6.9973,-6.9424,-7.0004,-6.9068,-6.8452,-6.8814,-6.8199,-6.7692,-6.7692,-6.751,-6.7221,-6.6858,-6.6243,-6.6199,-6.6809,-6.6409,-6.6506,-6.723,-6.7442,-6.7579,-6.7687,-6.8274,-6.8311,-6.7714,-6.8898,-6.9486,-6.9486,-6.9302,-6.9853,-7.1027,-7.1431,-7.1945,-7.2496,-7.2496,-7.3303,-7.4588,-7.4588,-7.5432,-7.6686,-7.6907,-7.7011,-7.7047,-7.72,-7.7273,-7.7273,0.0,0.0,0.0,0.0,0.0,0.0,0.0,0.0,0.0,0.0,0.0,0.0,0.0,-5.6098,-5.5815,-5.5901,0.0,0.0,0.0,0.0,0.0,-5.4239,-5.4205,0.0,-5.4207,-5.3751,-5.3518,0.0,0.0,0.0,-5.6833,-5.7509,-5.8592,-5.9877,-5.8457,-5.7442,-5.6664,-5.5209,-5.4972,-5.5547,-5.4871,-5.46,-5.4668,-5.5344,-5.558,-5.5547,-5.4769,-5.4499,-5.4431,-5.3754,-5.3518,-5.3518,-5.3518,-5.3551,-5.3651,0.0,0.0,0.0,0.0,-5.8601,0.0,-6.158,0.0,0.0,0.0,0.0,0.0,-6.6931,-6.7547,-6.8307,-6.914,-6.9243,-6.9207,-6.9279,-6.9207,-6.8887,-6.8162,-6.7366,-6.6858,-6.6858,-6.6207,-6.6025,-6.675,-6.675,-6.6809,-6.699,-6.7089,-6.723,-6.747,-6.7606,-6.7687,-6.7687,-6.7724,-6.7724,-6.7687,-6.776,-6.7797,-6.7834,-6.9339,-7.0073,-7.022,-7.1725,-7.2459,-7.2496,-7.2496,-7.2973,-7.3744,-7.3744,-7.4258,-7.5102,-7.5873,-7.6166,-7.624,-7.7047,-7.7273,-7.7273,0.0,0.0,0.0,0.0,0.0,0.0,0.0,0.0,0.0,0.0,0.0,0.0,0.0,-5.5636,-5.5313,-5.5254,-5.4983,0.0,0.0,0.0,0.0,-5.3784,-5.4635,-5.4703,-5.3784,-5.4059,-5.3957,0.0,0.0,-5.4905,-5.6833,-5.7543,-5.8693,-6.0047,-5.9066,-5.8186,-5.7408,-5.5919,-5.548,-5.5647,-5.5412,-5.5581,-5.5987,-5.5784,-5.6021,-5.6258,-5.504,-5.46,-5.4566,-5.4296,-5.389,-5.3518,-5.3518,-5.3518,-5.3685,0.0,0.0,0.0,0.0,0.0,0.0,-6.0774,-6.1616,-6.2295,-6.3382,-6.4468,-6.5265,-6.5265,-6.5482,-6.5953,-6.6714,-6.6895,-6.704,-6.7583,-6.7221,-6.6786,-6.6496,-6.6677,-6.6786,-6.6786,-6.6533,-6.6526,-6.6896,-6.6374,-6.6301,-6.6946,-6.6652,-6.6691,-6.7294,-6.7579,-6.7687,-6.7687,-6.7687,-6.7687,-6.7687,-6.7687,-6.7687,-6.7714,-6.8274,-6.8825,-6.9339,-6.9926,-7.077,-7.1725,-7.1725,-7.2496,-7.3707,-7.3707,-7.4184,-7.4955,-7.5212,-7.5652,-7.613,-7.6423,-7.6864,-7.7273,0.0,0.0,0.0,0.0,0.0,0.0,0.0,0.0,0.0,0.0,0.0,0.0,0.0,0.0,-5.5022,-5.5022,-5.4615,-5.4664,-5.5382,-5.5145,-5.4769,-5.4262,-5.5209,-5.5141,-5.389,-5.4329,0.0,0.0,0.0,0.0,0.0,-5.7442,-5.8693,-6.008,-5.9336,-5.9032,0.0,-5.7442,-5.6833,-5.6799,-5.6562,-5.6731,-5.7171,-5.7171,-5.734,-5.7374,-5.6156,-5.5547,-5.531,-5.504,-5.4634,-5.4194,-5.3957,-5.3855,-5.4045,-5.5099,0.0,0.0,-5.7686,0.0,0.0,0.0,0.0,-6.1136,-6.2476,0.0,-6.407,-6.4323,-6.483,-6.5374,-6.5917,-6.5772,-6.5844,-6.6677,-6.6134,-6.57,-6.5953,-6.6243,-6.6496,-6.6786,-6.6569,-6.6417,-6.6533,-6.6192,-6.6156,-6.6583,-6.6215,-6.6399,-6.7258,-6.7295,-6.7393,-6.7687,-6.7687,-6.7687,-6.7687,-6.7687,-6.7687,-6.7687,-6.7944,-6.8385,-6.8898,-6.9192,-7.0036,-7.1293,-7.1293,-7.2055,-7.3303,-7.3303,-7.3597,-7.4147,-7.4404,-7.4808,-7.5359,-7.5909,-7.646,-7.6937,0.0,0.0,0.0,0.0,0.0,0.0,0.0,0.0,0.0,-5.5929,0.0,0.0,0.0,0.0,0.0,-5.5338,-5.4941,-5.4972,-5.5716,-5.5715,-5.575,-5.5681,0.0,0.0,0.0,0.0,0.0,0.0,0.0,0.0,0.0,0.0,-5.8626,-6.0013,-5.9336,-5.9877,-6.1129,-5.9573,-5.8964,-5.8964,-5.8186,-5.7915,-5.8118,-5.9539,-5.9674,-5.8964,-5.8186,-5.7476,-5.6765,-5.6055,-5.5749,-5.5615,-5.4837,-5.4562,-5.4745,-5.5751,-5.6174,0.0,0.0,0.0,0.0,0.0,0.0,0.0,-6.1362,0.0,-6.3309,-6.4106,-6.5555,-6.6641,-6.6677,-6.6062,-6.5772,-6.6605,-6.6098,-6.5844,-6.6641,-6.6098,-6.5881,-6.6641,-6.6025,-6.5555,-6.5583,-6.6279,-6.6446,-6.582,-6.5887,-6.6391,-6.736,-6.6836,-6.688,-6.765,-6.7687,-6.7687,-6.7687,-6.7687,-6.7687,-6.7714,-6.8495,-6.8862,-6.8898,-6.9669,-7.0477,-7.1219,-7.1219,-7.1725,-7.2459,-7.2496,-7.2496,-7.2569,-7.334,-7.367,-7.3891,-7.5469,-7.6093,-7.624,0.0,0.0,0.0,0.0,0.0,0.0,0.0,0.0,0.0,0.0,0.0,0.0,-5.5152,-5.5823,-5.6303,-5.6402,-5.6261,-5.6292,-5.6494,-5.6494,-5.6258,-5.575,-5.6731,-5.6697,-5.5446,0.0,0.0,0.0,0.0,0.0,0.0,0.0,0.0,0.0,-5.9404,-5.9742,-5.9505,-5.7476,-5.7543,-5.8964,-5.8186,-5.8524,-5.9539,-5.9945,-5.9979,-5.9708,-5.8964,-5.8558,-5.8355,-5.8186,-5.7408,-5.6292,-5.5006,-5.4855,-5.5194,-5.5519,-5.6257,0.0,-5.7138,0.0,0.0,0.0,0.0,0.0,0.0,0.0,-6.081,-6.1643,-6.215,-6.2838,-6.3961,-6.3997,-6.4106,-6.4939,-6.5374,-6.5482,-6.512,-6.5374,-6.5482,-6.512,-6.4867,-6.4807,-6.4994,-6.5129,-6.5165,0.0,-6.5213,-6.5377,-6.5515,-6.616,-6.688,-6.765,-6.7687,-6.7687,-6.7687,-6.7687,-6.7687,-6.7687,-6.7907,-6.8017,-6.8017,-6.8238,-6.8788,-6.9596,-7.0183,-7.0881,-7.1688,-7.2275,-7.2496,-7.2532,-7.2753,-7.3193,-7.3817,-7.4845,-7.5616,-7.624,0.0,0.0,0.0,0.0,0.0,0.0,0.0,0.0,0.0,0.0,0.0,0.0,-5.5781,-5.6098,-5.6461,-5.6765,-5.6799,-5.6934,-5.7239,-5.7273,-5.707,-5.663,-5.7442,-5.734,-5.619,0.0,0.0,0.0,0.0,0.0,0.0,0.0,0.0,0.0,0.0,0.0,0.0,-5.6055,-5.6528,-5.8558,-5.8727,-5.9336,-6.0182,-6.0791,-6.0858,-6.0554,-6.0114,-5.9742,-5.9471,-5.9471,-5.8287,-5.6738,-5.6228,-5.5668,-5.5313,-5.5837,-5.6474,0.0,0.0,0.0,0.0,0.0,0.0,0.0,-5.918,-5.976,-6.0448,0.0,-6.2078,-6.2585,-6.3526,-6.3708,-6.3852,-6.4323,-6.4794,-6.4939,-6.4468,-6.4794,-6.4939,-6.4468,-6.4396,-6.4335,-6.4175,-6.4347,-6.4447,-6.4221,-6.4347,-6.4427,-6.449,-6.5453,-6.6219,-6.6659,-6.7026,-6.7173,-6.7173,-6.7504,-6.7687,-6.7687,-6.7687,-6.7687,-6.7687,-6.7687,-6.8128,-6.8935,-6.9412,-7.0257,-7.1329,-7.1835,-7.2202,-7.2496,-7.2496,-7.2789,-7.334,-7.4478,-7.5212,-7.5763,0.0,0.0,0.0,0.0,0.0,0.0,0.0,0.0,0.0,0.0,-5.58,-5.6718,-5.6472,-5.6233,-5.6325,-5.6867,-5.7002,-5.7273,-5.7848,-5.7881,-5.7881,-5.7881,-5.7881,-5.7577,-5.6934,-5.6934,0.0,0.0,0.0,0.0,0.0,0.0,0.0,0.0,0.0,0.0,0.0,0.0,-5.5987,-5.7881,-5.9302,-6.0013,-6.0385,-6.1839,-6.1975,-6.1434,-6.1434,-6.096,-6.0351,-6.025,-5.8903,-5.7256,-5.7856,-5.6751,-5.5404,-5.6355,-5.6742,0.0,0.0,0.0,0.0,-5.8094,-5.7804,0.0,-5.9832,-6.0412,-6.0919,-6.2259,-6.3164,-6.3744,-6.3852,-6.3925,-6.3961,-6.3889,-6.3997,-6.4142,-6.4251,-6.4251,-6.4215,-6.4142,-6.4142,-6.3852,-6.3156,-6.3736,-6.39,-6.3312,-6.3401,-6.3685,-6.409,-6.4787,-6.5228,-6.5301,-6.5999,-6.6402,-6.6512,-6.721,-6.7614,-6.7687,-6.7687,-6.7687,-6.7687,-6.7687,-6.8091,-6.8788,-6.8862,-6.9706,-7.1036,-7.1219,-7.1798,-7.2496,-7.2496,-7.2496,-7.2679,-7.4331,-7.4918,-7.5139,0.0,0.0,0.0,0.0,0.0,0.0,0.0,0.0,0.0,0.0,-5.62,-5.678,-5.6739,-5.7681,-5.8186,-5.7712,-5.822,-5.8389,-5.7915,-5.7881,-5.7881,-5.7881,-5.7881,-5.7814,-5.7679,-5.7679,-5.7611,0.0,0.0,0.0,0.0,0.0,0.0,0.0,0.0,0.0,0.0,0.0,-5.663,-5.7103,-5.7949,-5.9438,-6.1163,-6.2042,-6.2313,-6.2178,-6.2178,-6.2076,-6.1839,-6.1264,-6.0356,-5.9183,-5.7568,-5.7109,-5.6952,-5.5959,-5.6432,-5.7262,-5.7216,-5.7188,-5.7224,-5.7369,-5.7804,0.0,-5.7116,-5.7949,-5.8782,-5.842,-5.8999,-5.976,-6.0412,-6.1064,-6.1281,-6.0629,-6.1643,-6.2693,-6.3345,-6.3418,-6.32,-6.2549,-6.2449,-6.2431,-6.2386,-6.2558,-6.2621,-6.2573,-6.273,-6.3178,-6.4053,-6.4237,-6.464,-6.5301,-6.5448,-6.5852,-6.6476,-6.6659,-6.7063,-6.7687,-6.7687,-6.7687,-6.7687,-6.7687,-6.7797,-6.7944,-6.8605,-6.9082,-6.9486,-7.077,-7.1798,-7.2496,-7.2496,-7.2496,-7.2679,-7.4331,-7.4918,-7.5139,0.0,0.0,0.0,0.0,0.0,0.0,0.0,0.0,0.0,0.0,0.0,-5.734,-5.734,-5.8355,-5.8693,-5.7949,-5.8592,-5.8693,-5.7949,-5.8254,-5.8287,-5.7915,-5.7881,-5.8051,-5.8457,-5.8084,-5.8084,-5.8457,0.0,0.0,0.0,0.0,0.0,0.0,0.0,0.0,0.0,0.0,-5.5784,-5.6934,-5.8389,-5.9911,-6.1366,-6.211,-6.2618,-6.2888,-6.2516,-6.2381,-6.2358,-6.1923,-6.096,-5.9874,-5.9491,-5.8692,-5.7876,-5.7391,-5.7517,-5.7694,-5.7227,-5.7138,-5.7188,-5.7188,-5.7514,0.0,0.0,-5.7804,-5.8383,-5.8383,-5.8709,-5.9108,-5.9542,-5.9941,-6.0086,-5.9687,-6.0629,-6.1426,-6.139,-6.2114,-6.2295,-6.1471,-6.1761,-6.186,-6.1507,-6.1914,-6.2265,-6.2475,-6.2629,-6.2913,-6.3429,-6.3466,-6.3649,-6.4028,-6.4457,-6.5081,-6.5888,-6.6292,-6.688,-6.7687,-6.7687,-6.7687,-6.7687,-6.7687,-6.7687,-6.7724,-6.8128,-6.8531,-6.8972,-6.9779,-7.0807,-7.1945,-7.2349,-7.2496,-7.2642,-7.3854,-7.4294,-7.4551,0.0,0.0,0.0,0.0,0.0,0.0,0.0,0.0,0.0,0.0,0.0,-5.8152,-5.8287,-5.8998,-5.9268,-5.8795,-5.9302,-5.9336,-5.8592,-5.8964,-5.8829,-5.7915,-5.7881,-5.8186,-5.8795,-5.8186,-5.8118,-5.8592,0.0,0.0,0.0,0.0,0.0,0.0,0.0,0.0,0.0,0.0,0.0,-5.7408,-5.9336,-6.0588,-6.1366,-6.211,-6.2753,-6.3226,-6.278,-6.2697,-6.2753,-6.2415,-6.1462,-6.0531,-6.1117,-6.0088,-5.8739,-5.9008,-5.8691,-5.8142,-5.7454,-5.7366,-5.7369,-5.7224,-5.7442,-5.7695,0.0,0.0,0.0,-5.8854,0.0,0.0,0.0,0.0,0.0,0.0,0.0,0.0,0.0,-6.0448,0.0,-6.0665,-6.1136,-6.1326,-6.0846,-6.1551,-6.2172,-6.2578,-6.2583,-6.2658,-6.278,-6.278,-6.278,-6.278,-6.3466,-6.4237,-6.5081,-6.5888,-6.6659,-6.7467,-6.7614,-6.7687,-6.7687,-6.7687,-6.7687,-6.7687,-6.7687,-6.8054,-6.8678,-6.8862,-6.9779,-7.1174,-7.1945,-7.2349,-7.2606,-7.3377,-7.3707,-7.3927,-5.6698,-5.6482,0.0,0.0,0.0,0.0,0.0,0.0,0.0,0.0,0.0,-5.9133,-5.9776,-6.0554,-6.1264,-6.1839,-6.1941,-6.1704,-6.096,-6.0317,-5.9336,-5.7949,-5.7881,-5.7915,-5.8017,-5.7915,-5.7611,-5.707,0.0,0.0,0.0,0.0,0.0,0.0,-5.5649,0.0,0.0,0.0,-5.734,-5.8829,-5.9742,-6.0588,-6.1366,-6.211,-6.2448,-6.26,-6.3155,-6.3788,-6.4148,-6.2816,-6.2542,-6.2326,-5.9837,-5.9741,-6.0249,-5.8986,-5.8574,-5.8514,-5.83,-5.8275,-5.8094,-5.7369,-5.8275,-5.8782,-5.6717,0.0,-5.8021,-5.6681,0.0,0.0,0.0,0.0,0.0,0.0,0.0,0.0,-5.6609,-5.842,-5.9832,-5.976,-5.9832,-6.0122,-6.0738,-6.1121,-6.1682,-6.2567,-6.207,-6.2034,-6.2768,-6.278,-6.278,-6.278,-6.2915,-6.3356,-6.4237,-6.5044,-6.5852,-6.6623,-6.7357,-6.7687,-6.7687,-6.7687,-6.7687,-6.7687,-6.7687,-6.7724,-6.7871,-6.8605,-6.9449,-7.033,-7.1138,-7.1872,-7.2606,-7.3377,-7.3707,-7.3927,-5.7325,-5.7592,0.0,0.0,0.0,0.0,0.0,0.0,0.0,0.0,0.0,-6.0452,-6.0757,-6.1467,-6.2042,-6.2347,-6.2787,-6.255,-6.1366,-6.0994,-6.0317,-5.9201,-5.8355,-5.8287,-5.9167,-5.8321,-5.7746,-5.7442,-5.7002,0.0,0.0,0.0,0.0,0.0,-5.5446,0.0,-5.6968,0.0,-5.7645,0.0,-5.981,-6.0588,-6.1366,-6.211,-6.2659,-6.3152,-6.3864,-6.4316,-6.4531,-6.3869,-6.3054,-6.2269,-6.2129,-6.1282,-6.0396,-6.0418,-5.9785,-5.8942,-5.8418,-5.8368,-5.8202,-5.7406,-5.8058,-5.8528,-5.7043,-5.7224,-5.7514,-5.6826,0.0,0.0,0.0,0.0,0.0,0.0,-5.7442,0.0,0.0,0.0,-5.8486,-5.8957,0.0,0.0,-5.9732,-6.0295,-6.1005,-6.1935,-6.1753,-6.1961,-6.2768,-6.278,-6.278,-6.278,-6.278,-6.3209,-6.409,-6.4897,-6.5705,-6.6512,-6.732,-6.7687,-6.7687,-6.7687,-6.7687,-6.7687,-6.7687,-6.7687,-6.776,-6.8568,-6.9376,-7.0183,-7.0991,-7.1798,-7.2532,-7.2899,-7.301,-7.3156,-5.8583,0.0,0.0,0.0,0.0,0.0,0.0,0.0,0.0,-6.0287,-6.07,-6.1274,-6.2038,-6.3041,-6.37,-6.3869,-6.4783,-6.4546,-6.2618,-6.2313,-6.167,-6.0486,-5.9201,-5.8998,-6.008,-5.8863,-5.7881,-5.7306,-5.6968,0.0,0.0,0.0,0.0,0.0,0.0,-5.6494,-5.8186,0.0,-5.8457,-5.9674,-6.0216,-6.1007,-6.1906,-6.2455,-6.3158,-6.3894,-6.4631,-6.5022,-6.5138,-6.4727,-6.3757,-6.2831,-6.3569,-6.2463,-6.0999,-6.1648,-6.0837,-5.96,-5.8806,-5.8668,-5.8492,-5.7442,-5.7804,-5.8202,-5.7369,-5.7369,-5.7478,-5.7261,-5.7369,0.0,0.0,0.0,0.0,0.0,0.0,-5.7985,0.0,-5.6878,0.0,0.0,0.0,0.0,0.0,-5.953,-6.0237,-6.119,-6.1263,-6.163,-6.2438,-6.2695,-6.278,-6.278,-6.278,-6.3099,-6.3723,-6.4787,-6.5595,-6.6182,-6.721,-6.7687,-6.7687,-6.7687,-6.7687,-6.7687,-6.7687,-6.7834,-6.8054,-6.8678,-6.9522,-7.0477,-7.1064,-7.1798,-7.2496,-7.2496,-7.2642,-7.2936,-6.0404,-5.9259,0.0,0.0,0.0,0.0,0.0,-5.908,-5.946,-6.1467,-6.0823,-6.1189,-6.3909,-6.5651,-6.6948,-6.7658,-6.9113,-6.8707,-6.573,-6.4884,-6.3531,-6.1366,-6.0486,-6.0047,-6.0114,-5.937,-5.7949,-5.5749,-5.6461,0.0,0.0,0.0,0.0,0.0,-5.7814,-5.822,-5.9032,-5.9708,-6.0486,-6.1231,-6.1264,-6.2017,-6.3165,-6.3385,-6.3933,-6.4669,-6.5406,-6.611,-6.6529,-6.5059,-6.4895,-6.4878,-6.2669,-6.2409,-6.2759,-6.2037,-6.129,-6.0566,-5.977,-5.9579,-5.918,-5.7587,-5.7804,-5.8202,-5.7369,-5.7804,-5.813,-5.7369,-5.7804,-5.813,-5.7333,0.0,0.0,0.0,0.0,0.0,0.0,0.0,0.0,0.0,0.0,0.0,0.0,-5.8993,-5.9432,-6.0358,-6.0456,-6.0786,-6.1594,-6.2401,-6.278,-6.278,-6.278,-6.278,-6.2842,-6.4494,-6.5301,-6.5375,-6.6953,-6.7687,-6.7687,-6.7687,-6.7687,-6.7687,-6.7687,-6.8128,-6.8862,-6.8898,-6.9853,-7.1256,-7.1293,-7.1798,-7.2496,-7.2496,-7.2973,-7.378,-6.0447,0.0,0.0,-6.0863,-6.0172,-5.9618,-5.9928,-6.0385,-6.1535,-6.3873,-6.3976,-6.4932,-6.7886,-6.8701,-6.935,-7.0094,-7.0161,-6.9316,-6.7286,-6.5561,-6.4275,-6.3531,-6.1839,-6.1129,-6.1603,-6.0385,-5.8896,-5.7171,-5.6934,0.0,0.0,0.0,0.0,0.0,0.0,-5.8592,0.0,0.0,0.0,0.0,0.0,-6.2879,-6.3422,-6.3897,-6.4497,-6.5174,-6.5565,-6.6172,-6.6648,-6.561,-6.4606,-6.3661,-6.2969,-6.2076,-6.1348,-6.1795,-6.1715,-6.1398,-6.1254,-6.1208,-6.081,-5.918,-5.8999,-5.8854,-5.7514,-5.7804,-5.8311,-5.8058,-5.8637,-5.8963,-5.813,0.0,0.0,0.0,0.0,0.0,0.0,0.0,0.0,0.0,0.0,0.0,0.0,0.0,-5.8684,-5.9515,-5.9588,-6.0199,-6.152,-6.1851,-6.2254,-6.278,-6.278,-6.278,-6.278,-6.4457,-6.5301,-6.5338,-6.6916,-6.7687,-6.7687,-6.7687,-6.7687,-6.7724,-6.8238,-6.8641,-6.8972,-7.0073,-7.0779,-7.1329,-7.1908,-7.2275,-7.2496,-7.2496,-7.2679,-7.301,-6.1348,-6.1149,-6.1081,-6.1444,-6.1055,-6.0695,-6.0701,-6.1565,-6.3163,-6.584,-6.612,-6.7327,-7.0644,-7.0988,-7.1176,-7.165,-7.1751,-7.0669,-6.8064,-6.7083,-6.6102,-6.5019,-6.3632,-6.2956,-6.3159,-6.1941,-6.0317,-5.8287,-5.8355,-5.8254,0.0,0.0,0.0,0.0,0.0,-5.9471,-6.0182,-6.1231,-6.2135,0.0,0.0,-6.3728,-6.4147,-6.4455,-6.4794,-6.5207,-6.5855,-6.6211,-6.6279,-6.5772,-6.4664,-6.345,-6.3245,-6.2365,-6.1496,-6.1878,-6.1923,-6.1868,-6.195,-6.1761,-6.1326,-6.0303,-5.9832,-5.9253,-5.7913,-5.8456,-5.9108,-5.858,-5.9061,-5.946,-5.9056,-5.878,0.0,0.0,0.0,0.0,0.0,-5.5263,0.0,0.0,0.0,0.0,0.0,-5.7446,-5.7813,-5.8304,-5.8597,-5.9355,-6.0676,-6.13,-6.1961,-6.2743,-6.278,-6.278,-6.278,-6.4457,-6.5301,-6.5338,-6.6916,-6.7687,-6.7687,-6.7687,-6.7687,-6.7724,-6.8568,-6.9082,-6.9449,-7.077,-7.1439,-7.1798,-7.2312,-7.2496,-7.2496,-7.2496,-7.2679,-7.301,-6.2911,-6.2334,-6.1716,-6.1393,-6.1514,-6.1636,-6.1612,-6.2579,-6.4339,-6.7305,-6.7325,-6.8527,-7.2156,-7.2579,-7.2563,-7.2563,-7.3815,-7.2766,-6.8402,-6.9417,-6.8876,-6.5967,-6.5797,-6.5467,-6.4756,-6.3937,-6.211,-5.9204,-6.0554,0.0,0.0,0.0,0.0,0.0,-6.0931,0.0,-6.0254,-6.1816,-6.2893,-6.3576,-6.3964,-6.4536,-6.5169,-6.5161,-6.4959,-6.4839,-6.63,-6.6279,-6.5591,-6.5555,-6.5011,-6.4178,-6.3382,-6.3128,-6.2983,-6.2295,-6.2087,-6.2123,-6.2123,-6.1571,-6.0955,-6.0883,-6.0267,-5.947,-5.8637,-5.9687,-6.0429,-5.9034,-5.9284,-5.9792,-5.9976,-5.927,0.0,0.0,0.0,0.0,0.0,0.0,-5.5596,-5.5669,0.0,0.0,0.0,-5.7299,-5.6859,-5.6859,-5.7556,-5.8364,0.0,-6.0676,-6.1924,-6.2732,-6.278,-6.278,-6.278,-6.4457,-6.5301,-6.5338,-6.6916,-6.7687,-6.7687,-6.7687,-6.7687,-6.7724,-6.8605,-6.9376,-7.011,-7.0991,-7.1798,-7.2459,-7.2496,-7.2496,-7.2496,-7.2496,-7.301,-7.367,-6.1839,-6.1813,-6.1944,-6.2158,-6.1442,-6.0988,-6.1595,-6.3449,-6.5686,-6.837,-7.0438,-7.2507,-7.4628,-7.4827,-7.4864,-7.4864,-7.4695,-7.3646,-7.1379,-7.0567,-6.9586,-6.8267,-6.7151,-6.6697,-6.7107,-6.4733,-6.3135,-6.2415,-6.1098,0.0,-6.008,0.0,0.0,0.0,0.0,0.0,-6.0926,-6.2839,-6.3763,-6.3962,-6.5205,-6.5229,-6.4657,-6.574,-6.5837,-6.5533,-6.6452,-6.6279,-6.5518,-6.4903,-6.4178,-6.3345,-6.2549,-6.2331,-6.2404,-6.2766,-6.3309,-6.378,-6.378,-6.3635,-6.32,-6.2005,-6.11,-6.033,-5.96,-6.0207,-6.0877,-6.0606,-6.1152,-6.1345,-6.0208,-5.9857,-5.9396,0.0,0.0,0.0,0.0,0.0,-5.5133,-5.6345,-5.5941,-5.6235,-5.785,-5.7813,-5.7703,-5.7703,-5.7886,-5.8364,-5.9148,-6.0162,-6.108,-6.1887,-6.2511,-6.278,-6.278,-6.4457,-6.5301,-6.5338,-6.6916,-6.7687,-6.7687,-6.7687,-6.7687,-6.776,-6.9192,-6.9559,-6.9376,-7.1358,-7.1982,-7.1688,-7.2275,-7.2496,-7.2496,-7.2496,-7.301,-7.3597,-6.2572,-6.3227,-6.3678,-6.3125,-6.3137,-6.3344,-6.3764,-6.4912,-6.6664,-6.9301,-7.189,-7.3937,-7.5264,-7.596,-7.6485,-7.6826,-7.5812,-7.4603,-7.3155,-7.2227,-7.1079,-6.968,-6.91,-6.8734,-6.8492,-6.6867,-6.5503,-6.4419,-6.2513,0.0,-6.0969,0.0,0.0,0.0,0.0,-6.1033,-6.0981,-6.3589,-6.4628,-6.4604,-6.551,-6.5633,0.0,-6.5821,-6.6103,-6.6197,-6.627,-6.5772,-6.4939,-6.4142,-6.3345,-6.2585,-6.2123,-6.1978,-6.2087,-6.2549,-6.3019,-6.349,-6.4215,-6.3889,-6.3309,-6.3092,-6.2241,-6.118,-6.0409,-6.0949,-6.1636,-6.1704,-6.1813,-6.1839,-6.181,-6.0627,-5.9298,0.0,0.0,0.0,-5.5647,-5.4913,-5.4876,-5.6124,-5.6492,-5.6859,-5.7409,-5.7152,-5.6785,-5.6455,-5.6748,-5.7152,-5.7593,-5.9391,-6.0603,-6.1043,-6.2218,-6.2989,-6.3356,-6.4677,-6.5485,-6.5852,-6.71,-6.7687,-6.7687,-6.7687,-6.7687,-6.776,-6.9009,-6.9522,-6.9559,-7.1284,-7.1945,-7.1872,-7.2312,-7.2496,-7.2496,-7.2496,-7.2789,-7.312,-6.3668,-6.4927,-6.5458,-6.4004,-6.5411,-6.6872,-6.709,-6.7223,-6.8151,-7.0528,-7.2736,-7.4356,-7.5102,-7.6227,-7.715,-7.7837,-7.6556,-7.5189,-7.3957,-7.3754,-7.2816,-7.0839,-7.1289,-7.0949,-6.9609,-6.9217,-6.7971,-6.5689,-6.4211,0.0,0.0,0.0,0.0,0.0,0.0,0.0,0.0,-6.4079,-6.5226,-6.5054,-6.5412,-6.5862,-6.6295,-6.5639,-6.5938,-6.6533,-6.5627,-6.4903,-6.4287,-6.3454,-6.2657,-6.2014,-6.2123,-6.2087,-6.2014,-6.2259,-6.2231,-6.2512,-6.3997,-6.3382,-6.2621,-6.3953,-6.3339,-6.2122,-6.1217,-6.1739,-6.2423,-6.2423,-6.1901,-6.1905,-6.3477,-6.1239,-5.8956,0.0,0.0,-5.6198,-5.6088,-5.5464,-5.528,-5.5978,-5.7299,0.0,-5.7042,-5.6308,-5.5537,-5.462,-5.5207,-5.5669,-5.5757,-5.8621,-6.0309,-6.0419,-6.1936,-6.3209,-6.409,-6.4897,-6.5705,-6.6512,-6.732,-6.7687,-6.7687,-6.7687,-6.7687,-6.7724,-6.8568,-6.9229,-6.9853,-7.0881,-7.1798,-7.2496,-7.2496,-7.2496,-7.2496,-7.2496,-7.2496,-7.2496,-6.2155,-6.3042,-6.3888,-6.3843,-6.5711,-6.7904,-7.0062,-7.1586,-7.263,-7.3095,-7.5554,-7.686,-7.5732,-7.5816,-7.5769,-7.5309,-7.4988,-7.4491,-7.3772,-7.3722,-7.3559,-7.3212,-7.2726,-7.2369,-7.2083,-6.9598,-6.7764,-6.6642,-6.4355,0.0,0.0,0.0,0.0,0.0,0.0,0.0,-6.3244,-6.447,0.0,-6.4249,-6.5707,-6.6007,-6.5567,-6.5576,-6.5671,-6.5627,-6.4142,-6.3961,-6.4287,-6.3454,-6.2657,-6.2123,-6.2766,-6.2549,-6.2231,-6.3599,-6.349,-6.32,-6.4142,-6.4178,-6.3917,-6.3629,-6.3394,-6.3012,-6.2291,-6.2339,-6.2578,-6.2578,-6.2544,-6.2425,-6.2108,-6.1019,-5.9918,-5.9111,-5.9318,-5.9318,-5.8634,-5.8474,-5.8414,-5.8524,-5.8817,-5.8694,-5.7886,-5.7666,-5.6969,-5.55,-5.5522,-5.5868,-5.6565,-5.84,-5.9698,-6.0382,-6.1936,-6.3209,-6.409,-6.4897,-6.5705,-6.6512,-6.732,-6.7687,-6.7687,-6.7687,-6.7687,-6.7724,-6.8568,-6.8605,-6.8274,-7.044,-7.1798,-7.2496,-7.2496,-7.2496,-7.2496,-7.2496,-7.2496,-7.2496,-6.3762,-6.4482,-6.5292,-6.5779,-6.79,-7.0286,-7.2756,-7.4939,-7.5761,-7.4042,-7.6054,-7.7284,-7.6196,-7.7109,-7.7527,-7.6725,-7.6265,-7.5777,-7.5103,-7.4646,-7.4456,-7.4452,-7.4135,-7.354,-7.2691,-7.1262,-6.9332,-6.6939,-6.4427,-6.2383,0.0,0.0,0.0,0.0,0.0,-6.1854,0.0,0.0,-6.4927,-6.4734,-6.6102,-6.6198,-6.5504,-6.5562,-6.5337,-6.483,-6.3635,-6.3454,-6.3635,-6.2838,-6.2331,-6.205,-6.2476,-6.2585,-6.2693,-6.3056,-6.3164,-6.3273,-6.3671,-6.3454,-6.3192,-6.3366,-6.3148,-6.2801,-6.248,-6.2552,-6.2789,-6.3152,-6.3364,-6.3209,-6.2365,-6.1227,-6.0272,-5.9905,-5.9465,-5.9171,-5.9184,-5.8841,-5.8584,-5.8584,-5.8951,-5.8707,-5.7519,-5.7776,-5.7152,-5.5133,-5.5757,-5.6198,-5.6161,-5.851,-6.0015,-6.0382,-6.2401,-6.387,-6.4714,-6.5521,-6.6329,-6.7136,-6.7504,-6.7687,-6.7687,-6.7687,-6.7687,-6.7724,-6.8091,-6.8274,-6.8495,-7.0477,-7.1798,-7.2496,-7.2496,-7.2496,-7.2496,-7.2496,-7.2496,-7.2496,-6.6098,-6.675,-6.7553,-6.8373,-7.0423,-7.2621,-7.4407,-7.6968,-7.7847,-7.5437,-7.6548,-7.7344,-7.6649,-7.7993,-7.8665,-7.7886,-7.7207,-7.6643,-7.6081,-7.5439,-7.5155,-7.5335,-7.5371,-7.4619,-7.3009,-7.2795,-7.0911,-6.7199,-6.4822,-6.2809,-6.1107,0.0,0.0,0.0,0.0,-6.1536,-6.3101,-6.4471,-6.5068,-6.5199,-6.6148,-6.6062,-6.5337,-6.5156,-6.4685,-6.4033,-6.3237,-6.2947,-6.2838,-6.2223,-6.1978,-6.2014,-6.2195,-6.2585,-6.2838,-6.2404,-6.2585,-6.2983,-6.3128,-6.273,-6.2431,-6.3185,-6.302,-6.2688,-6.2688,-6.2859,-6.3269,-6.3946,-6.4207,-6.4053,-6.2989,-6.1924,-6.108,-6.0713,-5.9758,-5.9245,-5.9881,-5.9575,-5.9171,-5.8804,-5.9501,-5.9258,-5.746,-5.7886,-5.7336,-5.5097,-5.5941,-5.6418,-5.6124,-5.8694,-6.0309,-6.0639,-6.2879,-6.4494,-6.5301,-6.6109,-6.688,-6.7687,-6.7687,-6.7687,-6.7687,-6.7687,-6.7687,-6.7687,-6.7687,-6.8238,-6.9265,-7.0513,-7.1615,-7.2496,-7.2496,-7.2496,-7.2496,-7.2496,-7.2496,-7.2496,-6.7655,-6.8416,-6.943,-7.0884,-7.2549,-7.3744,-7.3961,-7.6674,-7.8783,-7.9114,-7.8757,-7.8135,-7.7192,-7.6649,-7.6052,-7.5283,-7.5178,-7.5179,-7.5224,-7.5118,-7.5442,-7.614,-7.6174,-7.5414,-7.379,-7.3092,-7.1137,-6.7927,-6.6079,-6.4007,-6.1723,0.0,0.0,-6.1286,-6.1451,-6.2047,-6.307,-6.3921,-6.4361,-6.4548,-6.5374,-6.5229,-6.4432,-6.3708,-6.3382,-6.32,-6.2404,-6.2087,-6.2087,-6.2014,-6.1978,-6.215,-6.2875,-6.2657,-6.2259,-6.2911,-6.2621,-6.2295,-6.2983,-6.3128,-6.3147,-6.333,-6.3456,-6.3491,-6.3491,-6.3763,-6.4174,-6.4851,-6.5087,-6.4714,-6.3074,-6.3319,-6.3246,-6.1741,-6.1961,-6.2401,-6.245,-6.3062,-6.2952,-6.1447,-6.1961,-6.1533,-5.9184,-5.9038,-5.8377,-5.6712,-5.6051,-5.6308,-5.7703,-5.8767,-5.9979,-6.1447,-6.3172,-6.4494,-6.5301,-6.6109,-6.688,-6.7687,-6.7687,-6.7687,-6.7687,-6.7687,-6.7687,-6.7687,-6.7687,-6.8568,-7.0,-7.0146,-7.1101,-7.2496,-7.2496,-7.2496,-7.2496,-7.2496,-7.2496,-7.2496,-7.0046,-7.0065,-7.064,-7.2581,-7.3184,-7.3978,-7.5768,-7.7144,-7.8272,-7.8999,-7.9251,-7.925,-7.888,-7.8556,-7.7653,-7.5879,-7.6187,-7.6086,-7.519,-7.5549,-7.5933,-7.6275,-7.5841,-7.5044,-7.3921,-7.2653,-7.0536,-6.7513,-6.5616,-6.3761,-6.2032,-6.0832,-6.0602,-6.109,-6.109,-6.1868,-6.3153,-6.3442,-6.3905,-6.4432,-6.4758,-6.4396,-6.3635,-6.3309,-6.2911,-6.244,-6.2123,-6.1978,-6.1978,-6.1978,-6.1978,-6.205,-6.2404,-6.2585,-6.2693,-6.2549,-6.2585,-6.2693,-6.2512,-6.2838,-6.3256,-6.3394,-6.3857,-6.4356,-6.44,-6.4658,-6.4908,-6.515,-6.5249,-6.5264,-6.5081,-6.409,-6.3282,-6.3099,-6.2511,-6.2254,-6.2732,-6.3099,-6.2732,-6.108,-6.1153,-6.0786,-5.9331,-5.8767,-5.8621,-5.8951,-5.7776,-5.7299,-5.796,-5.9208,-6.0456,-6.1557,-6.3686,-6.4971,-6.5301,-6.6586,-6.7357,-6.7687,-6.7687,-6.7687,-6.7687,-6.7687,-6.7687,-6.7687,-6.7687,-6.8348,-6.9412,-6.9889,-7.077,-7.1835,-7.2312,-7.2496,-7.2496,-7.2496,-7.2496,-7.2496,-7.2536,-7.2304,-7.2657,-7.4736,-7.4579,-7.4829,-7.695,-7.7313,-7.7604,-7.8368,-7.8985,-7.9277,-7.9209,-7.8992,-7.8167,-7.6446,-7.6833,-7.665,-7.5549,-7.5967,-7.6167,-7.5949,-7.5406,-7.4612,-7.3595,-7.2219,-7.0396,-6.8134,-6.6007,-6.4223,-6.2821,-6.0763,-6.0268,-6.1145,-6.1145,-6.1933,-6.32,-6.32,-6.3526,-6.4033,-6.4033,-6.3563,-6.2838,-6.2838,-6.2476,-6.1978,-6.1978,-6.1978,-6.2014,-6.2295,-6.2195,-6.1978,-6.1978,-6.2549,-6.3092,-6.2512,-6.2766,-6.3128,-6.2802,-6.2947,-6.3292,-6.3684,-6.4294,-6.4904,-6.5284,-6.5343,-6.5301,-6.5301,-6.5301,-6.5411,-6.5742,-6.4347,-6.3319,-6.3649,-6.2732,-6.2144,-6.2707,-6.3025,-6.2585,-6.097,-6.097,-6.0713,-5.9625,-5.9061,-5.9171,-6.0309,-5.9355,-5.8804,-5.9061,-5.9905,-6.0896,-6.1924,-6.4127,-6.5301,-6.5301,-6.688,-6.7687,-6.7687,-6.7687,-6.7687,-6.7687,-6.7687,-6.7687,-6.7687,-6.7687,-6.8164,-6.8972,-6.9779,-7.0587,-7.1366,-7.2202,-7.2496,-7.2496,-7.2496,-7.2496,-7.2496,-7.5051,-7.5342,-7.5916,-7.7648,-7.728,-7.6765,-7.6801,-7.6838,-7.713,-7.7899,-7.8009,-7.7877,-7.7577,-7.6818,-7.6311,-7.6311,-7.6311,-7.6311,-7.6275,-7.6275,-7.5949,-7.5119,-7.5083,-7.4323,-7.2762,-7.1929,-7.1132,-7.0372,-6.7945,-6.5953,-6.4323,-6.1933,-6.1218,-6.1978,-6.1978,-6.244,-6.32,-6.32,-6.32,-6.32,-6.32,-6.273,-6.2014,-6.2014,-6.2014,-6.1978,-6.1978,-6.1978,-6.2123,-6.2911,-6.2657,-6.1978,-6.1978,-6.2549,-6.32,-6.3164,-6.3164,-6.3345,-6.4142,-6.378,-6.3437,-6.4338,-6.4694,-6.5049,-6.6079,-6.5747,-6.5301,-6.5301,-6.5301,-6.5081,-6.4273,-6.409,-6.3796,-6.2952,-6.278,-6.278,-6.278,-6.3539,-6.3466,-6.1777,-6.2291,-6.2144,-6.0529,-6.0382,-6.0382,-6.0419,-6.0382,-6.0713,-6.152,-6.0823,-6.1153,-6.2707,-6.442,-6.5301,-6.5301,-6.688,-6.7687,-6.7687,-6.7687,-6.7687,-6.7687,-6.7687,-6.7687,-6.7687,-6.7687,-6.8164,-6.8972,-6.9779,-7.0587,-7.1366,-7.2202,-7.2496,-7.2496,-7.2496,-7.2496,-7.2496,-7.6231,-7.6437,-7.6683,-7.7093,-7.708,-7.6966,-7.6801,-7.6801,-7.6911,-7.7166,-7.7203,-7.7138,-7.704,-7.7295,-7.7258,-7.6676,-7.6639,-7.6574,-7.6512,-7.6101,-7.56,-7.5116,-7.42,-7.3366,-7.2726,-7.1422,-7.0625,-7.0372,-6.7981,-6.57,-6.3526,-6.2223,-6.1725,-6.1978,-6.1978,-6.244,-6.3164,-6.2621,-6.2693,-6.3128,-6.2585,-6.2259,-6.1978,-6.1978,-6.1978,-6.205,-6.2621,-6.2802,-6.2947,-6.3744,-6.3852,-6.3635,-6.3635,-6.3418,-6.3309,-6.3852,-6.3997,-6.407,-6.4323,-6.4613,-6.4931,-6.5319,-6.5932,-6.6545,-6.7003,-6.6589,-6.5962,-6.5411,-6.5301,-6.5228,-6.4971,-6.4457,-6.4016,-6.3723,-6.3209,-6.278,-6.278,-6.2585,-6.1998,-6.0896,-6.0529,-6.0358,-6.0419,-5.9905,-6.0052,-6.1153,-6.0713,-6.0529,-6.0786,-6.1043,-6.1447,-6.1961,-6.4163,-6.5301,-6.5301,-6.688,-6.7687,-6.7687,-6.7687,-6.7687,-6.7687,-6.7687,-6.7687,-6.7687,-6.7687,-6.7834,-6.8201,-6.9522,-7.0257,-7.0624,-7.1982,-7.2496,-7.2496,-7.2496,-7.2496,-7.2496,-7.6897,-7.7029,-7.7092,-7.6993,-7.7087,-7.7155,-7.6993,-7.6993,-7.6993,-7.6993,-7.6993,-7.6993,-7.6993,-7.7436,-7.7477,-7.6838,-7.6737,-7.6676,-7.6614,-7.5847,-7.5168,-7.4682,-7.3611,-7.274,-7.2255,-7.1086,-7.0434,-7.0372,-6.7692,-6.541,-6.3635,-6.2512,-6.1978,-6.1978,-6.1978,-6.2295,-6.273,-6.2223,-6.2295,-6.2693,-6.2195,-6.1978,-6.2014,-6.2331,-6.244,-6.2549,-6.3345,-6.3635,-6.3708,-6.4215,-6.4178,-6.4062,-6.4734,-6.4344,-6.3816,-6.4613,-6.483,-6.4903,-6.5229,-6.5504,-6.5778,-6.624,-6.6818,-6.7277,-6.7158,-6.679,-6.6182,-6.5081,-6.4861,-6.4751,-6.442,-6.3943,-6.3613,-6.3613,-6.3172,-6.267,-6.2401,-6.1924,-6.13,-6.0493,-6.0236,-6.0309,-6.0786,-6.0676,-6.0946,-6.1998,-6.1594,-6.13,-6.13,-6.1484,-6.1887,-6.2511,-6.4347,-6.5448,-6.5742,-6.7026,-6.7687,-6.7687,-6.7687,-6.7687,-6.7687,-6.7687,-6.7687,-6.7687,-6.7687,-6.7687,-6.7797,-6.9449,-7.011,-7.0257,-7.1872,-7.2496,-7.2496,-7.2496,-7.2496,-7.2496,-7.7124,-7.7124,-7.7155,-7.731,-7.7273,-7.7273,-7.7273,-7.7273,-7.7273,-7.7273,-7.7273,-7.7273,-7.7273,-7.7273,-7.715,-7.6793,-7.6636,-7.6538,-7.6465,-7.5538,-7.4642,-7.3917,-7.3243,-7.2408,-7.1453,-7.0847,-7.0411,-7.018,-6.7105,-6.5185,-6.4315,-6.273,-6.2005,-6.2005,-6.1978,-6.1978,-6.1978,-6.1978,-6.2014,-6.2087,-6.2087,-6.2123,-6.2259,-6.2983,-6.3273,-6.3382,-6.4178,-6.4432,-6.4432,-6.4504,-6.3997,-6.3582,-6.5255,-6.5154,-6.4569,-6.5439,-6.5663,-6.5844,-6.6605,-6.6359,-6.6131,-6.7,-6.7387,-6.7341,-6.6669,-6.6512,-6.6072,-6.4494,-6.4127,-6.387,-6.3135,-6.2853,-6.2817,-6.2879,-6.2805,-6.2475,-6.1704,-6.1557,-6.1227,-6.0493,-6.1043,-6.152,-6.1594,-6.2291,-6.2768,-6.278,-6.278,-6.278,-6.278,-6.2144,-6.2475,-6.4053,-6.4934,-6.5742,-6.6476,-6.7283,-6.7687,-6.7687,-6.7687,-6.7687,-6.7687,-6.7687,-6.7687,-6.7687,-6.7687,-6.7687,-6.7797,-6.9376,-7.0,-7.0183,-7.1798,-7.2422,-7.2422,-7.2496,-7.2496,-7.2496,-7.7243,-7.7243,-7.7243,-7.7273,-7.7273,-7.7273,-7.7273,-7.7273,-7.7273,-7.7273,-7.7273,-7.7273,-7.7273,-7.7273,-7.7023,-7.6338,-7.6234,-7.5885,-7.5207,-7.4464,-7.3855,-7.3359,-7.22,-7.1361,-7.0956,-7.0221,-6.9202,-6.7971,-6.6587,-6.5168,-6.3748,-6.2658,-6.2168,-6.2168,-6.2033,-6.1978,-6.1978,-6.1978,-6.2367,-6.2911,-6.2911,-6.3273,-6.3852,-6.4033,-6.4106,-6.4215,-6.5011,-6.4903,-6.4577,-6.5808,-6.5387,-6.4428,-6.5351,-6.521,-6.4958,-6.6264,-6.6584,-6.6598,-6.686,-6.6845,-6.6822,-6.7322,-6.7552,-6.744,-6.6696,-6.6512,-6.6219,-6.5228,-6.453,-6.42,-6.464,-6.3661,-6.3025,-6.3686,-6.2732,-6.1814,-6.163,-6.108,-6.0603,-6.0419,-6.0566,-6.0933,-6.152,-6.1777,-6.2144,-6.2743,-6.278,-6.278,-6.278,-6.3246,-6.3686,-6.409,-6.5485,-6.6329,-6.6512,-6.7283,-6.7687,-6.7687,-6.7687,-6.7687,-6.7687,-6.7687,-6.7687,-6.7687,-6.7687,-6.7687,-6.776,-6.8752,-6.9192,-6.9339,-7.0954,-7.1578,-7.1688,-7.2275,-7.2496,-7.2496,-7.7273,-7.7273,-7.7273,-7.7273,-7.7273,-7.7273,-7.7273,-7.7273,-7.7273,-7.7273,-7.7273,-7.7273,-7.7273,-7.6974,-7.6423,-7.5616,-7.5849,-7.5648,-7.4751,-7.3939,-7.3227,-7.2681,-7.1662,-7.0822,-7.0274,-6.9894,-6.8909,-6.721,-6.5679,-6.4475,-6.3564,-6.2719,-6.2265,-6.2301,-6.2585,-6.2495,-6.2123,-6.2876,-6.2966,-6.2693,-6.3056,-6.3454,-6.3852,-6.3852,-6.4287,-6.5011,-6.5446,-6.5359,-6.5097,-6.5605,-6.5008,-6.4193,-6.4956,-6.4947,-6.4939,-6.6596,-6.6757,-6.6518,-6.691,-6.7134,-6.7303,-6.7524,-6.7633,-6.7577,-6.7136,-6.7026,-6.6806,-6.5999,-6.5485,-6.5118,-6.4824,-6.4016,-6.3429,-6.3503,-6.2438,-6.1594,-6.1594,-6.0896,-6.0529,-6.0896,-6.0933,-6.141,-6.2622,-6.2732,-6.2915,-6.3356,-6.3392,-6.3392,-6.3392,-6.42,-6.464,-6.464,-6.5852,-6.6659,-6.7026,-6.7467,-6.7687,-6.7687,-6.7687,-6.7687,-6.7687,-6.7687,-6.7687,-6.7687,-6.7687,-6.7687,-6.776,-6.8568,-6.9119,-6.9559,-7.0844,-7.1541,-7.1908,-7.2349,-7.2496,-7.2496,-7.7273,-7.7273,-7.7273,-7.7273,-7.7273,-7.7273,-7.7273,-7.7273,-7.7273,-7.7273,-7.7163,-7.709,-7.709,-7.6423,-7.5579,-7.4808,-7.5238,-7.522,-7.4415,-7.3562,-7.2741,-7.1938,-7.129,-7.0514,-6.9529,-6.9417,-6.8576,-6.6901,-6.4858,-6.3789,-6.368,-6.3079,-6.2824,-6.2824,-6.3345,-6.3156,-6.244,-6.3712,-6.352,-6.2412,-6.3092,-6.3526,-6.3708,-6.3599,-6.4396,-6.5591,-6.5591,-6.5532,-6.5355,-6.4919,-6.4111,-6.3412,-6.443,-6.4539,-6.4617,-6.6296,-6.6445,-6.6189,-6.6915,-6.7303,-6.7552,-6.7513,-6.7614,-6.765,-6.754,-6.7504,-6.7357,-6.6806,-6.6476,-6.5925,-6.4677,-6.4237,-6.387,-6.3135,-6.2108,-6.1447,-6.1557,-6.0896,-6.075,-6.1667,-6.1887,-6.2585,-6.4127,-6.4273,-6.431,-6.4457,-6.4347,-6.431,-6.4457,-6.5118,-6.5485,-6.5485,-6.6256,-6.699,-6.7687,-6.7687,-6.7687,-6.7687,-6.7687,-6.7687,-6.7687,-6.7834,-6.7797,-6.7714,-6.7834,-6.7797,-6.7724,-6.8458,-6.9119,-6.9816,-7.077,-7.1541,-7.2165,-7.2422,-7.2422,-7.2349,-7.7273,-7.7273,-7.7273,-7.7273,-7.7273,-7.7273,-7.7273,-7.7273,-7.7273,-7.7273,-7.6717,-7.6276,-7.6276,-7.5579,-7.4771,-7.3964,-7.3971,-7.3714,-7.2907,-7.2695,-7.2226,-7.1456,-7.0677,-6.9834,-6.9036,-6.7707,-6.657,-6.559,-6.5223,-6.4673,-6.4039,-6.4459,-6.4662,-6.4662,-6.3909,-6.3447,-6.3194,-6.273,-6.3157,-6.4033,-6.4142,-6.5011,-6.617,-6.5482,-6.5374,-6.5591,-6.5591,-6.4807,-6.3966,-6.521,-6.4239,-6.2818,-6.4203,-6.423,-6.3884,-6.4748,-6.5542,-6.6354,-6.7195,-6.7524,-6.7513,-6.6843,-6.7173,-6.7504,-6.6843,-6.6696,-6.6843,-6.7393,-6.6439,-6.5632,-6.6035,-6.5007,-6.4053,-6.3906,-6.2034,-6.0823,-6.1484,-6.0896,-6.097,-6.2438,-6.3246,-6.409,-6.5044,-6.5118,-6.5411,-6.6072,-6.5521,-6.5411,-6.6072,-6.6256,-6.6329,-6.6329,-6.71,-6.7577,-6.7687,-6.7687,-6.7687,-6.7687,-6.7687,-6.7687,-6.7724,-6.8385,-6.8348,-6.7724,-6.8421,-6.8311,-6.7714,-6.7834,-6.7944,-6.8201,-6.9706,-7.0367,-7.0624,-7.2018,-7.2092,-7.1578,-7.7273,-7.7273,-7.7273,-7.7273,-7.7273,-7.7273,-7.7273,-7.7273,-7.7273,-7.7273,-7.6607,-7.6093,-7.6093,-7.4992,-7.4111,-7.3707,-7.2899,-7.2275,-7.1872,-7.2275,-7.1945,-7.0697,-7.0293,-6.9522,-6.8274,-6.71,-6.6329,-6.5962,-6.5521,-6.5118,-6.4751,-6.504,-6.5003,-6.4563,-6.4522,-6.3941,-6.3006,-6.3517,-6.3556,-6.3385,-6.4257,-6.5056,-6.5674,-6.5302,-6.5448,-6.5747,-6.5311,-6.4512,-6.3709,-6.4475,-6.3991,-6.3278,-6.3955,-6.4512,-6.4876,-6.4803,-6.5496,-6.6299,-6.6846,-6.701,-6.6953,-6.6586,-6.6769,-6.7063,-6.7136,-6.7136,-6.7247,-6.7614,-6.71,-6.6439,-6.5925,-6.5264,-6.431,-6.2952,-6.1777,-6.119,-6.1557,-6.1667,-6.2144,-6.3356,-6.4237,-6.5081,-6.5888,-6.5962,-6.6109,-6.6476,-6.6145,-6.6109,-6.6476,-6.6109,-6.6256,-6.71,-6.7504,-6.7687,-6.7687,-6.7687,-6.7687,-6.7687,-6.7687,-6.7687,-6.7687,-6.8091,-6.8054,-6.7724,-6.8091,-6.8017,-6.7687,-6.7687,-6.7944,-6.8458,-6.9633,-7.0367,-7.0844,-7.1578,-7.1651,-7.1321,-7.7053,-7.7163,-7.7163,-7.6796,-7.687,-7.6943,-7.676,-7.6723,-7.6723,-7.6723,-7.6056,-7.5542,-7.5542,-7.4111,-7.312,-7.312,-7.1835,-7.1027,-7.1027,-7.1615,-7.1321,-6.9889,-6.9633,-6.8935,-6.7724,-6.6916,-6.6512,-6.6512,-6.5888,-6.5595,-6.5595,-6.5778,-6.5448,-6.4677,-6.5118,-6.4526,-6.3262,-6.4286,-6.4171,-6.3345,-6.4585,-6.5095,-6.5059,-6.4876,-6.5059,-6.5387,-6.4767,-6.4081,-6.3529,-6.3737,-6.3675,-6.3539,-6.3931,-6.4665,-6.535,-6.5075,-6.5337,-6.5767,-6.6119,-6.6219,-6.6182,-6.5999,-6.6219,-6.6623,-6.7026,-6.7283,-6.7467,-6.765,-6.754,-6.7026,-6.5815,-6.5448,-6.464,-6.2511,-6.1851,-6.1667,-6.1851,-6.2401,-6.3209,-6.4237,-6.5081,-6.5888,-6.6696,-6.6769,-6.6769,-6.6769,-6.6769,-6.6769,-6.6769,-6.6182,-6.6329,-6.7393,-6.7577,-6.7687,-6.7687,-6.7784,-6.7784,-6.7687,-6.781,-6.782,-6.7714,-6.8031,-6.8047,-6.7863,-6.8084,-6.8047,-6.7836,-6.7741,-6.8164,-6.8972,-6.9696,-7.0404,-7.1056,-7.1268,-7.1185,-7.0855,-7.635,-7.679,-7.6833,-7.5359,-7.5689,-7.5946,-7.5212,-7.5102,-7.5102,-7.5102,-7.4368,-7.3891,-7.3891,-7.2459,-7.1505,-7.1505,-7.0697,-7.0183,-7.0183,-7.022,-6.9889,-6.9045,-6.8274,-6.7797,-6.7687,-6.6916,-6.6512,-6.6512,-6.6439,-6.6402,-6.6439,-6.7173,-6.71,-6.6292,-6.5632,-6.515,-6.4872,-6.4177,-6.4609,-6.5752,-6.5861,-6.5897,-6.5833,-6.5095,-6.4366,-6.3782,-6.3709,-6.3241,-6.2786,-6.3529,-6.3231,-6.2788,-6.438,-6.432,-6.3766,-6.4719,-6.4647,-6.442,-6.5191,-6.5411,-6.5228,-6.4457,-6.5411,-6.6329,-6.5632,-6.6035,-6.6806,-6.754,-6.71,-6.6549,-6.6439,-6.5815,-6.5007,-6.4053,-6.2585,-6.1851,-6.2622,-6.2768,-6.3429,-6.5044,-6.5925,-6.6733,-6.7504,-6.7614,-6.7614,-6.7614,-6.7614,-6.7614,-6.7614,-6.754,-6.7247,-6.6623,-6.7283,-6.7687,-6.7687,-6.8134,-6.8134,-6.7714,-6.8134,-6.8134,-6.7751,-6.8911,-6.9063,-6.8383,-6.9138,-6.9026,-6.8297,-6.7889,-6.8164,-6.8953,-6.9455,-6.9869,-7.0285,-7.1155,-7.0755,-6.9893,-7.6166,-7.5946,-7.5652,-7.5028,-7.5175,-7.5249,-7.4955,-7.4918,-7.4918,-7.4918,-7.4184,-7.3487,-7.301,-7.1982,-7.1101,-7.0587,-6.9816,-6.9376,-6.9376,-6.8898,-6.8678,-6.8898,-6.8128,-6.7687,-6.7687,-6.7393,-6.7247,-6.7247,-6.7247,-6.7247,-6.7247,-6.7026,-6.6512,-6.5742,-6.4897,-6.4248,-6.3647,-6.3317,-6.3485,-6.4082,-6.4595,-6.4815,-6.4851,-6.5034,-6.4632,-6.3899,-6.3899,-6.3324,-6.264,-6.2969,-6.3529,-6.4014,-6.3638,-6.4359,-6.5311,-6.5233,-6.5029,-6.4897,-6.5228,-6.5301,-6.5228,-6.4934,-6.5668,-6.6549,-6.6733,-6.7026,-6.732,-6.7614,-6.7467,-6.71,-6.6586,-6.5852,-6.4861,-6.3503,-6.2768,-6.2438,-6.2768,-6.3686,-6.4787,-6.5925,-6.6733,-6.7357,-6.765,-6.7687,-6.7687,-6.7687,-6.7687,-6.7687,-6.7687,-6.7687,-6.732,-6.6512,-6.7283,-6.7467,-6.6953,-6.7605,-6.8007,-6.8134,-6.8297,-6.8467,-6.8586,-6.907,-6.9125,-6.8863,-6.9162,-6.9125,-6.8803,-6.8619,-6.8772,-6.907,-6.978,-7.0107,-7.0286,-7.0623,-7.0458,-7.0022,-7.5432,-7.5102,-7.4735,-7.4258,-7.4368,-7.4441,-7.4184,-7.4147,-7.4147,-7.4147,-7.367,-7.301,-7.2202,-7.1431,-7.0624,-6.9779,-6.8972,-6.8531,-6.8531,-6.8017,-6.7944,-6.8495,-6.7981,-6.7687,-6.7687,-6.7687,-6.7687,-6.7687,-6.7687,-6.7577,-6.7283,-6.6769,-6.5925,-6.4897,-6.4347,-6.3759,-6.3209,-6.3209,-6.3356,-6.3649,-6.4237,-6.431,-6.4163,-6.4714,-6.442,-6.3686,-6.3686,-6.3269,-6.2654,-6.2654,-6.3397,-6.4166,-6.3313,-6.449,-6.6072,-6.5778,-6.5521,-6.5375,-6.5632,-6.5705,-6.5632,-6.5375,-6.5888,-6.6623,-6.7173,-6.7504,-6.7687,-6.7687,-6.7687,-6.7504,-6.699,-6.6219,-6.5301,-6.4163,-6.3759,-6.3613,-6.3613,-6.4787,-6.5888,-6.6439,-6.721,-6.7687,-6.7687,-6.7687,-6.7687,-6.7687,-6.7687,-6.7687,-6.7687,-6.7687,-6.732,-6.6512,-6.7283,-6.7283,-6.6512,-6.7432,-6.8084,-6.8394,-6.8562,-6.878,-6.9091,-6.924,-6.9303,-6.9303,-6.9303,-6.9303,-6.9303,-6.9155,-6.9241,-6.9525,-6.9955,-7.0213,-7.0314,-7.0328,-7.0235,-7.0077,-7.4001,-7.4331,-7.4404,-7.2789,-7.3156,-7.3413,-7.2606,-7.2496,-7.2496,-7.2496,-7.2496,-7.2202,-7.1366,-7.0587,-6.9779,-6.8972,-6.8164,-6.7687,-6.7687,-6.7687,-6.7687,-6.7687,-6.7687,-6.7687,-6.7687,-6.7687,-6.7687,-6.7687,-6.7687,-6.7283,-6.6512,-6.6512,-6.5632,-6.409,-6.409,-6.409,-6.409,-6.409,-6.453,-6.5301,-6.5301,-6.4787,-6.409,-6.409,-6.3539,-6.278,-6.278,-6.278,-6.278,-6.278,-6.2705,-6.2775,-6.3771,-6.464,-6.5485,-6.6256,-6.5925,-6.5485,-6.6292,-6.6512,-6.6329,-6.5521,-6.5925,-6.6512,-6.6512,-6.7136,-6.7687,-6.7687,-6.7687,-6.7687,-6.7687,-6.7026,-6.6512,-6.6512,-6.5815,-6.5301,-6.5301,-6.5999,-6.6512,-6.6512,-6.721,-6.7687,-6.7687,-6.7687,-6.7687,-6.7687,-6.7687,-6.7687,-6.7687,-6.7687,-6.732,-6.6512,-6.7283,-6.732,-6.6512,-6.7753,-6.8394,-6.8418,-6.887,-6.9091,-6.9112,-6.9604,-6.9778,-6.9778,-6.9778,-6.9778,-6.9759,-6.9282,-6.9579,-7.0261,-6.9926,-7.0015,-7.0326,-7.0375,-7.0144,-6.9872,-7.378,-7.345,-7.3083,-7.2569,-7.2716,-7.2606,-7.1798,-7.1688,-7.1688,-7.1688,-7.1174,-7.0734,-7.0477,-6.9743,-6.8935,-6.8128,-6.7834,-6.7687,-6.7687,-6.7687,-6.7687,-6.7687,-6.7687,-6.7687,-6.7687,-6.7687,-6.7687,-6.7687,-6.7687,-6.7283,-6.6512,-6.6512,-6.5632,-6.409,-6.409,-6.3759,-6.3209,-6.3209,-6.3356,-6.3551,-6.3551,-6.3429,-6.3209,-6.3209,-6.3025,-6.278,-6.278,-6.273,-6.2654,-6.2654,-6.2995,-6.3544,-6.3965,-6.464,-6.5375,-6.5595,-6.6292,-6.7026,-6.7283,-6.732,-6.7136,-6.6329,-6.6733,-6.732,-6.732,-6.7504,-6.7687,-6.7687,-6.7687,-6.7687,-6.7687,-6.7026,-6.6512,-6.6512,-6.5815,-6.5521,-6.6072,-6.6366,-6.6696,-6.7247,-6.754,-6.7687,-6.7687,-6.7687,-6.7687,-6.7687,-6.7687,-6.7687,-6.7687,-6.7687,-6.7577,-6.7357,-6.7577,-6.7577,-6.732,-6.7726,-6.8058,-6.8418,-6.887,-6.9261,-6.9604,-7.0038,-7.0213,-7.0213,-7.0213,-7.0213,-7.0213,-7.0053,-7.0152,-7.036,-7.0255,-7.0296,-7.0378,-7.0374,-7.0315,-7.023,-7.3303,-7.2826,-7.2496,-7.2496,-7.2239,-7.1872,-7.1394,-7.1027,-7.0844,-7.0844,-7.0403,-6.9963,-6.9669,-6.9192,-6.8568,-6.776,-6.7687,-6.7687,-6.7687,-6.7687,-6.7687,-6.7687,-6.7687,-6.7687,-6.7687,-6.7687,-6.754,-6.721,-6.754,-6.6953,-6.5558,-6.5888,-6.5154,-6.3576,-6.3576,-6.3282,-6.278,-6.278,-6.278,-6.278,-6.278,-6.278,-6.278,-6.278,-6.278,-6.278,-6.278,-6.2755,-6.2679,-6.2679,-6.3009,-6.3522,-6.4321,-6.4897,-6.5448,-6.6072,-6.6953,-6.7687,-6.7687,-6.7687,-6.7577,-6.71,-6.732,-6.7687,-6.7687,-6.7687,-6.7687,-6.7687,-6.7687,-6.7687,-6.7687,-6.7283,-6.6953,-6.6953,-6.6549,-6.6402,-6.6916,-6.6953,-6.7136,-6.7614,-6.7687,-6.7687,-6.7687,-6.7687,-6.7687,-6.7687,-6.7687,-6.7687,-6.7687,-6.7687,-6.7687,-6.7687,-6.7687,-6.7687,-6.7687,-6.7889,-6.8134,-6.8394,-6.8665,-6.9155,-6.9816,-7.0055,-7.0247,-7.0419,-7.0419,-7.0419,-7.0419,-7.0419,-7.0419,-7.0419,-7.0419,-7.0419,-7.0419,-7.0419,-7.0419,-7.0419,-7.2642,-7.2496,-7.2496,-7.2422,-7.1798,-7.1219,-7.1109,-7.0477,-7.0,-7.0,-6.9926,-6.9633,-6.8972,-6.8862,-6.8495,-6.776,-6.7687,-6.7687,-6.7687,-6.7687,-6.7687,-6.7687,-6.7687,-6.765,-6.7577,-6.7577,-6.7173,-6.6402,-6.7136,-6.6329,-6.4127,-6.4934,-6.442,-6.278,-6.2853,-6.2879,-6.278,-6.278,-6.278,-6.278,-6.278,-6.278,-6.278,-6.278,-6.278,-6.278,-6.278,-6.278,-6.278,-6.278,-6.278,-6.3074,-6.4714,-6.5191,-6.5521,-6.71,-6.7577,-6.7614,-6.7677,-6.7687,-6.7687,-6.7687,-6.7687,-6.7687,-6.7687,-6.7687,-6.7687,-6.7687,-6.7687,-6.7687,-6.7687,-6.7687,-6.7687,-6.7687,-6.7687,-6.7687,-6.7687,-6.7687,-6.7687,-6.7687,-6.7687,-6.7687,-6.7687,-6.7687,-6.7687,-6.7687,-6.7687,-6.7714,-6.7767,-6.7741,-6.7741,-6.781,-6.7757,-6.7757,-6.781,-6.8222,-6.8442,-6.8394,-6.8442,-6.8915,-6.9816,-6.9816,-7.0038,-7.0419,-7.0419,-7.0419,-7.0419,-7.0419,-7.0419,-7.0419,-7.0419,-7.0419,-7.0419,-7.0419,-7.0419,-7.0419,-7.2532,-7.2496,-7.2312,-7.1688,-7.1403,-7.0881,-6.9633,-6.9265,-6.9155,-6.9155,-6.8605,-6.8385,-6.8862,-6.8348,-6.7871,-6.7724,-6.7687,-6.7687,-6.7687,-6.7687,-6.7687,-6.7687,-6.7687,-6.7393,-6.6769,-6.6769,-6.6366,-6.5558,-6.5742,-6.5228,-6.4127,-6.4934,-6.442,-6.2817,-6.3503,-6.3429,-6.278,-6.278,-6.278,-6.278,-6.278,-6.278,-6.278,-6.278,-6.278,-6.278,-6.278,-6.278,-6.278,-6.278,-6.278,-6.2989,-6.4016,-6.4347,-6.4677,-6.6292,-6.6769,-6.688,-6.7504,-6.7687,-6.7687,-6.7687,-6.7687,-6.7687,-6.7687,-6.7687,-6.7687,-6.7687,-6.7687,-6.7687,-6.7687,-6.7687,-6.7687,-6.7687,-6.7687,-6.7687,-6.7687,-6.7687,-6.7687,-6.7687,-6.7687,-6.7687,-6.7687,-6.7687,-6.7687,-6.7687,-6.7687,-6.7863,-6.8235,-6.7889,-6.8033,-6.8757,-6.8442,-6.8418,-6.878,-6.8893,-6.8757,-6.8418,-6.8757,-6.924,-6.9816,-6.9816,-7.0038,-7.0419,-7.0419,-7.0419,-7.0419,-7.0419,-7.0419,-7.0419,-7.0419,-7.0419,-7.0419,-7.0419,-7.0419,-7.0419,-7.2496,-7.2202,-7.1798,-7.1394,-7.0697,-6.9889,-6.9045,-6.8568,-6.8311,-6.8311,-6.7944,-6.7834,-6.8274,-6.7944,-6.7687,-6.7687,-6.7687,-6.7687,-6.7687,-6.7687,-6.7687,-6.7687,-6.7687,-6.7136,-6.5962,-6.5925,-6.5521,-6.4714,-6.5118,-6.4677,-6.3503,-6.4347,-6.4053,-6.2817,-6.3282,-6.3246,-6.278,-6.278,-6.278,-6.278,-6.278,-6.278,-6.278,-6.278,-6.278,-6.278,-6.278,-6.278,-6.278,-6.278,-6.278,-6.2952,-6.3833,-6.4347,-6.4897,-6.6145,-6.6769,-6.7136,-6.7577,-6.7687,-6.7687,-6.7687,-6.7687,-6.7687,-6.7687,-6.7687,-6.7687,-6.7687,-6.7687,-6.7794,-6.7982,-6.8033,-6.8109,-6.8321,-6.8185,-6.8033,-6.8033,-6.7836,-6.7687,-6.7687,-6.7687,-6.7687,-6.7687,-6.7915,-6.8033,-6.8033,-6.8222,-6.849,-6.8711,-6.8514,-6.8572,-6.9069,-6.8848,-6.8848,-6.9091,-6.9303,-6.9303,-6.9069,-6.9091,-6.9361,-6.9816,-6.9816,-7.0038,-7.0419,-7.0419,-7.0419,-7.0419,-7.0419,-7.0419,-7.0419,-7.0419,-7.0419,-7.0419,-7.0419,-7.0419,-7.0419,-7.2312,-7.1762,-7.1183,-7.0954,-6.9816,-6.8862,-6.8715,-6.8128,-6.7687,-6.7687,-6.7687,-6.7687,-6.7687,-6.7687,-6.7687,-6.7687,-6.7687,-6.7687,-6.7687,-6.7687,-6.7687,-6.7687,-6.7687,-6.699,-6.5558,-6.5375,-6.4824,-6.387,-6.4567,-6.4163,-6.2842,-6.3539,-6.3503,-6.278,-6.278,-6.278,-6.278,-6.278,-6.278,-6.278,-6.278,-6.278,-6.278,-6.278,-6.278,-6.278,-6.278,-6.278,-6.278,-6.278,-6.2915,-6.3172,-6.387,-6.464,-6.5485,-6.6256,-6.6953,-6.7504,-6.765,-6.7687,-6.7714,-6.7784,-6.781,-6.7836,-6.7941,-6.7889,-6.7836,-6.7941,-6.7941,-6.8058,-6.8442,-6.8538,-6.8642,-6.9025,-6.8757,-6.8538,-6.8538,-6.8185,-6.7915,-6.781,-6.7767,-6.7687,-6.7687,-6.8033,-6.8297,-6.8394,-6.8757,-6.9047,-6.9198,-6.9134,-6.9155,-6.9323,-6.924,-6.924,-6.9323,-6.972,-6.991,-6.991,-6.9506,-6.9506,-6.991,-6.9853,-7.0038,-7.0419,-7.0419,-7.0419,-7.0419,-7.0419,-7.0419,-7.0419,-7.0419,-7.0419,-7.0419,-7.0419,-7.0419,-7.0419,-7.1615,-7.1394,-7.0852,-6.9486,-6.9045,-6.8678,-6.7944,-6.776,-6.7687,-6.7687,-6.7687,-6.7687,-6.7687,-6.7687,-6.7687,-6.7687,-6.7687,-6.7687,-6.7687,-6.7687,-6.7687,-6.7687,-6.7687,-6.7247,-6.6366,-6.5668,-6.4567,-6.2989,-6.3074,-6.3,-6.278,-6.289,-6.2915,-6.278,-6.278,-6.278,-6.278,-6.278,-6.278,-6.278,-6.278,-6.278,-6.278,-6.278,-6.278,-6.278,-6.278,-6.278,-6.278,-6.278,-6.3319,-6.3943,-6.4053,-6.464,-6.5485,-6.6256,-6.6586,-6.6806,-6.7504,-6.7687,-6.782,-6.8173,-6.8297,-6.8418,-6.8803,-6.8609,-6.8418,-6.8825,-6.8915,-6.8915,-6.8981,-6.9003,-6.9025,-6.9091,-6.9047,-6.9003,-6.9003,-6.8937,-6.8757,-6.8346,-6.7967,-6.7687,-6.7687,-6.7767,-6.7967,-6.837,-6.8467,-6.8848,-6.9662,-6.9303,-6.9446,-7.0213,-6.9872,-6.9853,-7.023,-7.0281,-7.0298,-7.0298,-7.0247,-7.0247,-7.0298,-6.9965,-7.0038,-7.0419,-7.0419,-7.0419,-7.0419,-7.0419,-7.0419,-7.0419,-7.0419,-7.0419,-7.0419,-7.0419,-7.0419,-7.0419,-7.0697,-7.0293,-6.9743,-6.9045,-6.8531,-6.8091,-6.7724,-6.7687,-6.7687,-6.7687,-6.7687,-6.7687,-6.7687,-6.7687,-6.7687,-6.7687,-6.7687,-6.7687,-6.7687,-6.7687,-6.7687,-6.7687,-6.7687,-6.71,-6.5852,-6.5485,-6.4494,-6.278,-6.278,-6.278,-6.278,-6.278,-6.278,-6.278,-6.278,-6.278,-6.278,-6.278,-6.278,-6.278,-6.278,-6.278,-6.278,-6.278,-6.278,-6.278,-6.278,-6.278,-6.278,-6.278,-6.3062,-6.3466,-6.3943,-6.464,-6.5485,-6.6256,-6.6806,-6.7247,-6.7577,-6.7531,-6.7518,-6.8234,-6.8236,-6.8331,-6.9251,-6.9323,-6.9155,-6.9112,-6.9091,-6.9176,-6.9463,-6.9504,-6.9546,-6.9778,-6.9662,-6.9504,-6.9504,-6.9261,-6.9025,-6.8803,-6.837,-6.8084,-6.8084,-6.8321,-6.8586,-6.8757,-6.9223,-6.9702,-7.0126,-6.9945,-6.9999,-7.0402,-7.023,-7.0213,-7.0402,-7.0419,-7.0419,-7.0419,-7.0419,-7.0419,-7.0402,-7.0213,-7.023,-7.0419,-7.0419,-7.0419,-7.0419,-7.0419,-7.0419,-7.0419,-7.0419,-7.0419,-7.0419,-7.0419,-7.0419,-7.0419]},{"header":{"parameterUnit":"m.s-1","parameterCategory":1,"la1":30.6,"la2":28.766,"lo1":-90.7593,"lo2":-88.6598,"dy":0.0162,"dx":0.0183,"nx":116,"ny":114,"refTime":"2023-03-09T06:00:00:Z","depth":0,"parameterNumber":3,"parameterNumberName":"V-component_of_WINDS"},"data":[0.0,0.0,0.0,0.0,0.0,0.0,0.0,0.0,0.0,0.0,0.0,0.0,0.0,0.0,0.0,0.0,0.0,0.0,0.0,0.0,0.0,0.0,0.0,0.0,0.0,0.0,0.0,0.0,0.0,0.0,0.0,0.0,0.0,0.0,0.0,0.0,0.0,0.0,0.0,0.0,0.0,0.0,0.0,0.0,0.0,0.0,0.0,0.0,0.0,0.0,0.0,0.0,0.0,0.0,0.0,0.0,0.0,0.0,0.0,0.0,0.0,0.0,0.0,0.0,0.0,0.0,0.0,0.0,0.0,0.0,0.0,0.0,0.0,0.0,0.0,0.0,0.0,0.0,0.0,0.0,0.0,0.0,0.0,0.0,0.0,0.0,0.0,0.0,0.0,0.0,0.0,0.0,0.0,0.0,0.0,0.0,0.0,0.0,0.0,0.0,0.0,0.0,0.0,0.0,0.0,0.0,0.0,0.0,0.0,0.0,0.0,0.0,0.0,0.0,0.0,0.0,0.0,0.0,0.0,0.0,0.0,0.0,0.0,0.0,0.0,0.0,0.0,0.0,0.0,0.0,0.0,0.0,0.0,0.0,0.0,0.0,0.0,0.0,0.0,0.0,0.0,0.0,0.0,0.0,0.0,0.0,0.0,0.0,0.0,0.0,0.0,0.0,0.0,0.0,0.0,0.0,0.0,0.0,0.0,0.0,0.0,0.0,0.0,0.0,0.0,0.0,0.0,0.0,0.0,0.0,0.0,0.0,0.0,0.0,0.0,0.0,0.0,0.0,0.0,0.0,0.0,0.0,0.0,0.0,0.0,0.0,0.0,0.0,0.0,0.0,0.0,0.0,0.0,0.0,0.0,0.0,0.0,0.0,0.0,0.0,0.0,0.0,0.0,0.0,0.0,0.0,0.0,0.0,0.0,0.0,0.0,0.0,0.0,0.0,0.0,0.0,0.0,0.0,0.0,0.0,0.0,0.0,0.0,0.0,0.0,0.0,0.0,0.0,0.0,0.0,0.0,0.0,0.0,0.0,0.0,0.0,0.0,0.0,0.0,0.0,0.0,0.0,0.0,0.0,0.0,0.0,0.0,0.0,0.0,0.0,0.0,0.0,0.0,0.0,0.0,0.0,0.0,0.0,0.0,0.0,0.0,0.0,0.0,0.0,0.0,0.0,0.0,0.0,0.0,0.0,0.0,0.0,0.0,0.0,0.0,0.0,0.0,0.0,0.0,0.0,0.0,0.0,0.0,0.0,0.0,0.0,0.0,0.0,0.0,0.0,0.0,0.0,0.0,0.0,0.0,0.0,0.0,0.0,0.0,0.0,0.0,0.0,0.0,0.0,0.0,0.0,0.0,0.0,0.0,0.0,0.0,0.0,0.0,0.0,0.0,0.0,0.0,0.0,0.0,0.0,0.0,0.0,0.0,0.0,0.0,0.0,0.0,0.0,0.0,0.0,0.0,0.0,0.0,0.0,0.0,0.0,0.0,0.0,0.0,0.0,0.0,0.0,0.0,0.0,0.0,0.0,0.0,0.0,0.0,0.0,0.0,0.0,0.0,0.0,0.0,0.0,0.0,0.0,0.0,0.0,0.0,0.0,0.0,0.0,0.0,0.0,0.0,0.0,0.0,0.0,0.0,0.0,0.0,0.0,0.0,0.0,0.0,0.0,0.0,0.0,0.0,0.0,0.0,0.0,0.0,0.0,0.0,0.0,0.0,0.0,0.0,0.0,0.0,0.0,0.0,0.0,0.0,0.0,0.0,0.0,0.0,0.0,0.0,0.0,0.0,0.0,0.0,0.0,0.0,0.0,0.0,0.0,0.0,0.0,0.0,0.0,0.0,0.0,0.0,0.0,0.0,0.0,0.0,0.0,0.0,0.0,0.0,0.0,0.0,0.0,0.0,0.0,0.0,0.0,0.0,0.0,0.0,0.0,0.0,0.0,0.0,0.0,0.0,0.0,0.0,0.0,0.0,0.0,0.0,0.0,0.0,0.0,0.0,0.0,0.0,0.0,0.0,0.0,0.0,0.0,0.0,0.0,0.0,0.0,0.0,0.0,0.0,0.0,0.0,0.0,0.0,0.0,0.0,0.0,0.0,0.0,0.0,0.0,0.0,0.0,0.0,0.0,0.0,0.0,0.0,0.0,0.0,0.0,0.0,0.0,0.0,0.0,0.0,0.0,0.0,0.0,0.0,0.0,0.0,0.0,0.0,0.0,0.0,0.0,0.0,0.0,0.0,0.0,0.0,0.0,0.0,0.0,0.0,0.0,0.0,0.0,0.0,0.0,0.0,0.0,0.0,0.0,0.0,0.0,0.0,0.0,0.0,0.0,0.0,0.0,0.0,0.0,0.0,0.0,0.0,0.0,0.0,0.0,0.0,0.0,0.0,0.0,0.0,0.0,0.0,0.0,0.0,0.0,0.0,0.0,0.0,0.0,0.0,0.0,0.0,0.0,0.0,0.0,0.0,0.0,0.0,0.0,0.0,0.0,0.0,0.0,0.0,0.0,0.0,0.0,0.0,0.0,0.0,0.0,0.0,0.0,0.0,0.0,0.0,0.0,0.0,0.0,0.0,0.0,0.0,0.0,0.0,0.0,0.0,0.0,0.0,0.0,0.0,0.0,0.0,0.0,0.0,0.0,0.0,0.0,0.0,0.0,0.0,0.0,0.0,0.0,0.0,0.0,0.0,0.0,0.0,0.0,0.0,0.0,0.0,0.0,0.0,0.0,0.0,0.0,0.0,0.0,0.0,0.0,0.0,0.0,0.0,0.0,0.0,0.0,0.0,0.0,0.0,0.0,0.0,0.0,0.0,0.0,0.0,0.0,0.0,0.0,0.0,0.0,0.0,0.0,0.0,0.0,0.0,0.0,0.0,0.0,0.0,0.0,0.0,0.0,0.0,0.0,0.0,0.0,0.0,0.0,0.0,0.0,0.0,0.0,0.0,0.0,0.0,0.0,0.0,0.0,0.0,0.0,0.0,0.0,0.0,0.0,0.0,0.0,0.0,0.0,0.0,0.0,0.0,0.0,0.0,0.0,0.0,0.0,0.0,0.0,0.0,0.0,0.0,0.0,0.0,0.0,0.0,0.0,0.0,0.0,0.0,0.0,0.0,0.0,0.0,0.0,0.0,0.0,0.0,0.0,0.0,0.0,0.0,0.0,0.0,0.0,0.0,0.0,0.0,0.0,0.0,0.0,0.0,0.0,0.0,0.0,0.0,0.0,0.0,0.0,0.0,0.0,0.0,0.0,0.0,0.0,0.0,0.0,0.0,0.0,0.0,0.0,0.0,0.0,0.0,0.0,0.0,0.0,0.0,0.0,0.0,0.0,0.0,0.0,0.0,0.0,0.0,0.0,0.0,0.0,0.0,0.0,0.0,0.0,0.0,0.0,0.0,0.0,0.0,0.0,0.0,0.0,0.0,0.0,0.0,0.0,0.0,0.0,0.0,0.0,0.0,0.0,0.0,0.0,0.0,0.0,0.0,0.0,0.0,0.0,0.0,0.0,0.0,0.0,0.0,0.0,0.0,0.0,0.0,0.0,0.0,0.0,0.0,0.0,0.0,0.0,0.0,0.0,0.0,0.0,0.0,0.0,0.0,0.0,0.0,0.0,0.0,0.0,0.0,0.0,0.0,0.0,0.0,0.0,0.0,0.0,0.0,0.0,0.0,0.0,0.0,0.0,0.0,0.0,0.0,0.0,0.0,0.0,0.0,0.0,0.0,0.0,0.0,0.0,0.0,0.0,0.0,0.0,0.0,0.0,0.0,0.0,0.0,0.0,0.0,0.0,0.0,0.0,0.0,0.0,0.0,0.0,0.0,0.0,0.0,0.0,0.0,0.0,0.0,0.0,0.0,0.0,0.0,0.0,0.0,0.0,0.0,0.0,0.0,0.0,0.0,0.0,0.0,0.0,0.0,0.0,0.0,0.0,0.0,0.0,0.0,0.0,0.0,0.0,0.0,0.0,0.0,0.0,0.0,0.0,0.0,0.0,0.0,0.0,0.0,0.0,0.0,0.0,0.0,0.0,0.0,0.0,0.0,0.0,0.0,0.0,0.0,0.0,0.0,0.0,0.0,0.0,0.0,0.0,0.0,0.0,0.0,0.0,0.0,0.0,0.0,0.0,0.0,0.0,0.0,0.0,0.0,0.0,0.0,0.0,0.0,0.0,0.0,0.0,0.0,0.0,0.0,0.0,0.0,0.0,0.0,0.0,0.0,0.0,0.0,0.0,0.0,0.0,0.0,0.0,0.0,0.0,0.0,0.0,0.0,0.0,0.0,0.0,0.0,0.0,0.0,0.0,0.0,0.0,0.0,0.0,0.0,0.0,0.0,0.0,0.0,0.0,0.0,0.0,0.0,0.0,0.0,0.0,0.0,0.0,0.0,0.0,0.0,0.0,0.0,0.0,0.0,0.0,0.0,0.0,0.0,0.0,0.0,0.0,0.0,0.0,0.0,0.0,0.0,0.0,0.0,0.0,0.0,0.0,0.0,0.0,0.0,0.0,0.0,0.0,0.0,0.0,0.0,0.0,0.0,0.0,0.0,0.0,0.0,0.0,0.0,0.0,0.0,0.0,0.0,0.0,0.0,0.0,0.0,0.0,0.0,0.0,0.0,0.0,0.0,0.0,0.0,0.0,0.0,0.0,0.0,0.0,0.0,0.0,0.0,0.0,0.0,0.0,0.0,0.0,0.0,0.0,0.0,0.0,0.0,0.0,0.0,0.0,0.0,0.0,0.0,0.0,0.0,0.0,0.0,0.0,0.0,0.0,0.0,0.0,0.0,0.0,0.0,0.0,0.0,0.0,0.0,0.0,0.0,0.0,0.0,0.0,0.0,0.0,0.0,0.0,0.0,0.0,0.0,0.0,0.0,0.0,0.0,0.0,0.0,0.0,0.0,0.0,0.0,0.0,0.0,0.0,0.0,0.0,0.0,0.0,0.0,0.0,0.0,0.0,0.0,0.0,0.0,0.0,0.0,0.0,0.0,0.0,0.0,0.0,0.0,0.0,0.0,0.0,0.0,0.0,0.0,0.0,0.0,0.0,0.0,0.0,0.0,0.0,0.0,0.0,0.0,0.0,0.0,0.0,0.0,0.0,0.0,0.0,0.0,0.0,0.0,0.0,0.0,0.0,0.0,0.0,0.0,0.0,0.0,0.0,0.0,0.0,0.0,0.0,0.0,0.0,0.0,0.0,0.0,0.0,0.0,0.0,0.0,0.0,0.0,0.0,0.0,0.0,0.0,0.0,0.0,0.0,0.0,0.0,0.0,0.0,0.0,0.0,0.0,0.0,0.0,0.0,0.0,0.0,0.0,0.0,0.0,0.0,0.0,0.0,0.0,0.0,0.0,0.0,0.0,0.0,0.0,0.0,0.0,0.0,0.0,0.0,0.0,0.0,0.0,0.0,0.0,0.0,0.0,0.0,0.0,0.0,0.0,0.0,0.0,0.0,0.0,0.0,0.0,0.0,0.0,0.0,0.0,0.0,0.0,0.0,0.0,0.0,0.0,0.0,0.0,0.0,0.0,0.0,0.0,0.0,0.0,0.0,0.0,0.0,0.0,0.0,0.0,0.0,0.0,0.0,0.0,0.0,0.0,0.0,0.0,0.0,0.0,0.0,0.0,0.0,0.0,0.0,0.0,0.0,0.0,0.0,0.0,0.0,0.0,0.0,0.0,0.0,0.0,0.0,0.0,0.0,0.0,0.0,0.0,0.0,0.0,0.0,0.0,0.0,0.0,0.0,0.0,0.0,0.0,0.0,0.0,0.0,0.0,0.0,0.0,0.0,0.0,0.0,0.0,0.0,0.0,0.0,0.0,0.0,0.0,0.0,0.0,0.0,0.0,0.0,0.0,0.0,0.0,0.0,0.0,0.0,0.0,0.0,0.0,0.0,0.0,0.0,0.0,0.0,0.0,0.0,0.0,0.0,0.0,0.0,0.0,0.0,0.0,0.0,0.0,0.0,0.0,0.0,0.0,0.0,0.0,0.0,0.0,0.0,0.0,0.0,0.0,0.0,0.0,0.0,0.0,0.0,0.0,0.0,0.0,0.0,0.0,0.0,0.0,0.0,0.0,0.0,0.0,0.0,0.0,0.0,-2.2988,-2.2915,0.0,0.0,0.0,0.0,0.0,0.0,0.0,0.0,0.0,0.0,0.0,0.0,0.0,0.0,0.0,0.0,0.0,0.0,0.0,0.0,0.0,0.0,0.0,0.0,0.0,0.0,0.0,0.0,0.0,0.0,0.0,0.0,0.0,0.0,0.0,0.0,0.0,0.0,0.0,-2.6924,-2.7092,-2.6408,-2.6104,-2.6083,0.0,0.0,0.0,0.0,0.0,0.0,0.0,0.0,0.0,0.0,0.0,0.0,0.0,0.0,0.0,0.0,0.0,0.0,0.0,0.0,0.0,0.0,0.0,0.0,0.0,0.0,0.0,0.0,0.0,0.0,0.0,0.0,0.0,0.0,0.0,0.0,0.0,0.0,0.0,0.0,0.0,0.0,0.0,0.0,0.0,0.0,0.0,0.0,0.0,0.0,0.0,0.0,0.0,0.0,0.0,0.0,0.0,0.0,0.0,0.0,0.0,0.0,0.0,0.0,0.0,0.0,0.0,0.0,0.0,0.0,-2.4159,-2.3632,0.0,0.0,0.0,0.0,0.0,0.0,0.0,0.0,0.0,0.0,0.0,0.0,0.0,0.0,0.0,0.0,0.0,0.0,0.0,0.0,0.0,0.0,0.0,0.0,0.0,0.0,0.0,0.0,0.0,0.0,0.0,0.0,0.0,0.0,0.0,0.0,0.0,0.0,0.0,-2.7713,-2.751,-2.7577,-2.7529,-2.7467,-2.733,0.0,0.0,0.0,0.0,0.0,0.0,0.0,0.0,0.0,0.0,0.0,0.0,0.0,0.0,0.0,0.0,0.0,0.0,0.0,0.0,0.0,0.0,0.0,0.0,0.0,0.0,0.0,0.0,0.0,0.0,0.0,0.0,0.0,0.0,0.0,0.0,0.0,0.0,0.0,0.0,0.0,0.0,0.0,0.0,0.0,0.0,0.0,0.0,0.0,0.0,0.0,0.0,0.0,0.0,0.0,0.0,0.0,0.0,0.0,0.0,0.0,0.0,0.0,-2.5622,-2.5915,-2.5886,-2.6208,-2.65,-2.6705,-2.5681,-2.4774,-2.4027,-2.4188,0.0,0.0,0.0,0.0,0.0,0.0,0.0,0.0,0.0,0.0,0.0,0.0,0.0,0.0,0.0,0.0,0.0,0.0,0.0,0.0,0.0,-2.6816,-2.7073,-2.7073,-2.7073,-2.7073,0.0,0.0,0.0,0.0,0.0,0.0,0.0,0.0,0.0,0.0,0.0,-2.8648,-2.8571,-2.8878,-2.9045,-2.8991,-2.834,-2.8174,-2.8384,0.0,0.0,0.0,0.0,0.0,0.0,0.0,0.0,0.0,0.0,0.0,0.0,0.0,0.0,0.0,0.0,0.0,0.0,0.0,0.0,0.0,0.0,0.0,0.0,0.0,0.0,0.0,0.0,0.0,0.0,0.0,0.0,0.0,0.0,0.0,0.0,0.0,0.0,0.0,0.0,0.0,-2.2988,-2.2988,0.0,0.0,0.0,0.0,0.0,0.0,0.0,0.0,0.0,0.0,0.0,0.0,0.0,-2.4993,-2.5271,-2.6208,-2.653,-2.6266,-2.7188,-2.7481,-2.7232,-2.7554,-2.764,-2.7684,-2.7876,0.0,-2.5652,-2.514,0.0,0.0,0.0,0.0,0.0,0.0,0.0,0.0,0.0,0.0,0.0,0.0,0.0,0.0,0.0,0.0,0.0,0.0,0.0,0.0,0.0,-2.7021,-2.7381,-2.7381,-2.7569,-2.7604,-2.7381,0.0,0.0,0.0,0.0,0.0,0.0,0.0,0.0,0.0,-2.9128,-2.9624,-3.0035,-3.0412,-3.0583,-3.0566,-3.0241,-2.9607,-2.8751,-2.8408,0.0,0.0,0.0,0.0,0.0,0.0,0.0,0.0,0.0,0.0,0.0,0.0,0.0,0.0,0.0,0.0,0.0,0.0,0.0,0.0,0.0,0.0,0.0,0.0,0.0,0.0,0.0,0.0,0.0,0.0,0.0,0.0,0.0,0.0,0.0,0.0,0.0,0.0,0.0,-2.5011,-2.5587,-2.4846,-2.531,-2.5351,0.0,0.0,0.0,0.0,0.0,0.0,0.0,0.0,0.0,-2.5418,-2.59,-2.6296,-2.6617,-2.7408,-2.773,-2.7598,-2.8388,-2.8681,-2.8549,-2.8871,-2.912,-2.931,-2.9456,-2.9003,-2.8081,-2.6705,-2.5754,-2.511,0.0,0.0,0.0,0.0,-2.4364,-2.4305,0.0,0.0,0.0,0.0,0.0,0.0,0.0,0.0,0.0,0.0,0.0,0.0,-2.6782,-2.745,-2.786,-2.7758,-2.8117,-2.8169,-2.7775,-2.7655,0.0,0.0,0.0,0.0,0.0,0.0,0.0,-2.9453,-3.0035,-3.0652,-3.1302,-3.1679,-3.185,-3.185,-3.185,-3.0977,-2.947,-2.9196,-2.8734,0.0,0.0,0.0,0.0,0.0,0.0,0.0,0.0,0.0,0.0,0.0,0.0,0.0,0.0,0.0,0.0,0.0,0.0,0.0,0.0,0.0,0.0,0.0,0.0,0.0,0.0,0.0,0.0,0.0,0.0,0.0,0.0,0.0,0.0,0.0,0.0,0.0,0.0,-2.715,-2.7748,-2.6525,-2.7098,-2.7078,0.0,0.0,0.0,0.0,0.0,0.0,-2.5037,-2.5681,-2.6281,-2.6852,-2.7261,-2.7671,-2.8081,-2.8725,-2.909,-2.9178,-2.9734,-2.9998,-3.0012,-3.0246,-3.0451,-3.0598,-3.0598,-3.0407,-2.9968,-2.8198,-2.71,-2.6442,-2.5798,-2.5403,-2.5242,-2.5725,-2.5754,-2.5696,0.0,0.0,0.0,0.0,0.0,0.0,0.0,0.0,0.0,0.0,0.0,-2.7552,-2.7552,-2.8254,-2.8563,-2.8203,-2.8528,-2.858,-2.8186,-2.7809,-2.7586,0.0,0.0,0.0,0.0,0.0,0.0,-2.9864,-3.0943,-3.1679,-3.209,-3.245,-3.2621,-3.2621,-3.2621,-3.2176,-3.1424,-3.0292,-2.9813,-2.9658,0.0,0.0,0.0,0.0,0.0,0.0,0.0,0.0,0.0,0.0,0.0,0.0,0.0,0.0,0.0,0.0,0.0,0.0,0.0,0.0,0.0,0.0,0.0,0.0,0.0,0.0,0.0,0.0,0.0,0.0,0.0,0.0,0.0,0.0,0.0,0.0,0.0,0.0,0.0,-2.7525,-2.733,0.0,0.0,0.0,0.0,-2.6249,-2.6073,-2.6087,-2.6369,-2.7027,-2.7539,-2.7786,-2.8476,-2.9105,-2.9734,-3.0378,-3.0861,-3.1168,-3.152,-3.1681,-3.1681,-3.1695,-3.1534,-3.1256,-3.1256,-3.1081,-3.0671,-2.9339,-2.8417,-2.7713,-2.7144,-2.6881,-2.6866,-2.691,-2.691,-2.6896,0.0,0.0,0.0,0.0,0.0,0.0,0.0,0.0,0.0,-2.6799,-2.7295,-2.7706,-2.7963,-2.8888,-2.9436,-2.9299,-2.9624,-2.9573,-2.8956,-2.8323,-2.7878,0.0,0.0,0.0,0.0,0.0,-2.9864,-3.0617,-3.173,-3.2484,-3.2878,-3.3254,-3.3426,-3.3426,-3.3426,-3.3135,-3.2587,-3.1456,-3.0549,-2.983,-2.9025,-2.8375,0.0,0.0,0.0,0.0,0.0,0.0,0.0,0.0,0.0,0.0,0.0,0.0,0.0,0.0,0.0,0.0,0.0,0.0,0.0,0.0,0.0,0.0,0.0,0.0,0.0,0.0,0.0,0.0,0.0,0.0,0.0,0.0,0.0,0.0,0.0,0.0,0.0,-2.9895,-3.0404,0.0,-2.8423,-2.8541,-2.8164,-2.6922,-2.8135,-2.8566,-2.779,-2.8549,-2.9251,-2.9778,-3.0422,-3.0876,-3.111,-3.1549,-3.171,-3.1622,-3.1739,-3.1798,-3.1798,-3.1798,-3.1739,-3.1622,-3.1622,-3.1446,-3.1095,-3.0642,-2.9954,-2.912,-2.8461,-2.8095,-2.7978,-2.8373,-2.8388,-2.83,0.0,0.0,0.0,0.0,0.0,0.0,0.0,0.0,0.0,-2.7158,-2.7689,-2.8203,-2.8717,-2.9778,-3.0412,-3.0292,-3.048,-3.0258,-2.9367,-2.8614,-2.8015,0.0,-2.7381,0.0,0.0,-2.9761,-3.0703,-3.1576,-3.2587,-3.3203,-3.346,-3.3717,-3.3761,-3.3761,-3.3761,-3.37,-3.3409,-3.2518,-3.1491,-3.0412,-2.9761,-2.9168,-2.8619,0.0,0.0,0.0,0.0,0.0,0.0,0.0,0.0,0.0,0.0,0.0,0.0,0.0,0.0,0.0,0.0,0.0,0.0,0.0,0.0,0.0,0.0,0.0,0.0,0.0,0.0,0.0,0.0,0.0,0.0,0.0,0.0,0.0,0.0,0.0,-3.2477,-3.1697,-3.1943,-3.1597,-3.0069,-2.9998,-2.964,-2.875,-3.0237,-3.0945,-3.0381,-3.1058,-3.1655,-3.2197,-3.2067,-3.2061,-3.228,-3.25,-3.2559,-3.2456,-3.2456,-3.2456,-3.2441,-3.2339,-3.2222,-3.212,-3.2002,-3.1783,-3.1461,-3.1359,-3.0934,-3.029,-2.9749,-2.9412,-2.9295,-2.9705,-2.9734,-2.9632,0.0,0.0,0.0,0.0,0.0,0.0,0.0,0.0,-2.6747,-2.7501,-2.8289,-2.9076,-2.983,-3.0909,-3.1422,-3.1063,-3.1028,-3.0532,-2.9384,-2.8597,-2.7997,0.0,0.0,0.0,-2.9881,-3.0669,-3.1611,-3.2707,-3.346,-3.3761,-3.3761,-3.3761,-3.3761,-3.3761,-3.3761,-3.3761,-3.382,-3.3443,-3.2638,-3.1525,-3.0395,-3.0223,-3.0477,0.0,0.0,0.0,0.0,0.0,0.0,0.0,0.0,0.0,0.0,0.0,0.0,0.0,0.0,0.0,0.0,0.0,0.0,0.0,0.0,0.0,0.0,0.0,0.0,0.0,0.0,0.0,0.0,0.0,0.0,0.0,0.0,0.0,-3.1876,-3.2422,-3.287,-3.2838,-3.168,-3.1121,-3.1866,-2.9681,-2.929,-3.1918,-3.2411,-3.3065,-3.4119,-3.4334,-3.4583,-3.4916,-3.3267,-3.2632,-3.3156,-3.3261,-3.3422,-3.3729,-3.3729,-3.3729,-3.3715,-3.3393,-3.3071,-3.2763,-3.2441,-3.212,-3.1783,-3.1476,-3.1329,-3.1285,-3.0949,-3.0817,-3.0817,-3.0817,-3.0817,-3.0817,0.0,0.0,0.0,0.0,0.0,0.0,0.0,-2.6199,-2.6456,-2.7467,-2.8289,-2.9162,-3.0172,-3.1046,-3.1525,-3.1422,-3.1165,-3.0532,-2.9384,-2.834,-2.7604,0.0,0.0,0.0,-3.0275,-3.1559,-3.2518,-3.3117,-3.3597,-3.3761,-3.3761,-3.3761,-3.3761,-3.3761,-3.3761,-3.3761,-3.3761,-3.3734,-3.334,-3.2707,-3.1559,-3.0754,-3.0122,0.0,0.0,0.0,0.0,0.0,0.0,0.0,0.0,0.0,0.0,0.0,0.0,0.0,0.0,0.0,0.0,0.0,0.0,0.0,0.0,0.0,0.0,0.0,0.0,0.0,0.0,0.0,0.0,0.0,0.0,0.0,0.0,-3.4141,-3.3895,-3.4059,-3.4073,-3.3809,-3.3753,-3.3043,-3.1281,-3.2729,-3.3818,-3.393,-3.4148,-3.4594,-3.5237,-3.4226,-3.347,-3.3408,-3.3574,-3.3539,-3.3156,-3.3715,-3.3875,-3.3729,-3.3729,-3.3729,-3.3715,-3.3393,-3.3202,-3.31,-3.2778,-3.2456,-3.2149,-3.2046,-3.1739,-3.1285,-3.0949,-3.0817,-3.0817,-3.0817,-3.0817,-3.0817,0.0,0.0,0.0,0.0,0.0,0.0,0.0,-2.608,-2.6405,-2.7689,-2.8528,-2.9436,-3.0549,-3.1354,-3.1748,-3.1576,-3.108,-3.0224,-2.8922,-2.7929,0.0,0.0,0.0,-3.0446,-3.1593,-3.2484,-3.3203,-3.3734,-3.3957,-3.3991,-3.3761,-3.3761,-3.3761,-3.3761,-3.3761,-3.3761,-3.3761,-3.3761,-3.3717,-3.3443,-3.2604,-3.1696,-3.084,-3.0813,-3.0105,-2.9176,-2.9585,-2.9765,-2.9577,-2.7983,0.0,0.0,0.0,0.0,0.0,0.0,0.0,0.0,0.0,0.0,0.0,0.0,0.0,0.0,0.0,0.0,0.0,0.0,0.0,0.0,0.0,0.0,0.0,0.0,-3.444,-3.5559,-3.5496,-3.4902,-3.4296,-3.3802,-3.3531,-3.3091,-3.2396,-3.3442,-3.4478,-3.4928,-3.5097,-3.543,-3.6011,-3.5095,-3.4561,-3.4501,-3.4271,-3.4095,-3.3861,-3.4227,-3.4329,-3.4139,-3.4139,-3.4139,-3.4124,-3.3656,-3.3451,-3.3422,-3.2968,-3.2661,-3.2485,-3.2339,-3.2061,-3.1666,0.0,0.0,0.0,0.0,-3.0817,-3.0817,0.0,0.0,0.0,0.0,0.0,0.0,0.0,-2.5885,-2.6414,-2.7997,-2.8802,-2.9693,-3.0823,-3.1542,-3.1799,-3.1456,-3.0737,-2.9693,-2.822,0.0,0.0,-2.9761,-3.0035,-3.1131,-3.322,-3.3306,-3.3683,-3.4385,-3.435,-3.4179,-3.3905,-3.3905,-3.3905,-3.3905,-3.3905,-3.3795,-3.3761,-3.3761,-3.3761,-3.3727,-3.3477,-3.2878,-3.2052,-3.1265,-3.0753,-3.031,-2.9919,-2.906,-2.8048,-2.7834,0.0,0.0,0.0,0.0,0.0,0.0,0.0,0.0,0.0,0.0,0.0,0.0,0.0,0.0,0.0,0.0,0.0,0.0,0.0,0.0,0.0,0.0,0.0,0.0,-3.5685,-3.6699,-3.6753,-3.5368,-3.4166,-3.3447,-3.2563,-3.2577,-3.4032,-3.2986,-3.3116,-3.5359,-3.5422,-3.5722,-3.6532,0.0,0.0,0.0,0.0,-3.4388,-3.4651,-3.468,-3.471,-3.471,-3.471,-3.471,-3.468,-3.4066,-3.3773,-3.37,-3.3129,-3.2837,-3.2749,-3.25,-3.2354,-3.2222,-3.1607,-3.1183,-3.0934,-3.089,-3.0876,-3.0876,0.0,0.0,0.0,0.0,0.0,0.0,0.0,-2.5885,-2.6414,-2.7997,-2.8597,-2.9316,-3.0412,-3.0669,-3.072,-3.0652,-2.9967,-2.9008,0.0,0.0,-2.9042,-2.9402,-3.0891,-3.2193,-3.3254,-3.358,-3.3939,-3.4385,-3.4094,-3.4059,-3.4282,-3.4282,-3.4282,-3.4282,-3.4282,-3.4111,-3.3761,-3.3761,-3.3761,-3.3761,-3.3751,-3.3272,-3.2445,-3.1354,-3.0667,-3.0211,-2.9492,-2.9824,-3.0352,-2.8605,-2.8643,-2.9018,-2.7102,0.0,0.0,0.0,0.0,0.0,0.0,0.0,0.0,0.0,0.0,0.0,0.0,0.0,0.0,0.0,0.0,0.0,0.0,0.0,0.0,-3.5898,-3.6417,-3.6848,-3.7576,-3.6773,-3.5551,-3.3991,-3.5061,-3.5197,-3.3288,-3.4017,-3.5175,-3.667,-3.5349,-3.5349,-3.7261,-3.5867,-3.4959,-3.4751,-3.4647,-3.4519,-3.4314,-3.4578,-3.471,-3.471,-3.471,0.0,-3.4695,-3.43,-3.3978,-3.3729,-3.3597,-3.3246,-3.2793,-3.2983,-3.2749,-3.2237,-3.1856,-3.1666,-3.1578,-3.1315,-3.1212,-3.1183,0.0,0.0,0.0,0.0,0.0,0.0,0.0,-2.6217,-2.661,-2.7758,-2.8237,-2.8768,-2.9521,-2.9761,-2.9795,-2.9624,-2.8905,0.0,0.0,-2.8785,-2.9727,-3.0686,-3.1799,-3.2946,-3.4094,-3.3939,-3.4025,-3.4385,-3.4025,-3.4025,-3.4385,-3.4385,-3.4487,-3.4676,-3.4676,-3.459,-3.4419,-3.459,-3.4573,-3.4419,-3.4607,-3.4213,-3.3494,-3.2672,-3.2154,-3.1689,-3.0852,-3.0576,-3.0292,-2.8816,-2.8869,-2.9331,-2.8426,-2.8245,-2.8319,0.0,0.0,0.0,0.0,0.0,0.0,0.0,0.0,0.0,0.0,0.0,0.0,0.0,0.0,-3.2676,0.0,0.0,-3.6113,-3.7422,-3.813,-3.8284,-3.7329,-3.7951,-3.7387,-3.4474,-3.5414,-3.5451,-3.322,-3.3933,-3.4817,-3.5578,-3.4751,-3.4807,-3.6034,-3.5241,-3.4636,-3.4461,-3.4622,-3.4622,-3.4461,-3.4622,-3.471,-3.471,-3.471,-3.471,-3.4695,-3.4373,-3.4036,-3.3729,-3.3729,-3.3363,-3.2778,-3.2939,-3.2822,-3.2515,-3.2354,-3.209,-3.1783,-3.1607,-3.1446,-3.1285,0.0,0.0,0.0,0.0,0.0,0.0,0.0,0.0,-2.6747,-2.7501,-2.7878,-2.822,-2.8631,-2.8922,-2.8939,-2.858,0.0,0.0,0.0,-2.9213,-3.0463,-3.2073,-3.2638,-3.3494,-3.4727,-3.4162,-3.3991,-3.4282,-3.3991,-3.4025,-3.4385,-3.447,-3.4676,-3.4984,-3.5121,-3.5104,-3.5001,-3.5361,-3.5292,-3.5001,-3.5292,-3.4923,-3.412,-3.3831,-3.3339,-3.2834,-3.1909,-3.0601,-2.9278,-2.856,-2.855,-2.8797,-2.9404,-2.951,-2.9261,-2.8956,-2.8018,0.0,0.0,0.0,0.0,0.0,0.0,0.0,0.0,0.0,-3.1574,-3.1731,-3.3096,-3.4512,-3.5098,-3.6484,-3.7851,-3.8809,-3.9431,-3.9105,-3.7392,-3.8341,-3.8073,-3.4927,-3.5176,-3.5005,-3.3573,-3.3671,-3.3963,-3.4285,-3.4314,-3.4432,-3.4695,-3.471,-3.471,-3.471,-3.471,-3.471,-3.471,-3.471,-3.471,-3.471,-3.471,-3.4666,-3.4592,-3.4344,-3.4036,-3.3729,-3.3656,-3.3349,-3.2851,-3.2793,-3.2778,-3.2778,-3.2778,-3.2456,-3.1973,-3.1915,-3.1724,-3.1476,0.0,0.0,0.0,0.0,0.0,0.0,0.0,0.0,0.0,-2.7501,-2.7638,-2.7826,-2.822,-2.8289,-2.8169,0.0,0.0,0.0,-2.8717,-3.0343,-3.1559,-3.2107,-3.3078,-3.3785,-3.3957,-3.3888,-3.3778,-3.3905,-3.3778,-3.4025,-3.4402,-3.4744,-3.4933,-3.5001,-3.5669,-3.56,-3.5001,-3.5361,-3.5292,-3.4984,-3.5018,-3.4389,-3.3304,-3.3271,-3.2561,-3.1437,-3.0358,-2.8988,-2.7763,-2.7629,-2.7482,-2.726,-2.7331,-2.7906,-2.8376,-2.7477,0.0,-2.8871,-2.8051,-2.9046,-2.9952,-2.814,-2.9018,-3.0692,0.0,0.0,-3.246,-3.4902,-3.5296,-3.5605,-3.6797,-3.7793,-3.8848,-4.0098,-3.8414,-3.7474,-3.9141,-3.7164,-3.5398,-3.4922,-3.5542,-3.544,-3.422,-3.4139,-3.43,-3.4622,-3.4651,-3.4666,-3.471,-3.471,-3.471,-3.471,-3.471,-3.471,-3.471,-3.471,-3.471,-3.471,-3.471,-3.4549,-3.4271,-3.4241,-3.4036,-3.3715,-3.3422,-3.3261,-3.3173,-3.288,-3.2778,-3.2778,-3.2778,-3.2719,-3.2632,-3.2339,-3.2207,-3.209,0.0,0.0,0.0,0.0,0.0,0.0,0.0,0.0,0.0,0.0,-2.7295,-2.7364,-2.7518,-2.7535,-2.7484,0.0,0.0,0.0,-2.8768,-3.0737,-3.2159,-3.2775,-3.3665,-3.4265,-3.4487,-3.4059,-3.3761,-3.3761,-3.3761,-3.4145,-3.4727,-3.4898,-3.5207,-3.5635,-3.596,-3.5926,-3.5652,-3.6011,-3.5943,-3.5652,-3.5278,-3.4492,-3.343,-3.267,-3.1504,-3.0049,-2.9392,-2.8471,0.0,0.0,-2.6691,-2.6599,-2.7692,-2.7599,-2.7139,-2.7834,-2.7729,0.0,-2.7969,-2.7866,-2.8073,-2.9637,-3.0188,-3.0981,-3.2892,-3.3033,-3.3321,-3.5487,-3.5207,-3.5504,-3.8287,-3.8724,-3.9146,0.0,-3.9634,-3.8405,-3.8482,-3.649,-3.4651,-3.3827,-3.3743,-3.3871,-3.3938,-3.411,-3.4358,-3.468,-3.471,-3.471,-3.471,-3.471,-3.471,-3.471,-3.471,-3.471,-3.471,-3.471,-3.471,-3.4695,-3.4519,-3.4446,-3.449,-3.43,-3.4139,-3.3978,-3.3276,-3.3071,-3.3217,-3.2895,-3.2778,-3.2778,-3.2778,-3.2778,-3.2749,-3.2617,-3.2324,-3.1959,0.0,0.0,0.0,0.0,0.0,0.0,0.0,0.0,0.0,0.0,0.0,0.0,0.0,0.0,0.0,0.0,0.0,0.0,0.0,-3.0686,-3.221,-3.3066,-3.3939,-3.4573,-3.4967,-3.4333,-3.3991,-3.3991,-3.3812,-3.4179,-3.4813,-3.4933,-3.5309,-3.5943,-3.6148,-3.6183,-3.6114,-3.6474,-3.6354,-3.588,-3.5342,-3.4356,-3.294,-3.1729,-3.0066,-2.8321,-2.8297,-2.7646,0.0,0.0,-2.582,-2.5894,-2.7547,-2.7269,-2.6617,-2.7703,-2.7225,-2.65,-2.7516,-2.7668,-2.8097,-3.0733,-3.1197,-3.1478,-3.3445,-3.3767,-3.4073,-3.5389,-3.5771,-3.6462,-3.8438,-3.8728,-3.9049,-4.0325,-3.925,-3.7944,-3.7166,-3.5392,-3.3818,-3.2778,-3.2354,-3.2456,-3.3261,-3.3788,-3.4212,-3.4549,-3.4651,-3.471,-3.471,-3.471,-3.471,-3.471,-3.471,-3.471,-3.471,-3.471,-3.471,-3.4695,-3.4373,-3.43,-3.4432,-3.4095,-3.3905,-3.3788,-3.3173,-3.2983,-3.31,-3.2866,-3.2778,-3.2778,-3.2778,-3.2778,-3.2763,-3.2676,-3.2398,-3.2046,0.0,0.0,0.0,0.0,0.0,0.0,0.0,0.0,0.0,0.0,0.0,0.0,0.0,0.0,0.0,0.0,0.0,0.0,0.0,-3.0206,-3.1542,-3.2655,-3.3785,-3.4573,-3.4967,-3.4573,-3.4368,-3.4368,-3.4008,-3.4025,-3.4419,-3.4796,-3.5172,-3.5549,-3.6285,-3.6422,-3.6114,-3.6474,-3.62,-3.547,-3.4975,-3.3448,-3.1347,-3.0176,-2.8265,-2.6217,-2.6943,0.0,0.0,0.0,-2.46,-2.4835,-2.5762,-2.6713,0.0,-2.6421,-2.6579,0.0,0.0,0.0,-3.1894,-3.0085,-3.1036,-3.2702,-3.3661,-3.4108,-3.459,-3.5302,-3.8002,-3.943,-3.6612,-3.7498,-3.8344,-3.7383,-3.569,-3.4769,-3.5454,-3.3751,-3.2368,-3.2295,-3.2017,-3.1944,0.0,-3.3188,-3.3875,-3.4212,-3.4534,-3.471,-3.471,-3.471,-3.471,-3.471,-3.471,-3.471,-3.471,-3.471,-3.471,-3.4695,-3.4373,-3.4051,-3.3758,-3.3422,-3.31,-3.2837,-3.3115,-3.3056,-3.2778,-3.2778,-3.2778,-3.2778,-3.2778,-3.2778,-3.2734,-3.2412,-3.2485,-3.2646,0.0,0.0,0.0,0.0,0.0,0.0,0.0,0.0,0.0,0.0,0.0,0.0,0.0,0.0,0.0,0.0,0.0,0.0,0.0,-2.9795,-3.0909,-3.1542,-3.2655,-3.3443,-3.3837,-3.3717,-3.3888,-3.4385,-3.4265,-3.4522,-3.5138,-3.5258,-3.5532,-3.5909,-3.5581,-3.5307,-3.5206,-3.4736,-3.4115,-3.3479,-3.2714,-3.1449,-2.9895,-2.8657,-2.7082,-2.5354,0.0,0.0,0.0,0.0,0.0,0.0,-2.5203,0.0,0.0,-2.6146,0.0,0.0,0.0,0.0,-2.9699,-3.1885,-3.2243,-3.2506,-3.4477,-3.4967,-3.5207,-3.5703,-3.546,-3.5132,-3.5003,-3.4725,-3.4817,-3.5691,-3.5064,-3.4541,-3.4779,-3.3208,-3.1885,-3.1666,-3.1344,0.0,0.0,0.0,0.0,-3.3554,-3.408,-3.4285,-3.4066,-3.4475,-3.4607,-3.4388,-3.4592,-3.4592,-3.4388,-3.4388,-3.4271,-3.4051,-3.3949,-3.3729,-3.3407,-3.329,-3.3188,-3.3085,-3.2983,-3.2866,-3.2778,-3.2778,-3.2778,-3.2778,-3.2778,-3.2632,-3.2427,-3.2324,-3.2222,-3.2061,0.0,0.0,0.0,0.0,0.0,0.0,0.0,0.0,0.0,0.0,0.0,0.0,0.0,0.0,0.0,0.0,0.0,0.0,0.0,0.0,-2.9915,-3.0583,-3.1422,-3.2124,-3.2655,-3.2535,-3.2758,-3.3374,-3.3254,-3.3563,-3.4299,-3.4436,-3.4555,-3.4694,-3.4275,-3.3848,-3.3593,-3.289,-3.2189,-3.1551,-3.0562,-2.9409,-2.8239,-2.6926,-2.5677,0.0,0.0,0.0,0.0,0.0,0.0,0.0,0.0,0.0,0.0,0.0,0.0,0.0,0.0,-2.9933,-3.0697,-3.2833,-3.2732,-3.2618,-3.4319,-3.4692,-3.4515,-3.3919,-3.3405,-3.2896,-3.2233,-3.1777,-3.1685,-3.2462,-3.2301,-3.2309,-3.2912,-3.1909,-3.1154,-3.13,-3.1124,-3.1037,0.0,0.0,0.0,-3.3041,-3.3568,-3.3875,-3.3905,-3.43,-3.449,-3.4402,-3.4475,-3.4432,-3.4227,-3.4095,-3.3875,-3.3554,-3.3554,-3.3393,-3.3071,-3.3071,-3.3071,-3.3056,-3.2851,-3.2778,-3.2778,-3.2778,-3.2778,-3.2778,-3.2778,-3.2646,-3.2441,-3.2324,-3.2149,-3.19,0.0,0.0,0.0,0.0,0.0,0.0,0.0,0.0,0.0,0.0,0.0,0.0,0.0,0.0,0.0,0.0,0.0,0.0,0.0,0.0,0.0,-2.9727,-3.0138,-3.0686,-3.151,-3.1114,-3.1114,-3.1508,-3.1131,-3.1267,-3.1984,-3.2343,-3.2335,-3.196,-3.2324,-3.2032,-3.1313,-3.0978,-3.0421,-2.9647,-2.8609,-2.7524,-2.6377,-2.4995,0.0,0.0,0.0,0.0,0.0,0.0,0.0,0.0,0.0,0.0,0.0,0.0,0.0,-3.0474,-2.8355,-3.1121,-3.4294,-3.2881,-3.2602,-3.2757,-3.317,-3.3315,-3.2686,-3.0328,-3.2007,-3.2626,0.0,0.0,-2.9111,-2.8043,-2.7947,-2.8622,-3.024,-3.0129,-3.0276,0.0,0.0,0.0,0.0,0.0,0.0,-3.2705,0.0,-3.3495,-3.4139,-3.4183,-3.4344,-3.4666,-3.4358,-3.4197,-3.4197,-3.3846,-3.3524,-3.3217,-3.3217,-3.3056,-3.2778,-3.2778,-3.2778,-3.2778,-3.2778,-3.2778,-3.2778,-3.2778,-3.2778,-3.2778,-3.2778,-3.2749,-3.269,-3.2398,-3.2266,-3.2149,0.0,0.0,0.0,0.0,0.0,0.0,0.0,0.0,0.0,0.0,0.0,0.0,0.0,0.0,0.0,0.0,0.0,0.0,0.0,0.0,0.0,0.0,0.0,0.0,0.0,0.0,0.0,0.0,0.0,-2.973,-3.0165,-3.0041,-2.9971,-2.9871,-2.9575,-2.931,-2.9074,-2.8337,-2.7488,-2.6633,0.0,-2.5464,-2.4327,0.0,0.0,0.0,0.0,0.0,0.0,0.0,0.0,0.0,0.0,-2.5418,-2.6689,0.0,0.0,-2.8854,-3.0697,-3.1172,-3.1462,-3.2806,-3.2258,-3.1302,-3.1153,-3.1969,-3.1999,-2.9364,-2.9806,-2.9812,0.0,0.0,0.0,-2.7673,-2.9003,0.0,-3.0642,-3.0846,0.0,-3.1285,0.0,-3.1373,-3.1534,-3.1695,0.0,0.0,-3.2705,-3.3071,-3.3466,-3.3729,-3.4007,-3.4329,-3.4022,-3.3861,-3.3861,-3.329,-3.2968,-3.2895,-3.2895,-3.2851,-3.2778,-3.2778,-3.2778,-3.2778,-3.2778,-3.2778,-3.2778,-3.2778,-3.2778,-3.2778,-3.2778,-3.2471,-3.2061,-3.2222,-3.1973,-3.1449,0.0,0.0,0.0,0.0,0.0,0.0,0.0,0.0,0.0,0.0,0.0,0.0,0.0,0.0,0.0,0.0,0.0,0.0,0.0,0.0,0.0,0.0,0.0,0.0,0.0,0.0,0.0,0.0,0.0,0.0,0.0,-2.7747,-2.7509,-2.719,-2.6991,-2.6733,-2.6388,-2.5771,0.0,0.0,0.0,0.0,0.0,0.0,0.0,0.0,0.0,0.0,0.0,0.0,0.0,-2.5291,-2.4995,-2.6051,-2.749,-2.7243,0.0,-3.0155,-3.1115,-3.1368,-3.1543,-3.1936,-3.1445,-3.0598,-2.972,-3.025,-3.0282,-2.7806,-2.7473,0.0,-2.521,-2.5584,0.0,0.0,0.0,0.0,-3.0305,-3.0685,-3.1051,0.0,-3.1651,0.0,-3.1798,-3.1929,-3.209,0.0,-3.2456,-3.2822,-3.3422,-3.3495,-3.3729,-3.4197,-3.3758,-3.3451,-3.3305,-3.2954,-3.2778,-3.2778,-3.2778,-3.2778,-3.2778,-3.2778,-3.2778,-3.2778,-3.2778,-3.2778,-3.2778,-3.2778,-3.2778,-3.2778,-3.2778,-3.2544,-3.2237,-3.2266,-3.2149,-3.1843,0.0,0.0,0.0,0.0,0.0,0.0,0.0,0.0,0.0,0.0,0.0,0.0,0.0,0.0,0.0,0.0,0.0,0.0,0.0,0.0,0.0,0.0,0.0,0.0,0.0,0.0,0.0,0.0,0.0,0.0,0.0,0.0,0.0,0.0,0.0,0.0,0.0,0.0,0.0,0.0,0.0,0.0,0.0,0.0,0.0,0.0,0.0,0.0,0.0,0.0,-2.5344,-2.5929,-2.6075,-2.7285,-2.8696,-2.82,-3.0228,-3.222,-3.041,-3.1462,-3.2628,-3.0892,-3.0554,-3.0305,-2.8783,-2.8549,-2.8095,-2.6208,0.0,-2.473,-2.4071,-2.4291,-2.4818,-2.5593,0.0,-2.8183,-2.9822,-3.0305,-3.0817,-3.1754,-3.212,-3.2193,-3.1959,-3.2178,-3.2354,-3.2354,-3.2354,-3.2734,-3.3612,-3.3363,-3.3436,-3.4007,-3.351,-3.3085,-3.2778,-3.2778,-3.2778,-3.2778,-3.2778,-3.2763,-3.2675,-3.2675,-3.2675,-3.2675,-3.2675,-3.2763,-3.2763,-3.2719,-3.2734,-3.2763,-3.2719,-3.2676,-3.2617,-3.2427,-3.2471,-3.2514,0.0,0.0,0.0,0.0,0.0,0.0,0.0,0.0,0.0,0.0,-2.7073,-2.7073,0.0,0.0,0.0,0.0,0.0,0.0,0.0,0.0,0.0,0.0,0.0,0.0,0.0,0.0,0.0,0.0,0.0,0.0,0.0,0.0,0.0,0.0,0.0,0.0,0.0,0.0,0.0,0.0,0.0,0.0,0.0,0.0,0.0,0.0,0.0,0.0,0.0,0.0,-2.5071,-2.5688,-2.6224,-2.7199,-2.8134,-2.8276,-2.9334,-3.0346,-2.9983,-3.058,-3.1135,-3.0842,-3.0378,-2.9749,-2.8681,-2.7861,0.0,0.0,-2.451,-2.4057,-2.3398,-2.3984,-2.5052,-2.65,-2.7598,-2.893,-3.0803,-3.111,-3.1402,0.0,-3.2251,-3.2368,-3.2588,-3.2646,0.0,0.0,-3.269,-3.2866,-3.3305,-3.3027,-3.291,-3.3027,-3.3173,-3.3085,-3.2778,-3.2778,-3.2778,-3.2778,-3.2778,-3.2586,-3.2143,-3.2143,-3.2143,-3.2143,-3.2143,-3.2409,-3.2749,-3.2485,-3.2529,-3.2749,-3.2471,-3.2207,-3.2017,-3.2515,-3.2383,-3.1916,0.0,0.0,0.0,0.0,0.0,0.0,0.0,-2.7073,-2.7073,-2.7073,-2.7073,-2.7073,-2.7073,-2.7073,0.0,0.0,0.0,0.0,0.0,0.0,0.0,0.0,0.0,0.0,0.0,0.0,0.0,0.0,0.0,0.0,0.0,0.0,0.0,0.0,0.0,0.0,0.0,0.0,0.0,0.0,0.0,0.0,0.0,0.0,0.0,0.0,0.0,0.0,0.0,0.0,-2.5685,-2.761,-2.7194,-2.8832,-3.0783,-2.9565,-3.0375,-3.1523,-3.0816,-3.0715,-3.0817,-3.0817,-3.0217,-2.9222,-2.7759,0.0,0.0,0.0,-2.3691,-2.3427,-2.2945,-2.3793,0.0,-2.5608,-2.6969,0.0,0.0,0.0,0.0,-3.2193,-3.2427,-3.2602,0.0,-3.2778,-3.2778,-3.2778,-3.2778,-3.291,-3.3232,-3.2832,-3.2672,-3.2778,-3.2643,-3.2657,-3.2778,-3.2778,-3.2778,-3.2778,-3.2778,-3.2498,-3.1966,-3.1966,-3.1877,-3.1596,-3.1596,-3.1866,-3.2163,-3.2004,-3.2033,-3.2149,-3.2252,-3.2019,-3.1729,-3.1874,-3.183,-3.1527,0.0,0.0,0.0,0.0,0.0,0.0,0.0,-2.7141,-2.7193,-2.7193,-2.7193,-2.7193,-2.7193,-2.7124,-2.7073,0.0,0.0,0.0,0.0,0.0,0.0,0.0,0.0,0.0,0.0,0.0,0.0,-2.4432,0.0,0.0,0.0,0.0,0.0,0.0,0.0,0.0,0.0,0.0,0.0,0.0,0.0,0.0,0.0,0.0,0.0,0.0,0.0,0.0,0.0,0.0,-2.6133,-2.8938,-2.7742,-3.0103,-3.2866,-3.0363,-3.1073,-3.2494,-3.1446,-3.1022,-3.0846,-3.0905,-3.0086,-2.8812,-2.7013,-2.6003,0.0,-2.3427,-2.3106,-2.3032,-2.2769,-2.3559,-2.4349,0.0,-2.5959,-2.7525,0.0,0.0,0.0,0.0,0.0,0.0,-3.2778,-3.2778,0.0,-3.2778,-3.2675,-3.2703,-3.295,-3.2516,-3.2312,-3.2498,-3.2143,-3.2232,-3.2586,-3.2763,-3.2778,-3.2778,-3.2778,-3.2498,-3.1877,-3.1877,-3.1596,-3.1137,-3.1137,-3.1278,-3.1507,-3.1364,-3.135,-3.1495,-3.1772,-3.1613,-3.1295,-3.1151,-3.1208,-3.1206,0.0,0.0,0.0,0.0,0.0,0.0,0.0,-2.7347,-2.7552,-2.7552,-2.7552,-2.7552,-2.7552,-2.7261,-2.7073,0.0,0.0,0.0,0.0,0.0,0.0,0.0,0.0,0.0,0.0,0.0,0.0,-2.4116,-2.3169,0.0,0.0,0.0,0.0,0.0,0.0,-2.1657,0.0,0.0,0.0,0.0,0.0,0.0,0.0,0.0,0.0,0.0,0.0,0.0,0.0,0.0,0.0,-2.7246,-2.7077,-2.9095,-3.1038,-2.9085,0.0,0.0,-3.0773,-3.0846,-3.089,-3.1198,-3.0086,-2.8593,-2.7247,0.0,-2.473,-2.3384,-2.3106,-2.3106,-2.3062,-2.3164,-2.3632,-2.4885,0.0,-2.6308,0.0,0.0,0.0,0.0,0.0,0.0,0.0,-3.2778,0.0,-3.2778,-3.2321,-3.2069,-3.2097,-3.1638,-3.1446,-3.1418,-3.1774,-3.2054,-3.2054,-3.2586,-3.2778,-3.2778,-3.2778,-3.2321,-3.1315,-3.1315,-3.1151,-3.0616,-3.0616,-3.0959,-3.1334,-3.0758,-3.0702,-3.0927,-3.0646,-3.0365,-3.0225,-3.1025,-3.0983,-3.0517,0.0,0.0,0.0,0.0,0.0,0.0,-2.7073,-2.7193,-2.7364,-2.7569,-2.7415,-2.7364,-2.7586,-2.7278,-2.7073,0.0,0.0,0.0,0.0,0.0,0.0,0.0,0.0,0.0,0.0,0.0,-2.4115,-2.4115,-2.3284,0.0,0.0,0.0,0.0,0.0,0.0,-2.1701,0.0,0.0,0.0,0.0,0.0,0.0,0.0,0.0,0.0,0.0,0.0,0.0,0.0,0.0,0.0,0.0,-2.5671,-2.6895,0.0,0.0,-3.0159,-3.1048,-3.1067,-3.0978,-3.0905,-3.1227,-2.9661,-2.7803,-2.6896,0.0,-2.391,-2.3003,-2.2974,-2.3047,-2.2857,-2.2974,-2.3208,-2.3545,0.0,0.0,-2.6601,0.0,0.0,0.0,0.0,0.0,0.0,0.0,-3.2778,-3.2778,-3.2054,-3.1596,-3.1596,-3.1151,-3.0973,-3.1315,-3.124,-3.1329,-3.1596,-3.2054,-3.2143,-3.1863,-3.2498,-3.2143,-3.087,-3.1045,-3.0608,-2.9913,-2.9724,-2.9811,-3.0042,-2.9807,-2.978,-2.9976,-3.0291,-3.0051,-2.9699,-3.0345,-3.0345,-2.9955,0.0,0.0,0.0,0.0,0.0,-2.7073,-2.7073,-2.7158,-2.7313,-2.7569,-2.7381,-2.733,-2.7569,-2.7278,-2.7073,-2.7073,0.0,0.0,0.0,0.0,0.0,0.0,0.0,0.0,0.0,0.0,-2.379,-2.379,-2.3355,-2.3106,0.0,0.0,-2.271,-2.2593,0.0,0.0,0.0,0.0,0.0,0.0,0.0,0.0,0.0,0.0,0.0,0.0,0.0,0.0,0.0,0.0,0.0,0.0,0.0,0.0,0.0,0.0,-2.9469,-3.0577,-3.0691,-3.0788,-3.0876,-3.111,-2.9369,-2.7422,0.0,0.0,-2.3559,-2.2901,-2.2945,-2.3047,-2.2813,-2.2959,-2.3032,0.0,0.0,-2.3866,-2.5037,0.0,0.0,0.0,0.0,-3.0759,0.0,-3.2544,-3.2763,-3.2586,-3.1863,-3.1418,-3.1315,-3.0973,-3.0794,-3.0884,-3.0705,-3.0794,-3.1062,-3.1596,-3.1596,-3.1315,-3.204,-3.1788,-3.0602,-3.0654,-3.0266,-2.9472,-2.9165,-2.9098,-2.924,-2.9145,-2.9118,-2.9131,-2.9776,-2.9621,-2.9186,-2.9784,-2.9866,-2.9629,0.0,0.0,0.0,0.0,0.0,0.0,-2.7073,-2.7381,-2.7604,-2.7604,-2.7604,-2.7604,-2.7604,-2.7278,-2.7073,-2.7073,0.0,0.0,0.0,0.0,0.0,0.0,0.0,0.0,0.0,0.0,-2.3106,-2.3106,-2.3106,-2.3106,-2.3106,-2.3106,-2.293,-2.2608,0.0,0.0,0.0,0.0,0.0,0.0,0.0,0.0,0.0,0.0,0.0,0.0,0.0,0.0,0.0,0.0,0.0,0.0,0.0,0.0,0.0,0.0,-2.6676,-2.8578,-2.9222,-3.01,-3.0817,-3.0832,-2.9369,-2.7611,0.0,0.0,-2.3896,-2.3237,-2.3106,-2.3106,-2.3106,-2.3106,-2.3106,-2.3106,-2.3106,0.0,-2.5301,0.0,0.0,0.0,0.0,-2.9412,-3.0715,-3.2017,-3.2586,-3.2054,-3.1966,0.0,-3.1315,-3.1315,-3.0884,-2.9913,-3.0348,-3.0616,-3.0616,-3.1062,-3.1315,-3.1315,-3.1315,-3.1062,-3.0602,-3.0315,-2.9914,-2.9472,-2.9165,-2.9032,-2.9005,-2.8724,-2.8604,-2.8631,-2.8925,-2.8858,-2.8671,-2.9259,-2.9486,-2.9486,0.0,0.0,0.0,0.0,0.0,0.0,0.0,-2.7176,-2.733,-2.7569,-2.7398,-2.733,-2.7586,-2.7278,-2.6952,-2.6449,0.0,0.0,0.0,0.0,0.0,0.0,0.0,0.0,0.0,0.0,-2.3106,-2.3106,-2.3106,-2.3106,-2.3106,-2.3106,-2.3047,-2.2945,-2.2867,0.0,0.0,0.0,0.0,0.0,0.0,0.0,0.0,0.0,0.0,0.0,0.0,0.0,0.0,0.0,0.0,0.0,0.0,0.0,0.0,0.0,0.0,0.0,-2.7174,-2.7803,-2.8154,-2.792,-2.691,-2.5842,-2.5301,-2.4262,-2.3296,-2.2871,-2.2959,-2.3106,-2.3106,-2.3106,-2.3106,-2.3106,-2.3106,0.0,0.0,0.0,0.0,0.0,0.0,-3.171,0.0,0.0,-3.2778,-3.2586,-3.2232,-3.1966,-3.1788,-3.1507,-3.1062,-3.0361,-3.0526,-3.0342,-2.9886,-3.052,-3.0609,-3.0063,-3.0757,-3.058,-2.9859,-2.9708,-2.9303,-2.8871,-2.8564,-2.843,-2.8417,-2.8323,-2.8283,-2.8323,-2.8631,-2.8564,-2.839,-2.9192,-2.9352,-2.9245,0.0,0.0,0.0,0.0,0.0,0.0,0.0,-2.7073,-2.7158,-2.7381,-2.721,-2.7158,-2.7381,-2.7027,-2.6571,-2.6144,0.0,0.0,0.0,0.0,0.0,0.0,0.0,0.0,0.0,-2.3106,-2.3168,-2.3293,-2.3168,-2.3168,-2.3293,-2.3168,-2.3109,-2.3101,-2.3078,-2.3172,0.0,0.0,0.0,0.0,0.0,0.0,-2.4255,0.0,0.0,0.0,0.0,0.0,0.0,0.0,0.0,0.0,0.0,0.0,0.0,0.0,0.0,0.0,0.0,-2.6457,-2.691,-2.6588,-2.5769,0.0,0.0,-2.3808,-2.3047,-2.2842,-2.2959,-2.3106,-2.3106,-2.3106,-2.3106,-2.3106,-2.3106,0.0,0.0,0.0,0.0,-2.8037,0.0,0.0,0.0,-3.2295,-3.2632,-3.2763,-3.2498,-3.2232,-3.1966,-3.1674,-3.1161,-3.0452,-3.0561,-3.0301,-2.9751,-3.0123,-2.998,-2.9312,-3.0035,-3.0035,-2.9299,-2.9077,-2.8861,-2.8591,-2.8283,-2.8221,0.0,-2.8221,-2.8221,-2.8261,-2.8484,-2.8484,-2.8404,-2.9072,-2.9205,-2.9112,0.0,0.0,0.0,0.0,0.0,0.0,0.0,0.0,-2.7012,-2.7012,-2.7012,-2.6952,-2.6952,-2.6388,-2.6006,-2.5945,0.0,0.0,0.0,0.0,0.0,0.0,0.0,0.0,0.0,-2.3106,-2.323,-2.3604,-2.323,-2.3293,-2.3728,-2.3355,-2.3192,-2.3262,-2.3262,-2.3459,0.0,0.0,0.0,0.0,0.0,0.0,0.0,0.0,0.0,0.0,0.0,0.0,0.0,0.0,0.0,0.0,0.0,0.0,0.0,0.0,0.0,0.0,0.0,0.0,0.0,0.0,0.0,0.0,0.0,0.0,0.0,-2.3106,-2.3106,-2.3106,-2.3106,-2.3106,-2.3106,-2.3106,0.0,0.0,0.0,-2.5227,0.0,0.0,-2.9222,0.0,-3.0401,-3.1505,-3.2368,-3.2676,-3.2705,-3.244,-3.1894,-3.1623,-3.1116,-3.0225,-3.0411,-3.0411,-3.011,-2.9878,-2.9566,-2.9005,-2.9285,-2.9272,-2.9005,-2.8711,-2.8577,-2.8564,-2.827,-2.8221,-2.8221,-2.8221,-2.8221,-2.8261,-2.8457,-2.8577,-2.8604,-2.8898,-2.9005,-2.9045,0.0,0.0,0.0,0.0,0.0,0.0,0.0,0.0,0.0,0.0,-2.59,-2.5533,-2.5533,-2.541,-2.5103,0.0,0.0,0.0,0.0,0.0,0.0,0.0,0.0,0.0,0.0,-2.3106,-2.323,-2.3604,-2.323,-2.3666,-2.4764,-2.4409,-2.4363,-2.4638,-2.4899,-2.5217,0.0,0.0,0.0,0.0,0.0,0.0,0.0,0.0,0.0,0.0,-2.7399,-2.6755,0.0,0.0,0.0,0.0,0.0,0.0,0.0,0.0,-2.3764,0.0,-2.3429,0.0,-2.394,-2.3618,-2.3545,-2.3545,0.0,0.0,0.0,0.0,0.0,0.0,0.0,-2.3106,-2.3106,-2.3106,0.0,0.0,-2.4101,0.0,0.0,-2.9281,-3.0554,-3.1081,-3.049,-3.13,-3.1771,-3.1512,-3.1512,-3.1339,-3.089,-3.082,-3.0705,-3.043,-3.0065,-2.9621,-2.899,-2.9098,-2.9072,-2.8711,-2.8778,-2.8778,-2.8698,-2.839,-2.8257,-2.8328,-2.8261,-2.8221,-2.8221,-2.8221,-2.8221,-2.8234,-2.8315,-2.8257,-2.8283,-2.8604,-2.8711,-2.8751,0.0,0.0,0.0,0.0,0.0,0.0,0.0,0.0,0.0,0.0,0.0,0.0,0.0,0.0,0.0,0.0,0.0,0.0,0.0,0.0,0.0,0.0,0.0,-2.3355,-2.3355,-2.3479,-2.3666,-2.3852,-2.3479,-2.4038,-2.5317,-2.4533,-2.4656,-2.5578,-2.5884,-2.6554,0.0,0.0,0.0,0.0,-2.8062,0.0,0.0,0.0,0.0,0.0,-2.8301,-2.7504,0.0,-2.6857,-2.7021,-2.6893,0.0,0.0,0.0,0.0,-2.3831,-2.3946,-2.305,-2.298,-2.3062,-2.2886,-2.2974,-2.3106,-2.3106,0.0,0.0,0.0,0.0,0.0,0.0,0.0,0.0,0.0,-2.3237,0.0,0.0,0.0,-2.8242,-2.9486,-3.0261,-3.0715,0.0,-3.1271,-3.1466,-3.111,-3.111,-3.0851,-3.016,-3.0021,-2.9866,-2.9607,-2.9213,-2.896,-2.8947,-2.8985,-2.8818,-2.839,-2.8537,-2.8537,-2.839,-2.8301,-2.8221,-2.8221,-2.8221,-2.8221,-2.8221,-2.8221,-2.8221,-2.8221,-2.8221,-2.8221,-2.8261,-2.8497,-2.8524,-2.8457,0.0,0.0,0.0,0.0,0.0,0.0,0.0,0.0,0.0,0.0,0.0,0.0,0.0,0.0,0.0,0.0,0.0,0.0,0.0,0.0,0.0,0.0,0.0,-2.3604,-2.3604,-2.3852,-2.4038,-2.4038,-2.3728,-2.4301,-2.5659,-2.4487,-2.4858,-2.6394,-2.6638,-2.7634,0.0,0.0,-2.854,0.0,-2.8522,0.0,0.0,0.0,0.0,0.0,0.0,0.0,0.0,-2.7297,-2.7306,-2.7167,-2.6727,0.0,0.0,0.0,0.0,0.0,-2.3278,-2.321,-2.3164,-2.312,-2.3106,-2.3106,-2.3106,0.0,0.0,0.0,0.0,0.0,0.0,-2.3106,0.0,0.0,0.0,0.0,-2.6149,-2.6939,-2.7861,-2.9222,-2.9515,0.0,-3.092,-3.107,-3.1104,-3.0866,-3.0795,-3.0365,-2.9503,-2.9258,-2.8951,-2.8537,-2.8283,-2.8524,-2.9121,-2.895,-2.8644,-2.8234,-2.8417,-2.839,-2.8221,-2.8221,-2.8221,-2.8221,-2.8221,-2.8221,-2.8221,-2.8221,-2.8221,-2.8221,-2.8221,-2.8221,-2.8261,-2.8444,-2.8364,-2.8301,0.0,0.0,0.0,0.0,0.0,0.0,0.0,0.0,0.0,0.0,0.0,0.0,0.0,0.0,0.0,0.0,0.0,0.0,0.0,0.0,0.0,0.0,-2.3417,-2.3604,-2.3604,-2.3666,-2.3666,-2.3666,-2.3604,-2.444,-2.6032,-2.5845,-2.6467,-2.7702,-2.7808,-2.8425,-2.9313,-2.9235,-2.9235,-2.9372,-2.9844,0.0,0.0,0.0,0.0,0.0,0.0,0.0,0.0,-2.8677,-2.8619,-2.837,-2.7546,0.0,0.0,0.0,0.0,0.0,-2.3763,-2.3683,-2.3457,-2.3179,-2.3106,-2.3106,-2.3106,0.0,0.0,0.0,0.0,0.0,0.0,-2.3106,-2.3106,0.0,0.0,-2.59,0.0,0.0,-2.9105,-2.9354,0.0,-3.0364,-2.9734,-3.0093,-3.0181,-2.979,-2.9382,-2.896,-2.8453,-2.8399,-2.8301,-2.8301,-2.8248,-2.8248,-2.8386,-2.8341,-2.8315,-2.8221,-2.8274,-2.8274,-2.8221,-2.8221,-2.8221,-2.8221,-2.8221,-2.8221,-2.8221,-2.8221,-2.8221,-2.8221,-2.8221,-2.8221,-2.8234,-2.8274,-2.8261,-2.8248,0.0,0.0,0.0,0.0,0.0,0.0,0.0,0.0,0.0,0.0,0.0,0.0,0.0,0.0,0.0,0.0,0.0,0.0,0.0,0.0,0.0,-2.3621,-2.4316,-2.4348,-2.3604,-2.3914,-2.413,-2.4124,-2.4327,-2.5485,-2.7503,-2.8043,-2.8463,-2.8751,-2.8793,-2.9301,-3.0157,-2.9608,-2.9726,-3.0216,0.0,0.0,0.0,0.0,0.0,0.0,0.0,0.0,0.0,0.0,-2.8877,-2.8702,-2.8274,0.0,0.0,0.0,0.0,0.0,-2.3632,-2.3323,-2.2915,-2.3281,-2.3501,-2.3632,-2.3632,-2.3632,0.0,0.0,0.0,0.0,0.0,0.0,-2.4188,-2.5066,0.0,-2.6954,-2.7947,-2.8417,-2.8798,0.0,0.0,-3.0071,-3.0159,-3.0403,-3.0248,-2.9565,-2.9314,-2.8894,-2.8234,-2.8221,-2.8221,-2.8221,-2.8221,-2.8221,-2.8221,-2.8221,-2.8221,-2.8221,-2.8221,-2.8221,-2.8221,-2.8221,-2.8221,-2.8221,-2.8221,-2.8221,-2.8221,-2.8221,-2.8221,-2.8221,-2.8221,-2.8221,-2.8221,-2.8221,-2.8221,-2.8221,0.0,0.0,0.0,0.0,0.0,0.0,0.0,0.0,0.0,0.0,0.0,0.0,0.0,0.0,0.0,0.0,0.0,0.0,0.0,0.0,-2.3661,-2.3851,-2.4813,-2.4905,-2.3848,-2.4595,-2.4797,-2.4492,-2.5202,-2.6687,-2.8825,-2.956,-2.9744,-2.9521,-2.9443,-3.0016,-3.082,-3.0098,-3.0216,-3.082,0.0,0.0,0.0,0.0,0.0,0.0,0.0,0.0,0.0,0.0,0.0,0.0,0.0,0.0,0.0,-2.573,-2.4508,-2.3314,-2.3579,-2.3036,-2.2608,-2.3486,0.0,-2.391,-2.4145,-2.4145,-2.4057,0.0,0.0,0.0,0.0,-2.4247,0.0,-2.6632,-2.7393,-2.7978,-2.8447,-2.8578,-2.89,-2.9632,-2.972,-3.0012,-3.0744,-3.0749,-3.0415,-2.9732,-2.9481,-2.9062,-2.8558,-2.8305,-2.8234,-2.8305,-2.8221,-2.8221,-2.8221,-2.8221,-2.8221,-2.8221,-2.8221,-2.8221,-2.8221,-2.8221,-2.8221,-2.8221,-2.8221,-2.8221,-2.8221,-2.8221,-2.8221,-2.8221,-2.8221,-2.8221,-2.8221,-2.8221,-2.8221,-2.8221,0.0,0.0,0.0,0.0,0.0,0.0,0.0,0.0,0.0,0.0,0.0,0.0,0.0,0.0,0.0,0.0,0.0,0.0,0.0,0.0,-2.3494,-2.3197,-2.4169,-2.4636,-2.451,-2.5517,-2.5392,-2.4112,-2.6056,-2.7756,-2.9155,-2.932,-2.9574,-2.9948,-2.9707,-3.0103,-3.0898,-3.082,-3.082,-3.0898,-3.082,0.0,0.0,0.0,0.0,0.0,0.0,0.0,0.0,0.0,0.0,0.0,0.0,0.0,-2.6846,-2.5968,-2.4895,-2.3996,-2.4001,-2.3489,-2.3208,-2.3881,-2.3603,-2.3413,-2.432,-2.4305,0.0,-2.4899,0.0,0.0,0.0,-2.4583,-2.5428,-2.6369,-2.7803,-2.912,-3.0123,0.0,-3.0642,-3.0715,-3.0715,-3.0744,-3.0817,-3.0415,-3.0263,-3.0179,-2.9328,-2.8992,-2.9398,-2.8642,-2.8403,-2.874,-2.8403,-2.8221,-2.8221,-2.8221,-2.8221,-2.8221,-2.8221,-2.8221,-2.8221,-2.8221,-2.8221,-2.8221,-2.8221,-2.8221,-2.8221,-2.8221,-2.8221,-2.8221,-2.8221,-2.8221,-2.8221,-2.8221,-2.8221,-2.8221,0.0,0.0,0.0,0.0,0.0,0.0,0.0,0.0,0.0,0.0,0.0,0.0,0.0,0.0,0.0,0.0,0.0,0.0,0.0,0.0,-2.3833,-2.3714,-2.4704,-2.5389,-2.5784,-2.5834,-2.5993,-2.636,-2.798,-2.8944,-2.9217,-2.9625,-2.9709,-2.9655,-3.0149,-3.0565,-3.0898,-3.0898,-3.0898,-3.0898,-3.0898,-3.0898,0.0,0.0,0.0,0.0,0.0,0.0,0.0,0.0,-3.018,-2.9922,-2.9536,-2.8895,-2.8014,-2.6408,-2.5461,-2.476,-2.3901,-2.3368,-2.3223,-2.3662,-2.3588,0.0,0.0,-2.5227,-2.5301,-2.5344,-2.5842,0.0,0.0,0.0,-2.6808,-2.7583,-2.8886,-2.9998,-3.0568,-3.0744,-3.0817,-3.0817,-3.0817,-3.0817,-3.0817,-3.0665,-3.0499,-3.0263,-2.9579,-2.9146,-2.9076,-2.8487,-2.8234,-2.8403,-2.8305,-2.8221,-2.8221,-2.8221,-2.8221,-2.8221,-2.8221,-2.8221,-2.8221,-2.8221,-2.8221,-2.8221,-2.8221,-2.8221,-2.8221,-2.8221,-2.8221,-2.8221,-2.8221,-2.8221,-2.8221,-2.8221,-2.8221,-2.8221,0.0,0.0,0.0,0.0,0.0,0.0,0.0,0.0,0.0,0.0,0.0,0.0,0.0,0.0,0.0,0.0,0.0,0.0,-2.323,-2.3805,-2.4037,-2.3783,-2.5122,-2.599,-2.6183,-2.6407,-2.6938,-2.8,-2.952,-3.0221,-3.0149,-3.0241,-3.0189,-3.0092,-3.0332,-3.0664,-3.1074,-3.0937,-3.0898,-3.0898,-3.0898,-3.0898,0.0,0.0,0.0,0.0,0.0,0.0,0.0,0.0,-3.0371,-2.9941,0.0,0.0,-2.8314,-2.6678,-2.568,-2.4907,-2.3722,-2.3156,-2.3062,-2.3486,0.0,0.0,-2.5491,-2.593,-2.6091,-2.6383,-2.6661,-2.6735,-2.6383,0.0,0.0,0.0,-2.9529,-3.0568,-3.0788,-3.0817,-3.0817,-3.0817,-3.0817,-3.0817,-3.0817,-3.0817,-3.0665,-3.0263,-2.9747,-2.9398,-2.9076,-2.8473,-2.8221,-2.8403,-2.8234,-2.8221,-2.8221,-2.8221,-2.8221,-2.8221,-2.8221,-2.8221,-2.8221,-2.8221,-2.8221,-2.8221,-2.8221,-2.8221,-2.8221,-2.8221,-2.8221,-2.8221,-2.8221,-2.8221,-2.8221,-2.8221,-2.8221,-2.8221,0.0,0.0,0.0,0.0,0.0,0.0,0.0,0.0,0.0,0.0,0.0,0.0,0.0,0.0,0.0,0.0,0.0,0.0,-2.3604,-2.3914,-2.384,-2.3125,-2.5338,-2.629,-2.5639,-2.725,-2.8256,-2.8619,-3.0392,-3.1615,-3.2168,-3.1134,-3.0986,-3.1425,-3.0033,-3.0208,-3.1484,-3.1074,-3.0898,-3.0898,-3.0898,-3.0898,-3.0898,0.0,0.0,0.0,0.0,0.0,0.0,0.0,-2.9922,0.0,0.0,0.0,0.0,-2.6641,-2.5578,-2.4398,-2.3354,-2.2867,-2.2784,0.0,0.0,0.0,-2.6061,-2.6252,-2.6471,-2.811,-2.7408,-2.6617,-2.6939,-2.7276,0.0,-2.783,-2.9573,-3.0817,-3.0817,-3.0817,-3.0817,-3.0817,-3.0817,-3.0817,-3.0817,-3.0817,-3.0651,-3.0248,-2.9732,-2.9481,-2.9481,-2.8642,-2.8389,-2.8824,-2.8389,-2.8221,-2.8221,-2.8221,-2.8221,-2.8221,-2.8221,-2.8221,-2.8221,-2.8221,-2.8221,-2.8221,-2.8221,-2.8221,-2.8221,-2.8221,-2.8221,-2.8221,-2.8221,-2.8221,-2.8221,-2.8221,-2.8221,-2.8221,0.0,0.0,0.0,0.0,0.0,0.0,0.0,0.0,0.0,0.0,0.0,0.0,0.0,0.0,0.0,0.0,0.0,0.0,-2.3929,-2.4038,-2.4131,-2.4147,-2.4827,-2.586,-2.7263,-2.9398,-3.013,-2.9372,-3.039,-3.0797,-3.0717,-3.0414,-3.0189,-3.0052,-3.0945,-3.1265,-3.1094,-3.1269,-3.1152,-3.0918,-3.1211,-3.1152,-3.0918,0.0,0.0,0.0,0.0,0.0,0.0,0.0,0.0,0.0,0.0,0.0,0.0,-2.6464,-2.5982,-2.5489,-2.3353,-2.3743,0.0,-2.3794,0.0,0.0,0.0,-2.6252,0.0,0.0,-2.8095,-2.7627,-2.7949,-2.8256,0.0,-2.8593,-2.9676,-3.0568,-3.0788,-3.0817,-3.0817,-3.0817,-3.0627,-3.0583,-3.0803,-3.0627,-3.0331,-2.9835,-2.9422,-2.8993,-2.8359,-2.7852,-2.7698,-2.7996,-2.7712,-2.7805,-2.8221,-2.7819,-2.7629,-2.7829,-2.7629,-2.7819,-2.8221,-2.8221,-2.8221,-2.8221,-2.8221,-2.8221,-2.8221,-2.8221,-2.8221,-2.8221,-2.8221,-2.8221,-2.8221,-2.8221,-2.8221,-2.8221,0.0,0.0,0.0,0.0,0.0,0.0,0.0,0.0,0.0,0.0,-2.3106,-2.3168,0.0,0.0,0.0,0.0,0.0,0.0,0.0,-2.4239,-2.4486,-2.4775,-2.5436,-2.6726,-2.8757,-3.0594,-3.0975,-2.9797,-3.0822,-3.1066,-3.0667,-3.0838,-3.0762,-3.0553,-3.1866,-3.2031,-3.1406,-3.168,-3.1523,-3.1172,-3.1406,-3.1367,-3.1172,0.0,0.0,0.0,0.0,0.0,0.0,0.0,0.0,0.0,0.0,0.0,0.0,-2.6638,-2.6109,-2.5562,-2.37,-2.3996,0.0,-2.4325,-2.4862,-2.5769,-2.6676,0.0,0.0,0.0,-2.9047,-2.8622,-2.8944,-2.9047,0.0,-2.9251,-2.9983,-3.0554,-3.0627,-3.0627,-3.0583,-3.0451,-3.0276,-3.0232,-3.0422,-3.0112,-2.9751,-2.9261,-2.8851,-2.8358,-2.769,-2.7431,-2.7348,-2.7522,-2.7362,-2.7442,-2.7872,-2.7442,-2.7348,-2.7522,-2.7348,-2.7509,-2.7963,-2.7963,-2.803,-2.8221,-2.8221,-2.8221,-2.8221,-2.8221,-2.8221,-2.8221,-2.8221,-2.8221,-2.8221,-2.8221,-2.8221,-2.8221,0.0,0.0,0.0,0.0,0.0,0.0,0.0,0.0,0.0,0.0,-2.3106,-2.323,0.0,0.0,0.0,0.0,0.0,0.0,0.0,0.0,-2.4822,-2.5212,-2.673,-2.8335,-2.986,-3.0986,-3.1026,-3.0125,-3.1491,-3.1894,-3.1465,-3.1953,-3.2229,-3.2248,-3.2598,-3.2559,-3.2229,-3.2129,-3.1855,-3.1465,-3.1504,-3.1504,-3.1465,-3.1504,0.0,0.0,0.0,0.0,0.0,0.0,0.0,0.0,0.0,-2.8425,-2.7591,-2.7018,-2.6104,-2.5137,-2.4369,0.0,0.0,-2.4973,-2.5447,0.0,-2.7364,-2.8769,-2.9983,-3.0568,0.0,-2.9588,-2.9851,-2.9661,-2.9544,-2.9903,-3.0349,-3.0642,-3.0431,-3.0387,-3.0284,-2.9895,-2.9837,-2.9837,-2.9866,-2.9434,-2.9001,-2.8568,-2.8082,-2.7663,-2.7229,-2.7229,-2.7175,-2.7228,-2.7201,-2.7215,-2.7268,-2.7215,-2.7201,-2.7228,-2.7201,-2.7335,-2.7615,-2.7642,-2.7816,-2.8181,-2.8221,-2.8221,-2.8221,-2.8221,-2.8221,-2.8221,-2.8221,-2.8221,-2.8221,-2.8221,-2.8221,-2.8221,0.0,0.0,0.0,0.0,0.0,0.0,0.0,0.0,0.0,0.0,0.0,0.0,0.0,0.0,0.0,0.0,0.0,0.0,0.0,0.0,-2.5607,-2.6194,-2.7609,-2.8666,-2.9341,-3.0759,-3.1404,-3.1146,-3.1501,-3.1445,-3.1055,-3.1816,-3.2229,-3.2248,-3.2598,-3.2559,-3.2209,-3.1797,-3.1406,-3.1055,-3.1387,-3.1328,-3.1055,-3.1387,-3.0976,0.0,0.0,0.0,0.0,0.0,0.0,0.0,-2.9707,-2.8899,-2.7646,-2.7393,-2.6976,-2.6267,0.0,-2.5186,0.0,0.0,-2.6632,-2.77,-2.8739,-2.9237,-2.9515,-2.9661,-3.0129,-3.0466,-3.0276,-3.0269,-3.0167,-2.9895,-2.9983,-3.0042,-3.0064,-3.0049,-2.9939,-2.9866,-2.9632,-2.9588,-2.9837,-2.9326,-2.8762,-2.8425,-2.7699,-2.7127,-2.6724,-2.6397,-2.644,-2.6907,-2.6694,-2.68,-2.7268,-2.6814,-2.6694,-2.6907,-2.668,-2.6734,-2.7014,-2.7255,-2.7522,-2.7802,-2.8127,-2.8221,-2.8221,-2.8221,-2.8221,-2.8221,-2.8221,-2.8221,-2.8221,-2.8221,-2.8221,-2.8221,0.0,0.0,0.0,0.0,0.0,0.0,0.0,0.0,0.0,0.0,0.0,0.0,0.0,0.0,0.0,0.0,0.0,0.0,0.0,0.0,-2.5766,-2.7234,-2.8709,-2.9754,-3.0302,-3.089,-3.1211,-3.1211,-3.1211,-3.1113,-3.0918,-3.1758,-3.2229,-3.2268,-3.2812,-3.2754,-3.2148,-3.1934,-3.1582,-3.123,-3.166,-3.1562,-3.1211,-3.1426,-3.0976,-3.0176,-2.9961,0.0,0.0,0.0,0.0,0.0,0.0,0.0,-2.7864,-2.7322,-2.6762,0.0,0.0,0.0,0.0,-2.6349,0.0,-2.8359,-2.9003,-2.9266,-2.9427,-2.9573,-3.0012,-3.032,-3.0225,-3.0196,-3.0056,-2.9895,-2.9734,-2.9632,-2.9632,-2.95,-2.9339,-2.9193,-2.9032,-2.893,-2.8944,-2.8409,-2.8003,-2.7845,-2.7291,-2.6757,-2.6375,-2.613,-2.6111,-2.6186,-2.6186,-2.6266,-2.6426,-2.64,-2.6319,-2.6199,-2.6333,-2.6466,-2.6627,-2.7068,-2.7348,-2.7495,-2.7655,-2.7802,-2.7936,-2.7936,-2.81,-2.8221,-2.8221,-2.8221,-2.8221,-2.8221,-2.8221,-2.8221,0.0,0.0,0.0,0.0,0.0,0.0,0.0,0.0,0.0,0.0,0.0,0.0,0.0,0.0,0.0,0.0,0.0,0.0,0.0,0.0,0.0,-2.8062,-2.9412,-3.0384,-3.1063,-3.1034,-3.0996,-3.0996,-3.0918,-3.0937,-3.1016,-3.1797,-3.2268,-3.2305,-3.293,-3.2812,-3.2209,-3.2012,-3.1738,-3.1445,-3.1797,-3.1738,-3.1406,-3.1406,-3.0898,-3.0156,-2.9805,-2.9629,-2.9626,0.0,0.0,0.0,0.0,0.0,-2.8352,-2.7335,-2.6456,0.0,0.0,0.0,-2.5508,-2.6704,-2.7642,0.0,-2.8651,-2.8988,-2.9295,-2.9559,-2.9749,-2.9851,-2.9793,-2.9778,-2.9764,-2.9705,-2.9471,-2.9281,-2.9222,-2.8988,-2.8695,-2.8311,-2.8282,-2.8165,-2.7903,-2.7571,-2.7316,-2.7334,-2.6791,-2.6412,-2.6123,-2.5971,-2.5769,-2.5504,-2.5758,-2.5758,-2.5518,-2.5999,-2.5999,-2.5518,-2.6052,-2.6319,-2.6333,-2.6867,-2.7148,-2.7188,-2.7241,-2.7428,-2.7696,-2.7696,-2.7869,-2.8221,-2.8221,-2.8221,-2.8221,-2.8221,-2.8221,-2.8221,0.0,0.0,0.0,0.0,0.0,0.0,0.0,0.0,0.0,0.0,-2.3728,-2.3728,0.0,0.0,0.0,0.0,0.0,0.0,0.0,0.0,0.0,-2.8429,-2.8681,-2.9026,-2.9501,-3.074,-3.1426,-3.1426,-3.1074,-3.1074,-3.1445,-3.1934,-3.2363,-3.2695,-3.2441,-3.2266,-3.2129,-3.1387,-3.1035,-3.0976,-3.1035,-3.1035,-3.0976,-3.0976,-3.0644,-3.0195,-3.0137,-2.9883,-2.9626,-2.9626,-2.9626,0.0,0.0,0.0,-2.9373,-2.8163,0.0,0.0,0.0,0.0,-2.6088,0.0,-2.7305,-2.7686,0.0,0.0,-2.8578,0.0,-2.9281,-2.9778,-2.95,-2.9442,-2.9354,-2.9061,-2.8988,-2.8871,-2.8593,-2.852,-2.8373,-2.7976,-2.7947,-2.7917,-2.7874,-2.7571,-2.7381,-2.748,-2.642,-2.5957,-2.6168,-2.5582,-2.5326,-2.5504,-2.5545,-2.5558,-2.5518,-2.5585,-2.5585,-2.5518,-2.5852,-2.6012,-2.6026,-2.636,-2.664,-2.6894,-2.7148,-2.7428,-2.7696,-2.7696,-2.7869,-2.8221,-2.8221,-2.8221,-2.8221,-2.8221,-2.8221,-2.8221,0.0,0.0,0.0,0.0,0.0,0.0,0.0,0.0,0.0,0.0,0.0,-2.4162,0.0,0.0,0.0,0.0,0.0,0.0,0.0,0.0,0.0,-2.9404,-2.9702,-3.0077,-3.0489,-3.0951,-3.1172,-3.1172,-3.0976,-3.1348,0.0,-3.2422,-3.2617,-3.2793,-3.2598,-3.2383,-3.219,-3.1504,-3.1113,-3.0918,-3.1152,-3.125,-3.1211,-3.0976,-3.0918,-3.0879,-3.0371,-3.0254,-3.0312,-3.0312,-3.0312,-3.0351,-3.0527,0.0,0.0,0.0,0.0,0.0,-2.5587,-2.5577,-2.59,0.0,-2.71,-2.751,-2.7656,0.0,-2.8093,-2.8093,-2.8505,-2.8856,-2.9061,-2.8812,-2.8593,-2.8637,-2.833,-2.811,-2.8078,-2.8008,-2.7847,-2.77,-2.7686,-2.7613,-2.7437,-2.71,-2.6939,-2.7203,-2.6369,-2.5828,-2.5982,-2.5417,-2.5114,-2.5024,-2.5184,-2.5184,-2.5024,-2.5344,-2.5518,-2.5518,-2.5478,-2.5638,-2.6037,-2.6092,-2.6306,-2.6587,-2.672,-2.7028,-2.7455,-2.7455,-2.7722,-2.8221,-2.8221,-2.8221,-2.8221,-2.8221,-2.8221,-2.8221,0.0,0.0,0.0,0.0,0.0,0.0,0.0,0.0,0.0,0.0,0.0,0.0,0.0,0.0,0.0,0.0,0.0,0.0,0.0,0.0,0.0,-2.9938,-3.0329,-3.0663,-3.0972,-3.0918,-3.0898,-3.0898,0.0,0.0,-3.2793,-3.291,-3.3066,-3.3262,-3.3047,-3.2715,-3.2285,-3.1738,-3.1406,-3.123,-3.1426,-3.1523,-3.1504,-3.1289,-3.1406,-3.1582,-3.0801,-3.0762,-3.1035,-3.0918,-3.0898,-3.0898,-3.0898,-3.0392,0.0,0.0,0.0,0.0,0.0,0.0,-2.5213,-2.5959,-2.65,-2.691,0.0,0.0,-2.77,0.0,-2.7773,-2.7993,-2.8549,-2.8271,-2.7961,-2.8195,-2.7905,-2.7656,-2.7803,-2.7554,-2.7349,-2.7349,-2.7276,-2.7159,-2.7013,-2.6764,-2.6662,-2.6823,-2.6243,-2.5779,-2.5639,-2.5299,-2.4931,-2.4636,-2.485,-2.4863,-2.4562,-2.5077,-2.5291,-2.5291,-2.5224,-2.5424,-2.5852,-2.5999,-2.6186,-2.6386,-2.6386,-2.668,-2.7148,-2.7148,-2.7455,-2.8006,-2.8087,-2.803,-2.8043,-2.8194,-2.8221,-2.8221,0.0,0.0,0.0,0.0,0.0,0.0,0.0,0.0,0.0,0.0,0.0,0.0,0.0,-2.5639,-2.625,-2.6067,0.0,0.0,0.0,0.0,0.0,-2.945,-2.9431,0.0,-2.9509,-3.0411,-3.0898,0.0,0.0,0.0,-3.2812,-3.3203,-3.3828,-3.457,-3.375,-3.3164,-3.2715,-3.1875,-3.1738,-3.207,-3.168,-3.1523,-3.1562,-3.1953,-3.217,-3.207,-3.1621,-3.1465,-3.1426,-3.1035,-3.0898,-3.0898,-3.0898,-3.084,-3.0587,0.0,0.0,0.0,0.0,-2.3676,0.0,-2.4958,0.0,0.0,0.0,0.0,0.0,-2.7042,-2.7291,-2.7598,-2.7934,-2.7888,-2.7874,-2.7903,-2.7874,-2.7832,-2.7539,-2.7217,-2.7013,-2.7013,-2.6749,-2.6676,-2.6969,-2.6969,-2.6823,-2.6473,-2.6005,-2.5639,-2.5226,-2.4857,-2.4636,-2.4636,-2.4649,-2.4649,-2.4636,-2.4663,-2.4676,-2.469,-2.5237,-2.5504,-2.5558,-2.6106,-2.6373,-2.6386,-2.6386,-2.656,-2.6841,-2.6841,-2.7028,-2.7335,-2.7615,-2.7722,-2.7749,-2.8043,-2.8221,-2.8221,0.0,0.0,0.0,0.0,0.0,0.0,0.0,0.0,0.0,0.0,0.0,0.0,0.0,-2.6537,-2.7203,-2.7323,-2.7864,0.0,0.0,0.0,0.0,-3.0352,-3.0911,-3.095,-3.0352,-3.0976,-3.1152,0.0,0.0,-3.1699,-3.2812,-3.3223,-3.3887,-3.4668,-3.4101,-3.3594,-3.3144,-3.2285,-3.2031,-3.2209,-3.1992,-3.209,-3.2324,-3.2207,-3.2344,-3.248,-3.1777,-3.1523,-3.1504,-3.1348,-3.1113,-3.0898,-3.0898,-3.0898,-3.0528,0.0,0.0,0.0,0.0,0.0,0.0,-2.4554,-2.4973,-2.5169,-2.5608,-2.6047,-2.6369,-2.6369,-2.6457,-2.6647,-2.6954,-2.7027,-2.7086,-2.7305,-2.7159,-2.6983,-2.6866,-2.6939,-2.6983,-2.6983,-2.6881,-2.6794,-2.6604,-2.6648,-2.6619,-2.6371,-2.5836,-2.5517,-2.558,-2.4931,-2.4636,-2.4636,-2.4636,-2.4636,-2.4636,-2.4636,-2.4636,-2.4562,-2.485,-2.505,-2.5237,-2.5451,-2.5758,-2.6106,-2.6106,-2.6386,-2.6827,-2.6827,-2.7001,-2.7281,-2.7375,-2.7535,-2.7709,-2.7816,-2.7976,-2.8221,0.0,0.0,0.0,0.0,0.0,0.0,0.0,0.0,0.0,0.0,0.0,0.0,0.0,0.0,-2.796,-2.8643,-2.9576,-3.0301,-3.0778,-3.1358,-3.1621,-3.1328,-3.1875,-3.1836,-3.1113,-3.1367,0.0,0.0,0.0,0.0,0.0,-3.3164,-3.3887,-3.4687,-3.4258,-3.4082,0.0,-3.3164,-3.2812,-3.2793,-3.2656,-3.2754,-3.3008,-3.3008,-3.3105,-3.3125,-3.2422,-3.207,-3.1934,-3.1777,-3.1543,-3.1289,-3.1152,-3.0703,-2.9804,-2.7547,0.0,0.0,-2.3747,0.0,0.0,0.0,0.0,-2.4701,-2.5242,0.0,-2.5886,-2.5988,-2.6193,-2.6413,-2.6632,-2.6574,-2.6603,-2.6939,-2.672,-2.6544,-2.6647,-2.6764,-2.6866,-2.6983,-2.6896,-2.675,-2.646,-2.6576,-2.6561,-2.6228,-2.5666,-2.5405,-2.5566,-2.491,-2.4529,-2.4636,-2.4636,-2.4636,-2.4636,-2.4636,-2.4636,-2.4636,-2.473,-2.489,-2.5077,-2.5184,-2.5491,-2.6037,-2.6037,-2.6226,-2.668,-2.668,-2.6787,-2.6987,-2.7081,-2.7228,-2.7428,-2.7629,-2.7829,-2.8003,0.0,0.0,0.0,0.0,0.0,0.0,0.0,0.0,0.0,-2.6006,0.0,0.0,0.0,0.0,0.0,-3.0046,-3.1005,-3.1738,-3.2168,-3.2248,-3.2187,-3.2229,0.0,0.0,0.0,0.0,0.0,0.0,0.0,0.0,0.0,0.0,-3.3848,-3.4648,-3.4258,-3.457,-3.5293,-3.4394,-3.4043,-3.4043,-3.3594,-3.3437,-3.3555,-3.4375,-3.4453,-3.4043,-3.3594,-3.3184,-3.2773,-3.2363,-3.2268,-3.2109,-3.166,-3.0322,-2.8498,-2.6294,-2.5378,0.0,0.0,0.0,0.0,0.0,0.0,0.0,-2.487,0.0,-2.5579,-2.59,-2.6486,-2.6925,-2.6939,-2.6691,-2.6574,-2.691,-2.6705,-2.6603,-2.6925,-2.6705,-2.6617,-2.6925,-2.6676,-2.6486,-2.6414,-2.6778,-2.6677,-2.5927,-2.5539,-2.5319,-2.5185,-2.4574,-2.4342,-2.4623,-2.4636,-2.4636,-2.4636,-2.4636,-2.4636,-2.4562,-2.493,-2.5064,-2.5077,-2.5358,-2.5651,-2.601,-2.601,-2.6106,-2.6373,-2.6386,-2.6386,-2.6413,-2.6694,-2.6814,-2.6894,-2.7468,-2.7696,-2.7749,0.0,0.0,0.0,0.0,0.0,0.0,0.0,0.0,0.0,0.0,0.0,0.0,-2.9402,-3.0705,-3.1612,-3.1992,-3.2319,-3.25,-3.2617,-3.2617,-3.248,-3.2187,-3.2754,-3.2734,-3.2012,0.0,0.0,0.0,0.0,0.0,0.0,0.0,0.0,0.0,-3.4297,-3.4492,-3.4355,-3.3184,-3.3223,-3.4043,-3.3594,-3.3789,-3.4375,-3.4609,-3.4629,-3.4473,-3.4043,-3.3809,-3.3691,-3.3594,-3.3144,-3.25,-3.1758,-2.9707,-2.7444,-2.6779,-2.5194,0.0,-2.323,0.0,0.0,0.0,0.0,0.0,0.0,0.0,-2.4569,-2.4905,-2.511,-2.5388,-2.5842,-2.5857,-2.59,-2.6237,-2.6413,-2.6457,-2.631,-2.6413,-2.6457,-2.631,-2.6208,-2.5937,-2.5357,-2.5655,-2.5669,0.0,-2.4788,-2.4687,-2.4985,-2.449,-2.4342,-2.4623,-2.4636,-2.4636,-2.4636,-2.4636,-2.4636,-2.4636,-2.4716,-2.4756,-2.4756,-2.4836,-2.5037,-2.5331,-2.5545,-2.5798,-2.6092,-2.6306,-2.6386,-2.64,-2.648,-2.664,-2.6867,-2.7241,-2.7522,-2.7749,0.0,0.0,0.0,0.0,0.0,0.0,0.0,0.0,0.0,0.0,0.0,0.0,-3.0129,-3.1658,-3.2598,-3.2773,-3.2793,-3.2871,-3.3047,-3.3066,-3.2949,-3.2695,-3.3164,-3.3105,-3.2441,0.0,0.0,0.0,0.0,0.0,0.0,0.0,0.0,0.0,0.0,0.0,0.0,-3.2363,-3.2637,-3.3809,-3.3906,-3.4258,-3.4746,-3.5098,-3.5137,-3.4961,-3.4707,-3.4492,-3.4336,-3.4336,-3.3652,-3.2428,-3.0371,-2.8671,-2.7203,-2.6111,-2.4702,0.0,0.0,0.0,0.0,0.0,0.0,0.0,-2.391,-2.4145,-2.4423,0.0,-2.5081,-2.5286,-2.5666,-2.574,-2.5798,-2.5988,-2.6179,-2.6237,-2.6047,-2.6179,-2.6237,-2.6047,-2.6018,-2.5749,-2.5198,-2.5509,-2.5468,-2.4974,-2.4539,-2.4329,-2.4272,-2.4147,-2.4102,-2.4262,-2.4396,-2.4449,-2.4449,-2.4569,-2.4636,-2.4636,-2.4636,-2.4636,-2.4636,-2.4636,-2.4796,-2.509,-2.5264,-2.5571,-2.605,-2.6146,-2.6279,-2.6386,-2.6386,-2.6493,-2.6694,-2.7108,-2.7375,-2.7575,0.0,0.0,0.0,0.0,0.0,0.0,0.0,0.0,0.0,0.0,-2.8585,-2.8588,-3.0741,-3.1815,-3.2519,-3.2832,-3.291,-3.3066,-3.3398,-3.3418,-3.3418,-3.3418,-3.3418,-3.3242,-3.2871,-3.2871,0.0,0.0,0.0,0.0,0.0,0.0,0.0,0.0,0.0,0.0,0.0,0.0,-3.2324,-3.3418,-3.4238,-3.4648,-3.4863,-3.5703,-3.5781,-3.5469,-3.5469,-3.5195,-3.4844,-3.4785,-3.3836,-3.2147,-2.8846,-2.7909,-2.7548,-2.5165,-2.4378,0.0,0.0,0.0,0.0,-2.3471,-2.3354,0.0,-2.4174,-2.4408,-2.4613,-2.5154,-2.552,-2.5754,-2.5798,-2.5827,-2.5842,-2.5813,-2.5857,-2.5915,-2.5959,-2.5959,-2.5944,-2.5915,-2.5915,-2.5798,-2.5437,-2.567,-2.5574,-2.4939,-2.4496,-2.3969,-2.3327,-2.3581,-2.3741,-2.3768,-2.4022,-2.4168,-2.4209,-2.4462,-2.4609,-2.4636,-2.4636,-2.4636,-2.4636,-2.4636,-2.4783,-2.5037,-2.5064,-2.5371,-2.5943,-2.601,-2.6132,-2.6386,-2.6386,-2.6386,-2.6453,-2.7054,-2.7268,-2.7348,0.0,0.0,0.0,0.0,0.0,0.0,0.0,0.0,0.0,0.0,-3.1715,-3.188,-3.2347,-3.3218,-3.3594,-3.332,-3.3613,-3.3711,-3.3437,-3.3418,-3.3418,-3.3418,-3.3418,-3.3379,-3.3301,-3.3301,-3.3262,0.0,0.0,0.0,0.0,0.0,0.0,0.0,0.0,0.0,0.0,0.0,-3.2695,-3.2969,-3.3457,-3.4316,-3.5312,-3.582,-3.5976,-3.5898,-3.5898,-3.584,-3.5703,-3.5371,-3.3888,-3.2134,-3.1829,-3.0047,-2.7854,-2.6766,-2.5941,-2.5047,-2.3554,-2.3106,-2.312,-2.3179,-2.3354,0.0,-2.3076,-2.3413,-2.3749,-2.3603,-2.3837,-2.4145,-2.4408,-2.4671,-2.4759,-2.4496,-2.4905,-2.533,-2.5593,-2.5622,-2.5535,-2.5271,-2.531,-2.5145,-2.4732,-2.4721,-2.4667,-2.4255,-2.3845,-2.3543,-2.3313,-2.338,-2.3527,-2.3768,-2.3821,-2.3968,-2.4195,-2.4262,-2.4409,-2.4636,-2.4636,-2.4636,-2.4636,-2.4636,-2.4676,-2.473,-2.497,-2.5144,-2.5291,-2.5758,-2.6132,-2.6386,-2.6386,-2.6386,-2.6453,-2.7054,-2.7268,-2.7348,0.0,0.0,0.0,0.0,0.0,0.0,0.0,0.0,0.0,0.0,0.0,-3.3105,-3.3105,-3.3691,-3.3887,-3.3457,-3.3828,-3.3887,-3.3457,-3.3633,-3.3652,-3.3437,-3.3418,-3.3516,-3.375,-3.3535,-3.3535,-3.375,0.0,0.0,0.0,0.0,0.0,0.0,0.0,0.0,0.0,0.0,-3.2207,-3.2871,-3.3711,-3.459,-3.543,-3.5859,-3.6152,-3.6309,-3.6094,-3.6016,-3.5821,-3.4767,-3.3444,-3.2087,-3.0887,-2.9183,-2.7373,-2.6382,-2.5533,-2.4638,-2.3631,-2.323,-2.3106,-2.3106,-2.3237,0.0,0.0,-2.3354,-2.3588,-2.3588,-2.372,-2.3881,-2.4057,-2.4218,-2.4276,-2.4115,-2.4496,-2.4818,-2.4803,-2.5096,-2.5169,-2.4914,-2.5031,-2.4993,-2.4616,-2.4545,-2.4292,-2.3747,-2.3338,-2.3132,-2.3086,-2.31,-2.3166,-2.3383,-2.346,-2.3688,-2.3981,-2.4128,-2.4342,-2.4636,-2.4636,-2.4636,-2.4636,-2.4636,-2.4636,-2.4649,-2.4796,-2.4943,-2.5104,-2.5398,-2.5772,-2.6186,-2.6333,-2.6386,-2.644,-2.6881,-2.7041,-2.7134,0.0,0.0,0.0,0.0,0.0,0.0,0.0,0.0,0.0,0.0,0.0,-3.3574,-3.3652,-3.4062,-3.4219,-3.3945,-3.4238,-3.4258,-3.3828,-3.4043,-3.3965,-3.3437,-3.3418,-3.3594,-3.3945,-3.3594,-3.3555,-3.3828,0.0,0.0,0.0,0.0,0.0,0.0,0.0,0.0,0.0,0.0,0.0,-3.3144,-3.4258,-3.498,-3.543,-3.5859,-3.623,-3.6504,-3.5791,-3.5382,-3.4964,-3.3712,-3.2594,-3.1427,-2.9561,-2.8179,-2.7002,-2.5734,-2.4988,-2.4381,-2.3798,-2.3396,-2.3179,-2.312,-2.3208,-2.331,0.0,0.0,0.0,-2.3779,0.0,0.0,0.0,0.0,0.0,0.0,0.0,0.0,0.0,-2.4423,0.0,-2.451,-2.4701,-2.4855,-2.4583,-2.4401,-2.4099,-2.3475,-2.3011,-2.2806,-2.2928,-2.2928,-2.2928,-2.2928,-2.31,-2.338,-2.3688,-2.3981,-2.4262,-2.4556,-2.4609,-2.4636,-2.4636,-2.4636,-2.4636,-2.4636,-2.4636,-2.477,-2.4997,-2.5064,-2.5398,-2.5905,-2.6186,-2.6333,-2.6426,-2.6707,-2.6827,-2.6907,-2.4874,-2.5073,0.0,0.0,0.0,0.0,0.0,0.0,0.0,0.0,0.0,-3.4141,-3.4512,-3.4961,-3.5371,-3.5703,-3.5762,-3.5625,-3.5195,-3.4824,-3.4258,-3.3457,-3.3418,-3.3437,-3.3496,-3.3437,-3.3262,-3.2949,0.0,0.0,0.0,0.0,0.0,0.0,-3.2129,0.0,0.0,0.0,-3.3105,-3.3965,-3.4492,-3.498,-3.543,-3.5859,-3.6055,-3.5869,-3.4558,-3.3206,-3.2158,-3.2874,-3.1353,-2.9478,-3.0983,-2.9705,-2.7457,-2.6649,-2.6232,-2.5595,-2.4,-2.3545,-2.3471,-2.3179,-2.3545,-2.3749,-2.2915,0.0,-2.3442,-2.2901,0.0,0.0,0.0,0.0,0.0,0.0,0.0,0.0,-2.2871,-2.3603,-2.4174,-2.4145,-2.4174,-2.4291,-2.454,-2.3999,-2.3523,-2.3393,-2.2822,-2.2579,-2.2846,-2.2928,-2.2928,-2.2928,-2.2899,-2.306,-2.338,-2.3674,-2.3968,-2.4249,-2.4516,-2.4636,-2.4636,-2.4636,-2.4636,-2.4636,-2.4636,-2.4649,-2.4703,-2.497,-2.5277,-2.5598,-2.5892,-2.6159,-2.6426,-2.6707,-2.6827,-2.6907,-2.5,-2.5266,0.0,0.0,0.0,0.0,0.0,0.0,0.0,0.0,0.0,-3.4902,-3.5078,-3.5488,-3.582,-3.5996,-3.625,-3.6113,-3.543,-3.5215,-3.4824,-3.418,-3.3691,-3.3652,-3.416,-3.3672,-3.334,-3.3164,-3.291,0.0,0.0,0.0,0.0,0.0,-3.2012,0.0,-3.2891,0.0,-3.3281,0.0,-3.4531,-3.498,-3.543,-3.5859,-3.5451,-3.4646,-3.4316,-3.3036,-3.1561,-3.2018,-3.0669,-2.8954,-2.98,-2.8576,-2.6653,-2.6114,-2.5609,-2.5095,-2.4123,-2.373,-2.3515,-2.3193,-2.3457,-2.3647,-2.3047,-2.312,-2.3237,-2.2959,0.0,0.0,0.0,0.0,0.0,0.0,-2.3208,0.0,0.0,0.0,-2.3333,-2.3522,0.0,0.0,-2.3153,-2.2994,-2.2885,-2.2849,-2.2552,-2.2552,-2.2846,-2.2928,-2.2928,-2.2928,-2.2928,-2.3006,-2.3327,-2.3621,-2.3915,-2.4209,-2.4502,-2.4636,-2.4636,-2.4636,-2.4636,-2.4636,-2.4636,-2.4636,-2.4663,-2.4957,-2.5251,-2.5545,-2.5838,-2.6132,-2.64,-2.6533,-2.6573,-2.6627,-2.4942,0.0,0.0,0.0,0.0,0.0,0.0,0.0,0.0,-3.2224,-3.3993,-3.5198,-3.5278,-3.6122,-3.6777,-3.6875,-3.7402,-3.7266,-3.6152,-3.5976,-3.5605,-3.4922,-3.418,-3.4062,-3.4687,-3.3984,-3.3418,-3.3086,-3.2891,0.0,0.0,0.0,0.0,0.0,0.0,-3.2617,-3.3594,0.0,-3.375,-3.4453,-3.4766,-3.4957,-3.5114,-3.5335,-3.4471,-3.3173,-3.302,-3.1801,-3.0288,-3.0614,-2.9646,-2.8386,-2.8553,-2.7484,-2.605,-2.5614,-2.5122,-2.4535,-2.4208,-2.3927,-2.3632,-2.3208,-2.3354,-2.3515,-2.3179,-2.3179,-2.3223,-2.3135,-2.3179,0.0,0.0,0.0,0.0,0.0,0.0,-2.3427,0.0,-2.262,0.0,0.0,0.0,0.0,0.0,-2.2257,-2.2372,-2.2271,-2.2298,-2.2432,-2.2726,-2.2819,-2.2928,-2.2928,-2.2928,-2.2966,-2.3193,-2.3581,-2.3875,-2.4088,-2.4462,-2.4636,-2.4636,-2.4636,-2.4636,-2.4636,-2.4636,-2.469,-2.477,-2.4997,-2.5304,-2.5651,-2.5865,-2.6132,-2.6386,-2.6386,-2.644,-2.6547,-2.4943,-2.6229,0.0,0.0,0.0,0.0,0.0,-3.1166,-3.1866,-3.1573,-3.3369,-3.4795,-3.4971,-3.7143,-3.8652,-3.9062,-3.9902,-3.9668,-3.7949,-3.7461,-3.668,-3.543,-3.4922,-3.4668,-3.4707,-3.4277,-3.3457,-3.2268,-3.2598,0.0,0.0,0.0,0.0,0.0,-3.3379,-3.3613,-3.4082,-3.4473,-3.4922,-3.5351,-3.5371,-3.4998,-3.4296,-3.3969,-3.2927,-3.1367,-2.9894,-2.8403,-2.7303,-2.8373,-2.7965,-2.7206,-2.7984,-2.7217,-2.5996,-2.5697,-2.5152,-2.4547,-2.4224,-2.4071,-2.391,-2.3267,-2.3354,-2.3515,-2.3179,-2.3354,-2.3486,-2.3179,-2.3354,-2.3486,-2.3164,0.0,0.0,0.0,0.0,0.0,0.0,0.0,0.0,0.0,0.0,0.0,0.0,-2.213,-2.2073,-2.2043,-2.2004,-2.2124,-2.2418,-2.2712,-2.2928,-2.2928,-2.2928,-2.2928,-2.2873,-2.3474,-2.3768,-2.3794,-2.4369,-2.4636,-2.4636,-2.4636,-2.4636,-2.4636,-2.4636,-2.4796,-2.5064,-2.5077,-2.5424,-2.6023,-2.6037,-2.6132,-2.6386,-2.6386,-2.656,-2.6854,-2.5348,0.0,0.0,-2.6464,-2.6869,-2.78,-2.9148,-3.0685,-3.2289,-3.4051,-3.5737,-3.73,-3.8506,-3.9365,-4.0039,-4.0469,-4.0508,-4.0019,-3.8848,-3.7851,-3.7109,-3.668,-3.5703,-3.5293,-3.5566,-3.4863,-3.4004,-3.3008,-3.2871,0.0,0.0,0.0,0.0,0.0,0.0,-3.3828,0.0,0.0,0.0,0.0,0.0,-3.3258,-3.39,-3.2997,-3.1719,-3.0305,-2.9449,-2.8259,-2.7012,-2.7176,-2.6843,-2.6369,-2.6405,-2.611,-2.5725,-2.536,-2.5248,-2.5197,-2.4826,-2.473,-2.4569,-2.391,-2.3837,-2.3779,-2.3237,-2.3354,-2.3559,-2.3457,-2.3691,-2.3823,-2.3486,0.0,0.0,0.0,0.0,0.0,0.0,0.0,0.0,0.0,0.0,0.0,0.0,0.0,-2.1504,-2.1735,-2.1762,-2.1911,-2.2392,-2.2512,-2.2659,-2.2928,-2.2928,-2.2928,-2.2928,-2.346,-2.3768,-2.3781,-2.4356,-2.4636,-2.4636,-2.4636,-2.4636,-2.4649,-2.4836,-2.4983,-2.5104,-2.5504,-2.5849,-2.605,-2.6172,-2.6306,-2.6386,-2.6386,-2.6453,-2.6573,-2.5725,-2.6588,-2.7035,-2.6398,-2.6706,-2.7421,-2.871,-3.0947,-3.2968,-3.4001,-3.6463,-3.8383,-3.8857,-4.0163,-4.1094,-4.1367,-4.1426,-4.0801,-3.9297,-3.873,-3.8164,-3.7539,-3.6738,-3.6348,-3.6465,-3.5762,-3.4824,-3.3652,-3.3691,-3.3633,0.0,0.0,0.0,0.0,0.0,-3.4336,-3.4746,-3.5351,-3.4708,0.0,0.0,-3.16,-3.2421,-3.1003,-3.0472,-3.0233,-2.8891,-2.7765,-2.6778,-2.6574,-2.629,-2.5958,-2.5633,-2.5514,-2.5472,-2.5158,-2.5255,-2.539,-2.5187,-2.5031,-2.4855,-2.4364,-2.4174,-2.394,-2.3398,-2.3618,-2.3881,-2.3519,-2.3787,-2.3948,-2.3486,-2.3228,0.0,0.0,0.0,0.0,0.0,-2.0731,0.0,0.0,0.0,0.0,0.0,-2.0909,-2.1042,-2.1293,-2.14,-2.1603,-2.2084,-2.2311,-2.2552,-2.2914,-2.2928,-2.2928,-2.2928,-2.346,-2.3768,-2.3781,-2.4356,-2.4636,-2.4636,-2.4636,-2.4636,-2.4649,-2.4957,-2.5144,-2.5277,-2.5758,-2.609,-2.6132,-2.6319,-2.6386,-2.6386,-2.6386,-2.6453,-2.6573,-2.6139,-2.5899,-2.5959,-2.6615,-2.7791,-2.8741,-2.8976,-3.1972,-3.3671,-3.1923,-3.5797,-3.8083,-3.6666,-3.9715,-4.1894,-4.1894,-4.2617,-4.2012,-3.9492,-4.0078,-3.9766,-3.8086,-3.7988,-3.7702,-3.7293,-3.6914,-3.5859,-3.4096,-3.4961,0.0,0.0,0.0,0.0,0.0,-3.509,0.0,-3.47,-3.551,-3.4952,-3.336,-3.0852,-3.0008,-3.0129,-2.8333,-2.9177,-3.1014,-2.8057,-2.6778,-2.65,-2.6486,-2.6266,-2.593,-2.5608,-2.5505,-2.5447,-2.5169,-2.5163,-2.5178,-2.5178,-2.4876,-2.4627,-2.4598,-2.4349,-2.4027,-2.3691,-2.4115,-2.4261,-2.3329,-2.3652,-2.3855,-2.3173,-2.3049,0.0,0.0,0.0,0.0,0.0,0.0,-2.0167,-2.0193,0.0,0.0,0.0,-2.0855,-2.0695,-2.0695,-2.0949,-2.1243,0.0,-2.2084,-2.2539,-2.2832,-2.2928,-2.2928,-2.2928,-2.346,-2.3768,-2.3781,-2.4356,-2.4636,-2.4636,-2.4636,-2.4636,-2.4649,-2.497,-2.5251,-2.5518,-2.5838,-2.6132,-2.6373,-2.6386,-2.6386,-2.6386,-2.6386,-2.6573,-2.6814,-2.6568,-2.7118,-2.7498,-2.7108,-2.7758,-2.8926,-3.0626,-3.2329,-3.4467,-3.7315,-3.8744,-4.0088,-4.158,-4.2659,-4.3223,-4.3223,-4.3125,-4.2519,-4.1211,-4.0742,-4.0176,-3.9414,-3.8769,-3.7832,-3.6531,-3.6624,-3.572,-3.3712,-3.448,0.0,-3.4687,0.0,0.0,0.0,0.0,0.0,-3.3425,-3.35,-3.2489,-3.0766,-2.9202,-2.8956,-2.9466,-2.8075,-2.8541,-2.952,-2.7695,-2.6778,-2.6471,-2.6222,-2.593,-2.5593,-2.5271,-2.5183,-2.5213,-2.5359,-2.5579,-2.5769,-2.5769,-2.571,-2.5535,-2.5052,-2.4686,-2.4298,-2.3703,-2.3868,-2.398,-2.3492,-2.3704,-2.3856,-2.3112,-2.2827,-2.2503,0.0,0.0,0.0,0.0,0.0,-2.0067,-2.0508,-2.0361,-2.0468,-2.1056,-2.1042,-2.1002,-2.1002,-2.1069,-2.1243,-2.1601,-2.1897,-2.2231,-2.2525,-2.2752,-2.2928,-2.2928,-2.346,-2.3768,-2.3781,-2.4356,-2.4636,-2.4636,-2.4636,-2.4636,-2.4663,-2.5184,-2.5317,-2.5251,-2.5972,-2.6199,-2.6092,-2.6306,-2.6386,-2.6386,-2.6386,-2.6573,-2.6787,-2.6641,-2.7492,-2.8019,-2.753,-2.8276,-2.9791,-3.2053,-3.2985,-3.4703,-3.8217,-3.8527,-3.9003,-4.0335,-4.1673,-4.2178,-4.1388,-4.1699,-4.1141,-3.9308,-3.9625,-3.9603,-3.8823,-3.85,-3.7709,-3.6514,-3.5741,-3.4646,-3.3178,-3.3942,0.0,-3.4232,0.0,0.0,0.0,0.0,-3.3311,-3.2084,-3.1618,-3.0913,-2.9954,-2.8315,-2.8029,0.0,-2.7685,-2.7719,-2.8099,-2.7112,-2.6574,-2.6237,-2.5915,-2.5593,-2.5286,-2.5178,-2.5119,-2.5163,-2.5271,-2.5461,-2.5652,-2.5944,-2.5813,-2.5579,-2.5491,-2.4989,-2.4486,-2.4101,-2.4009,-2.3969,-2.3686,-2.3728,-2.366,-2.3187,-2.2668,-2.2097,0.0,0.0,0.0,-2.0254,-1.9987,-1.9973,-2.0428,-2.0561,-2.0695,-2.0895,-2.0802,-2.0668,-2.0548,-2.0655,-2.0802,-2.0962,-2.1617,-2.2058,-2.2218,-2.2645,-2.2926,-2.306,-2.3541,-2.3834,-2.3968,-2.4422,-2.4636,-2.4636,-2.4636,-2.4636,-2.4663,-2.5117,-2.5304,-2.5317,-2.5945,-2.6186,-2.6159,-2.6319,-2.6386,-2.6386,-2.6386,-2.6493,-2.6613,-2.6454,-2.7393,-2.8039,-2.7664,-2.9123,-3.1006,-3.3085,-3.3608,-3.4631,-3.7008,-3.7161,-3.7073,-3.724,-3.9681,-4.0698,-3.902,-4.0065,-3.9559,-3.6471,-3.8088,-3.8615,-3.7172,-3.7408,-3.7131,-3.6236,-3.4511,-3.3152,-3.2216,-3.3071,0.0,0.0,0.0,0.0,0.0,0.0,0.0,0.0,-2.988,-2.9725,-2.9818,-2.785,-2.7281,-2.746,-2.7105,-2.6892,-2.6881,-2.6515,-2.6222,-2.5974,-2.5637,-2.5315,-2.5134,-2.5178,-2.5163,-2.5134,-2.5154,-2.5222,-2.5257,-2.5857,-2.5608,-2.5301,-2.5758,-2.519,-2.4549,-2.45,-2.4242,-2.3884,-2.3884,-2.3607,-2.3377,-2.3182,-2.2592,-2.1896,0.0,0.0,-2.0454,-2.0414,-2.0187,-2.012,-2.0374,-2.0855,0.0,-2.0762,-2.0494,-2.0214,-1.988,-2.0094,-2.0193,-2.0294,-2.1336,-2.1951,-2.1991,-2.2619,-2.3006,-2.3327,-2.3621,-2.3915,-2.4209,-2.4502,-2.4636,-2.4636,-2.4636,-2.4636,-2.4649,-2.4957,-2.5197,-2.5424,-2.5798,-2.6132,-2.6386,-2.6386,-2.6386,-2.6386,-2.6386,-2.6386,-2.6386,-2.6223,-2.733,-2.8028,-2.7347,-2.9601,-3.1845,-3.267,-3.3097,-3.4643,-3.8254,-3.8601,-3.9479,-4.2087,-4.2895,-4.2977,-4.2283,-4.2534,-4.1504,-3.8813,-3.8992,-3.8293,-3.6303,-3.5963,-3.5004,-3.3326,-3.3196,-3.2231,-3.0195,-3.1388,0.0,0.0,0.0,0.0,0.0,0.0,0.0,-2.8324,-2.8451,0.0,-2.7687,-2.7553,-2.7341,-2.7075,-2.6744,-2.6616,-2.6515,-2.5915,-2.5842,-2.5974,-2.5637,-2.5315,-2.5178,-2.5359,-2.5271,-2.5222,-2.5696,-2.5652,-2.5535,-2.5915,-2.593,-2.5743,-2.5305,-2.5051,-2.4742,-2.4224,-2.3774,-2.3475,-2.3475,-2.3229,-2.2875,-2.2605,-2.2284,-2.1882,-2.1588,-2.159,-2.159,-2.1413,-2.1283,-2.1333,-2.1373,-2.148,-2.1363,-2.1069,-2.0989,-2.0735,-2.0201,-2.014,-2.0334,-2.0588,-2.1256,-2.1802,-2.1977,-2.2619,-2.3006,-2.3327,-2.3621,-2.3915,-2.4209,-2.4502,-2.4636,-2.4636,-2.4636,-2.4636,-2.4649,-2.4957,-2.497,-2.485,-2.5638,-2.6132,-2.6386,-2.6386,-2.6386,-2.6386,-2.6386,-2.6386,-2.6386,-2.633,-2.7039,-2.7631,-2.7583,-2.9084,-3.0653,-3.1635,-3.2196,-3.3632,-3.6916,-3.6174,-3.6038,-3.8198,-3.9077,-3.9289,-3.8883,-3.8754,-3.7988,-3.6529,-3.6307,-3.5713,-3.4717,-3.4471,-3.3805,-3.2555,-3.1635,-3.0688,-2.9628,-2.9872,-3.0174,0.0,0.0,0.0,0.0,0.0,-2.7701,0.0,0.0,-2.7393,-2.7145,-2.7212,-2.7082,-2.6715,-2.6572,-2.6398,-2.6193,-2.571,-2.5637,-2.571,-2.5388,-2.5183,-2.5149,-2.5242,-2.5286,-2.533,-2.5476,-2.552,-2.5564,-2.5725,-2.5637,-2.5451,-2.512,-2.4716,-2.4422,-2.4062,-2.3543,-2.3242,-2.3612,-2.3376,-2.3006,-2.2699,-2.2285,-2.1937,-2.1804,-2.1643,-2.1537,-2.1614,-2.1416,-2.1323,-2.1323,-2.1456,-2.144,-2.0935,-2.1029,-2.0802,-2.0067,-2.0294,-2.0454,-2.0441,-2.1296,-2.1844,-2.1977,-2.2712,-2.3247,-2.3554,-2.3848,-2.4142,-2.4436,-2.4569,-2.4636,-2.4636,-2.4636,-2.4636,-2.4649,-2.4783,-2.485,-2.493,-2.5651,-2.6132,-2.6386,-2.6386,-2.6386,-2.6386,-2.6386,-2.6386,-2.6386,-2.6705,-2.6969,-2.7379,-2.8059,-2.8721,-2.9433,-3.0536,-3.1292,-3.2744,-3.5377,-3.3881,-3.303,-3.4327,-3.5338,-3.5746,-3.529,-3.5084,-3.4626,-3.3873,-3.3587,-3.3265,-3.2854,-3.287,-3.2542,-3.1935,-3.0246,-2.9282,-2.9132,-2.8523,-2.8623,-2.9311,0.0,0.0,0.0,0.0,-2.6677,-2.826,-2.7366,-2.6952,-2.684,-2.6894,-2.6691,-2.6398,-2.6325,-2.6135,-2.5871,-2.5549,-2.5432,-2.5388,-2.514,-2.5119,-2.5134,-2.5207,-2.5286,-2.5388,-2.5213,-2.5286,-2.5447,-2.5505,-2.5344,-2.5145,-2.5048,-2.4507,-2.4064,-2.4064,-2.3502,-2.3184,-2.3829,-2.3687,-2.3313,-2.2926,-2.2539,-2.2231,-2.2098,-2.175,-2.1563,-2.1869,-2.1683,-2.1537,-2.1403,-2.1657,-2.1641,-2.0985,-2.1069,-2.0869,-2.0054,-2.0361,-2.0535,-2.0428,-2.1363,-2.1951,-2.2071,-2.2886,-2.3474,-2.3768,-2.4062,-2.4342,-2.4636,-2.4636,-2.4636,-2.4636,-2.4636,-2.4636,-2.4636,-2.4636,-2.4836,-2.5211,-2.5665,-2.6066,-2.6386,-2.6386,-2.6386,-2.6386,-2.6386,-2.6386,-2.6386,-2.7335,-2.7642,-2.8052,-2.8729,-2.9404,-2.9888,-2.9976,-3.0978,-3.2734,-3.5224,-3.5065,-3.5402,-3.7233,-3.7281,-3.699,-3.6515,-3.6464,-3.5557,-3.359,-3.3444,-3.2705,-3.115,-3.1067,-3.0757,-3.0188,-2.9624,-2.8832,-2.7703,-2.7371,-2.6758,-2.6041,0.0,0.0,-2.6172,-2.6084,-2.6178,-2.6366,-2.6559,-2.6413,-2.6161,-2.6413,-2.6354,-2.6032,-2.574,-2.5608,-2.5535,-2.5213,-2.5163,-2.5163,-2.5134,-2.5119,-2.511,-2.5403,-2.5315,-2.5154,-2.5418,-2.5301,-2.5169,-2.5447,-2.5505,-2.5353,-2.5106,-2.4677,-2.4372,-2.4372,-2.3761,-2.3437,-2.4086,-2.4012,-2.3554,-2.3035,-2.3046,-2.302,-2.2472,-2.2552,-2.2712,-2.2807,-2.2953,-2.2913,-2.2365,-2.2552,-2.2472,-2.1614,-2.1561,-2.132,-2.0641,-2.0401,-2.0494,-2.1002,-2.139,-2.183,-2.2365,-2.2993,-2.3474,-2.3768,-2.4062,-2.4342,-2.4636,-2.4636,-2.4636,-2.4636,-2.4636,-2.4636,-2.4636,-2.4636,-2.4957,-2.5478,-2.5531,-2.5879,-2.6386,-2.6386,-2.6386,-2.6386,-2.6386,-2.6386,-2.6386,-2.83,-2.8042,-2.8183,-2.9325,-2.929,-2.9514,-3.0612,-3.1168,-3.1922,-3.3127,-3.3334,-3.3639,-3.44,-3.4361,-3.4472,-3.4981,-3.402,-3.338,-3.3378,-3.2458,-3.155,-3.0817,-3.0642,-3.032,-2.9866,-2.9354,-2.8857,-2.8397,-2.7263,-2.6737,-2.6811,-2.5743,-2.518,-2.5226,-2.5226,-2.539,-2.5756,-2.5874,-2.5981,-2.6032,-2.6164,-2.6018,-2.571,-2.5579,-2.5418,-2.5227,-2.5178,-2.5119,-2.5119,-2.5119,-2.5119,-2.5149,-2.5213,-2.5286,-2.533,-2.5271,-2.5286,-2.533,-2.5257,-2.5388,-2.5397,-2.5051,-2.4833,-2.4624,-2.4399,-2.3934,-2.3705,-2.3954,-2.391,-2.3754,-2.3688,-2.3327,-2.3033,-2.2966,-2.2752,-2.2659,-2.2832,-2.2966,-2.2832,-2.2231,-2.2258,-2.2124,-2.1668,-2.139,-2.1336,-2.1456,-2.1029,-2.0855,-2.1096,-2.155,-2.2004,-2.2405,-2.318,-2.3647,-2.3768,-2.4235,-2.4516,-2.4636,-2.4636,-2.4636,-2.4636,-2.4636,-2.4636,-2.4636,-2.4636,-2.4877,-2.5264,-2.5438,-2.5758,-2.6146,-2.6319,-2.6386,-2.6386,-2.6386,-2.6386,-2.6386,-2.9123,-2.8755,-2.8712,-2.9722,-2.9377,-2.9382,-3.0603,-3.0747,-3.0863,-3.1266,-3.1512,-3.1729,-3.2002,-3.1915,-3.2178,-3.2943,-3.1825,-3.1554,-3.2556,-3.1467,-3.0773,-3.0685,-3.0466,-3.024,-2.9734,-2.9178,-2.889,-2.8834,-2.7341,-2.6849,-2.7152,-2.5402,-2.4656,-2.4782,-2.4782,-2.5022,-2.5535,-2.5535,-2.5666,-2.5871,-2.5871,-2.5681,-2.5388,-2.5388,-2.5242,-2.5119,-2.5119,-2.5119,-2.5134,-2.5169,-2.5207,-2.5119,-2.5119,-2.5271,-2.5491,-2.5257,-2.5359,-2.5505,-2.5374,-2.5432,-2.5411,-2.5166,-2.5003,-2.4833,-2.449,-2.4106,-2.3768,-2.3768,-2.3768,-2.3808,-2.3928,-2.342,-2.3046,-2.3166,-2.2832,-2.2619,-2.2901,-2.2939,-2.2779,-2.2191,-2.2191,-2.2098,-2.1775,-2.1496,-2.1537,-2.1951,-2.1603,-2.1403,-2.1496,-2.1804,-2.2164,-2.2539,-2.334,-2.3768,-2.3768,-2.4342,-2.4636,-2.4636,-2.4636,-2.4636,-2.4636,-2.4636,-2.4636,-2.4636,-2.4636,-2.481,-2.5104,-2.5398,-2.5692,-2.6063,-2.6279,-2.6386,-2.6386,-2.6386,-2.6386,-2.6386,-2.9563,-2.9678,-2.9713,-3.0001,-2.9762,-2.9467,-2.9481,-2.9495,-2.9607,-3.0,-3.0042,-3.0382,-3.1245,-3.1037,-3.0832,-3.0832,-3.0832,-3.0832,-3.0817,-3.0817,-3.0685,-3.0446,-3.0431,-3.0123,-2.9398,-2.9061,-2.8739,-2.8432,-2.7452,-2.6647,-2.5988,-2.5022,-2.4811,-2.5119,-2.5119,-2.5227,-2.5535,-2.5535,-2.5535,-2.5535,-2.5535,-2.5344,-2.5134,-2.5134,-2.5134,-2.5119,-2.5119,-2.5119,-2.5178,-2.5418,-2.5315,-2.5119,-2.5119,-2.5271,-2.5535,-2.552,-2.552,-2.5593,-2.5915,-2.5769,-2.5469,-2.5425,-2.5158,-2.4889,-2.4706,-2.4255,-2.3768,-2.3768,-2.3768,-2.3688,-2.3394,-2.3327,-2.322,-2.2913,-2.2928,-2.2928,-2.2928,-2.3126,-2.31,-2.2485,-2.2672,-2.2619,-2.2031,-2.1977,-2.1977,-2.1991,-2.1977,-2.2098,-2.2392,-2.2138,-2.2258,-2.2901,-2.3447,-2.3768,-2.3768,-2.4342,-2.4636,-2.4636,-2.4636,-2.4636,-2.4636,-2.4636,-2.4636,-2.4636,-2.4636,-2.481,-2.5104,-2.5398,-2.5692,-2.6063,-2.6279,-2.6386,-2.6386,-2.6386,-2.6386,-2.6386,-2.9549,-2.9341,-2.9244,-2.9593,-2.9299,-2.916,-2.9481,-2.9481,-2.9523,-2.9621,-2.9635,-2.9804,-3.0056,-3.0155,-3.0141,-2.9914,-2.99,-3.0067,-3.0332,-2.9881,-2.9875,-3.0349,-2.9697,-2.9363,-2.9383,-2.8856,-2.8534,-2.8432,-2.7466,-2.6544,-2.5666,-2.514,-2.5017,-2.5119,-2.5119,-2.5227,-2.552,-2.5301,-2.533,-2.5505,-2.5286,-2.5154,-2.5119,-2.5119,-2.5119,-2.5149,-2.5301,-2.5374,-2.5432,-2.5754,-2.5798,-2.571,-2.571,-2.5622,-2.5579,-2.5798,-2.5857,-2.5886,-2.5988,-2.6105,-2.6152,-2.5812,-2.564,-2.5461,-2.5135,-2.4566,-2.4008,-2.3808,-2.3768,-2.3741,-2.3647,-2.346,-2.33,-2.3193,-2.3006,-2.2928,-2.2928,-2.2779,-2.2565,-2.2164,-2.2031,-2.2043,-2.1991,-2.1804,-2.1857,-2.2258,-2.2098,-2.2031,-2.2124,-2.2218,-2.2365,-2.2552,-2.3354,-2.3768,-2.3768,-2.4342,-2.4636,-2.4636,-2.4636,-2.4636,-2.4636,-2.4636,-2.4636,-2.4636,-2.4636,-2.469,-2.4823,-2.5304,-2.5571,-2.5705,-2.6199,-2.6386,-2.6386,-2.6386,-2.6386,-2.6386,-2.923,-2.8992,-2.8824,-2.8978,-2.8726,-2.8655,-2.8978,-2.8978,-2.8978,-2.8978,-2.8978,-2.8978,-2.8978,-2.9241,-2.9353,-2.9495,-2.9649,-2.9914,-3.0179,-2.9781,-2.9799,-3.0173,-2.9275,-2.8928,-2.9193,-2.854,-2.8278,-2.8432,-2.7349,-2.6427,-2.571,-2.5257,-2.5119,-2.5119,-2.5119,-2.5169,-2.5344,-2.514,-2.5169,-2.533,-2.5207,-2.5119,-2.5134,-2.5183,-2.5227,-2.5271,-2.5593,-2.571,-2.574,-2.5944,-2.593,-2.5801,-2.5908,-2.5833,-2.5783,-2.6105,-2.6193,-2.6222,-2.6354,-2.6299,-2.6243,-2.5926,-2.5733,-2.5405,-2.4943,-2.4475,-2.4088,-2.3688,-2.3607,-2.3567,-2.3447,-2.3273,-2.3153,-2.3153,-2.2993,-2.2887,-2.2712,-2.2539,-2.2311,-2.2017,-2.1924,-2.1951,-2.2124,-2.2084,-2.2258,-2.2565,-2.2418,-2.2311,-2.2311,-2.2378,-2.2525,-2.2752,-2.342,-2.3821,-2.3928,-2.4396,-2.4636,-2.4636,-2.4636,-2.4636,-2.4636,-2.4636,-2.4636,-2.4636,-2.4636,-2.4636,-2.4676,-2.5277,-2.5518,-2.5571,-2.6159,-2.6386,-2.6386,-2.6386,-2.6386,-2.6386,-2.874,-2.874,-2.8655,-2.8234,-2.8221,-2.8221,-2.8221,-2.8221,-2.8221,-2.8221,-2.8221,-2.8221,-2.8221,-2.8221,-2.8558,-2.9286,-2.9802,-3.0053,-3.0024,-3.0137,-3.0063,-2.9771,-2.9036,-2.8705,-2.8778,-2.8086,-2.7913,-2.8177,-2.7027,-2.6254,-2.5903,-2.5344,-2.5052,-2.5052,-2.5119,-2.5119,-2.5119,-2.5119,-2.5134,-2.5163,-2.5163,-2.5178,-2.5154,-2.5447,-2.5564,-2.5608,-2.593,-2.6032,-2.6032,-2.6061,-2.5857,-2.5528,-2.5869,-2.5911,-2.6006,-2.6356,-2.653,-2.6603,-2.691,-2.6475,-2.5883,-2.5803,-2.5446,-2.5011,-2.4348,-2.4209,-2.4048,-2.3474,-2.334,-2.3247,-2.2979,-2.2954,-2.2941,-2.2886,-2.2859,-2.2739,-2.2458,-2.2405,-2.2285,-2.2017,-2.2218,-2.2392,-2.2418,-2.2672,-2.2846,-2.2928,-2.2928,-2.2928,-2.2928,-2.2619,-2.2739,-2.3313,-2.3634,-2.3928,-2.4195,-2.4489,-2.4636,-2.4636,-2.4636,-2.4636,-2.4636,-2.4636,-2.4636,-2.4636,-2.4636,-2.4636,-2.4676,-2.5251,-2.5478,-2.5545,-2.6132,-2.636,-2.636,-2.6386,-2.6386,-2.6386,-2.8305,-2.8305,-2.8305,-2.8221,-2.8221,-2.8221,-2.8221,-2.8221,-2.8221,-2.8221,-2.8221,-2.8221,-2.8221,-2.8221,-2.8224,-2.8163,-2.8219,-2.8372,-2.84,-2.7934,-2.7889,-2.8528,-2.7625,-2.7304,-2.7593,-2.7219,-2.6824,-2.6432,-2.5894,-2.5342,-2.479,-2.4682,-2.4645,-2.4645,-2.4984,-2.5119,-2.5119,-2.5119,-2.5198,-2.5418,-2.5418,-2.5564,-2.5798,-2.5871,-2.59,-2.5944,-2.6266,-2.6222,-2.6091,-2.6588,-2.617,-2.5623,-2.6155,-2.5769,-2.5342,-2.6185,-2.6649,-2.6823,-2.659,-2.6415,-2.6154,-2.5506,-2.5005,-2.463,-2.4275,-2.4209,-2.4102,-2.3741,-2.3487,-2.3367,-2.3527,-2.3249,-2.2939,-2.318,-2.2832,-2.2498,-2.2432,-2.2231,-2.2058,-2.1991,-2.2044,-2.2178,-2.2392,-2.2485,-2.2619,-2.2914,-2.2928,-2.2928,-2.2928,-2.302,-2.318,-2.3327,-2.3834,-2.4142,-2.4209,-2.4489,-2.4636,-2.4636,-2.4636,-2.4636,-2.4636,-2.4636,-2.4636,-2.4636,-2.4636,-2.4636,-2.4663,-2.5024,-2.5184,-2.5237,-2.5825,-2.6052,-2.6092,-2.6306,-2.6386,-2.6386,-2.8221,-2.8221,-2.8221,-2.8221,-2.8221,-2.8221,-2.8221,-2.8221,-2.8221,-2.8221,-2.8221,-2.8221,-2.8221,-2.8016,-2.7816,-2.7522,-2.7794,-2.8002,-2.7948,-2.7553,-2.7561,-2.7899,-2.7061,-2.6744,-2.6976,-2.6655,-2.6279,-2.58,-2.5212,-2.475,-2.44,-2.4311,-2.4292,-2.4306,-2.4653,-2.4775,-2.4863,-2.5085,-2.528,-2.533,-2.5476,-2.5637,-2.5798,-2.5798,-2.5974,-2.6266,-2.6442,-2.6241,-2.6053,-2.6257,-2.5854,-2.5367,-2.5669,-2.5583,-2.5498,-2.5981,-2.6212,-2.6286,-2.6357,-2.6107,-2.5667,-2.5079,-2.4784,-2.4596,-2.4436,-2.4396,-2.4315,-2.4022,-2.3834,-2.3701,-2.3594,-2.33,-2.3086,-2.3113,-2.2726,-2.2418,-2.2418,-2.2164,-2.2031,-2.2164,-2.2178,-2.2352,-2.2792,-2.2832,-2.2899,-2.306,-2.3073,-2.3073,-2.3073,-2.3367,-2.3527,-2.3527,-2.3968,-2.4262,-2.4396,-2.4556,-2.4636,-2.4636,-2.4636,-2.4636,-2.4636,-2.4636,-2.4636,-2.4636,-2.4636,-2.4636,-2.4663,-2.4957,-2.5157,-2.5317,-2.5785,-2.6039,-2.6172,-2.6333,-2.6386,-2.6386,-2.8221,-2.8221,-2.8221,-2.8221,-2.8221,-2.8221,-2.8221,-2.8221,-2.8221,-2.8221,-2.8181,-2.8154,-2.8154,-2.7816,-2.7509,-2.7228,-2.7757,-2.803,-2.773,-2.7779,-2.7741,-2.7435,-2.6831,-2.6452,-2.6516,-2.604,-2.5725,-2.5514,-2.4734,-2.4247,-2.4205,-2.4135,-2.4037,-2.4037,-2.4316,-2.4481,-2.4596,-2.5097,-2.5262,-2.5295,-2.5491,-2.5666,-2.574,-2.5696,-2.6018,-2.65,-2.65,-2.6228,-2.5827,-2.5654,-2.5254,-2.4899,-2.4975,-2.5341,-2.578,-2.5781,-2.5506,-2.5408,-2.6022,-2.5667,-2.5005,-2.4656,-2.4609,-2.4623,-2.4583,-2.4569,-2.4516,-2.4315,-2.4195,-2.3995,-2.3541,-2.338,-2.3247,-2.2979,-2.2605,-2.2365,-2.2405,-2.2164,-2.2111,-2.2445,-2.2525,-2.2779,-2.334,-2.3394,-2.3407,-2.346,-2.342,-2.3407,-2.346,-2.3701,-2.3834,-2.3834,-2.4115,-2.4382,-2.4636,-2.4636,-2.4636,-2.4636,-2.4636,-2.4636,-2.4636,-2.469,-2.4676,-2.4562,-2.469,-2.4676,-2.4649,-2.4917,-2.5157,-2.5411,-2.5758,-2.6039,-2.6266,-2.636,-2.636,-2.6333,-2.8221,-2.8221,-2.8221,-2.8221,-2.8221,-2.8221,-2.8221,-2.8221,-2.8221,-2.8221,-2.7923,-2.7762,-2.7762,-2.7509,-2.7215,-2.6921,-2.7015,-2.6921,-2.6626,-2.6638,-2.6556,-2.6273,-2.5899,-2.559,-2.5383,-2.4811,-2.4394,-2.4116,-2.3981,-2.3779,-2.3467,-2.402,-2.4257,-2.4257,-2.4372,-2.4594,-2.4813,-2.471,-2.5117,-2.5871,-2.5915,-2.6266,-2.6735,-2.6457,-2.6413,-2.65,-2.65,-2.5937,-2.5197,-2.5769,-2.5143,-2.4271,-2.5128,-2.5058,-2.4763,-2.5342,-2.5241,-2.4974,-2.529,-2.5079,-2.4656,-2.4329,-2.4449,-2.4569,-2.4329,-2.4275,-2.4329,-2.4529,-2.4182,-2.3888,-2.4035,-2.3661,-2.3313,-2.326,-2.2579,-2.2138,-2.2378,-2.2164,-2.2191,-2.2726,-2.302,-2.3327,-2.3674,-2.3701,-2.3808,-2.4048,-2.3848,-2.3808,-2.4048,-2.4115,-2.4142,-2.4142,-2.4422,-2.4596,-2.4636,-2.4636,-2.4636,-2.4636,-2.4636,-2.4636,-2.4649,-2.489,-2.4877,-2.4649,-2.4903,-2.4863,-2.4562,-2.469,-2.473,-2.4823,-2.5371,-2.5611,-2.5705,-2.6213,-2.6239,-2.6052,-2.8221,-2.8221,-2.8221,-2.8221,-2.8221,-2.8221,-2.8221,-2.8221,-2.8221,-2.8221,-2.7883,-2.7696,-2.7696,-2.7295,-2.6974,-2.6827,-2.6533,-2.6306,-2.6159,-2.6306,-2.6186,-2.5732,-2.5585,-2.5304,-2.485,-2.4422,-2.4142,-2.4008,-2.3848,-2.3701,-2.3567,-2.3914,-2.39,-2.3739,-2.3963,-2.4066,-2.4107,-2.4302,-2.4636,-2.4968,-2.5311,-2.5626,-2.587,-2.5641,-2.5698,-2.5898,-2.5727,-2.5087,-2.4456,-2.475,-2.4484,-2.4053,-2.447,-2.4764,-2.4904,-2.4876,-2.4814,-2.4788,-2.4661,-2.4555,-2.4369,-2.4235,-2.4302,-2.4409,-2.4436,-2.4436,-2.4476,-2.4609,-2.4422,-2.4182,-2.3995,-2.3754,-2.3407,-2.2913,-2.2485,-2.2271,-2.2405,-2.2445,-2.2619,-2.306,-2.338,-2.3688,-2.3981,-2.4008,-2.4062,-2.4195,-2.4075,-2.4062,-2.4195,-2.4062,-2.4115,-2.4422,-2.4569,-2.4636,-2.4636,-2.4636,-2.4636,-2.4636,-2.4636,-2.4636,-2.4636,-2.4783,-2.477,-2.4649,-2.4783,-2.4756,-2.4636,-2.4636,-2.473,-2.4917,-2.5344,-2.5611,-2.5785,-2.6052,-2.6079,-2.5959,-2.814,-2.8181,-2.8181,-2.8047,-2.8073,-2.81,-2.8033,-2.802,-2.802,-2.802,-2.7682,-2.7495,-2.7495,-2.6974,-2.6613,-2.6613,-2.6146,-2.5852,-2.5852,-2.6066,-2.5959,-2.5438,-2.5344,-2.509,-2.4649,-2.4356,-2.4209,-2.4209,-2.3981,-2.3875,-2.3875,-2.3941,-2.3821,-2.3541,-2.3701,-2.3725,-2.3653,-2.4036,-2.4232,-2.4316,-2.4792,-2.4988,-2.4974,-2.4904,-2.4974,-2.51,-2.4862,-2.4358,-2.3831,-2.383,-2.3886,-2.3914,-2.3982,-2.458,-2.5086,-2.4492,-2.4347,-2.4426,-2.4147,-2.4102,-2.4088,-2.4022,-2.4102,-2.4249,-2.4396,-2.4489,-2.4556,-2.4623,-2.4583,-2.4396,-2.3955,-2.3821,-2.3527,-2.2752,-2.2512,-2.2445,-2.2512,-2.2712,-2.3006,-2.338,-2.3688,-2.3981,-2.4275,-2.4302,-2.4302,-2.4302,-2.4302,-2.4302,-2.4302,-2.4088,-2.4142,-2.4529,-2.4596,-2.4636,-2.4636,-2.4253,-2.4253,-2.4636,-2.4179,-2.4267,-2.4562,-2.4258,-2.4097,-2.4031,-2.411,-2.4097,-2.4105,-2.4488,-2.481,-2.5104,-2.4938,-2.5278,-2.5774,-2.5063,-2.4946,-2.5178,-2.7789,-2.7949,-2.806,-2.7428,-2.7549,-2.7642,-2.7375,-2.7335,-2.7335,-2.7335,-2.7068,-2.6894,-2.6894,-2.6373,-2.6026,-2.6026,-2.5732,-2.5545,-2.5545,-2.5558,-2.5438,-2.513,-2.485,-2.4676,-2.4636,-2.4356,-2.4209,-2.4209,-2.4182,-2.4168,-2.4182,-2.4449,-2.4422,-2.4128,-2.3888,-2.3954,-2.4255,-2.3995,-2.4398,-2.524,-2.5282,-2.5296,-2.5354,-2.4988,-2.4708,-2.4484,-2.4456,-2.4039,-2.3475,-2.3831,-2.3956,-2.4023,-2.4231,-2.461,-2.4958,-2.4439,-2.385,-2.3447,-2.3728,-2.3808,-2.3741,-2.346,-2.3808,-2.4142,-2.3888,-2.4035,-2.4315,-2.4583,-2.4422,-2.4222,-2.4182,-2.3955,-2.3661,-2.3313,-2.2779,-2.2512,-2.2792,-2.2846,-2.3086,-2.3674,-2.3995,-2.4289,-2.4569,-2.4609,-2.4609,-2.4609,-2.4609,-2.4609,-2.4609,-2.4583,-2.4476,-2.4249,-2.4489,-2.4636,-2.4636,-2.3129,-2.3129,-2.4562,-2.3129,-2.3129,-2.4576,-2.3392,-2.269,-2.2384,-2.2715,-2.2678,-2.2521,-2.3957,-2.481,-2.4927,-2.3492,-2.3973,-2.5148,-2.2179,-2.1885,-2.2794,-2.7722,-2.7642,-2.7535,-2.7308,-2.7362,-2.7388,-2.7281,-2.7268,-2.7268,-2.7268,-2.7001,-2.6747,-2.6573,-2.6199,-2.5879,-2.5692,-2.5411,-2.5251,-2.5251,-2.5077,-2.4997,-2.5077,-2.4796,-2.4636,-2.4636,-2.4529,-2.4476,-2.4476,-2.4476,-2.4476,-2.4476,-2.4396,-2.4209,-2.3928,-2.3621,-2.3464,-2.3402,-2.328,-2.35,-2.38,-2.3991,-2.4072,-2.4086,-2.4154,-2.4004,-2.3732,-2.3732,-2.3597,-2.342,-2.3543,-2.3831,-2.4093,-2.3873,-2.4063,-2.4419,-2.4066,-2.3829,-2.3621,-2.3741,-2.3768,-2.3741,-2.3634,-2.3901,-2.4222,-2.4289,-2.4396,-2.4502,-2.4609,-2.4556,-2.4422,-2.4235,-2.3968,-2.3607,-2.3113,-2.2846,-2.2726,-2.2846,-2.318,-2.3581,-2.3995,-2.4289,-2.4516,-2.4623,-2.4636,-2.4636,-2.4636,-2.4636,-2.4636,-2.4636,-2.4636,-2.4502,-2.4209,-2.4489,-2.4556,-2.4369,-2.394,-2.35,-2.3129,-2.2521,-2.1999,-2.1625,-2.1117,-2.0804,-2.0725,-2.0815,-2.0804,-2.0789,-2.1389,-2.1684,-2.1778,-2.1334,-2.1601,-2.2077,-2.0836,-2.0704,-2.1074,-2.7455,-2.7335,-2.7201,-2.7028,-2.7068,-2.7094,-2.7001,-2.6987,-2.6987,-2.6987,-2.6814,-2.6573,-2.6279,-2.5999,-2.5705,-2.5398,-2.5104,-2.4943,-2.4943,-2.4756,-2.473,-2.493,-2.4743,-2.4636,-2.4636,-2.4636,-2.4636,-2.4636,-2.4636,-2.4596,-2.4489,-2.4302,-2.3995,-2.3621,-2.342,-2.3207,-2.3006,-2.3006,-2.306,-2.3166,-2.338,-2.3407,-2.3354,-2.3554,-2.3447,-2.318,-2.318,-2.3184,-2.327,-2.327,-2.3625,-2.3911,-2.3515,-2.3712,-2.4048,-2.3941,-2.3848,-2.3794,-2.3888,-2.3915,-2.3888,-2.3794,-2.3981,-2.4249,-2.4449,-2.4569,-2.4636,-2.4636,-2.4636,-2.4569,-2.4382,-2.4102,-2.3768,-2.3354,-2.3207,-2.3153,-2.3153,-2.3581,-2.3981,-2.4182,-2.4462,-2.4636,-2.4636,-2.4636,-2.4636,-2.4636,-2.4636,-2.4636,-2.4636,-2.4636,-2.4502,-2.4209,-2.4489,-2.4489,-2.4209,-2.3962,-2.3277,-2.2223,-2.17,-2.0864,-1.9811,-1.9283,-1.9057,-1.9057,-1.9057,-1.9057,-1.9057,-1.9585,-1.9854,-1.9854,-1.9482,-1.9719,-2.0079,-1.9009,-1.8902,-1.9187,-2.6934,-2.7054,-2.7081,-2.6493,-2.6627,-2.672,-2.6426,-2.6386,-2.6386,-2.6386,-2.6386,-2.6279,-2.6063,-2.5692,-2.5398,-2.5104,-2.481,-2.4636,-2.4636,-2.4636,-2.4636,-2.4636,-2.4636,-2.4636,-2.4636,-2.4636,-2.4636,-2.4636,-2.4636,-2.4489,-2.4209,-2.4209,-2.3888,-2.3327,-2.3327,-2.3327,-2.3327,-2.3327,-2.3487,-2.3768,-2.3768,-2.3581,-2.3327,-2.3327,-2.3126,-2.2928,-2.2928,-2.2928,-2.2928,-2.2928,-2.3133,-2.3393,-2.3289,-2.3527,-2.3834,-2.4115,-2.3995,-2.3834,-2.4128,-2.4209,-2.4142,-2.3848,-2.3995,-2.4209,-2.4209,-2.4436,-2.4636,-2.4636,-2.4636,-2.4636,-2.4636,-2.4396,-2.4209,-2.4209,-2.3955,-2.3768,-2.3768,-2.4022,-2.4209,-2.4209,-2.4462,-2.4636,-2.4636,-2.4636,-2.4636,-2.4636,-2.4636,-2.4636,-2.4636,-2.4636,-2.4502,-2.4209,-2.4489,-2.4502,-2.4209,-2.2917,-2.2223,-2.2148,-2.0564,-1.9811,-1.9736,-1.8082,-1.7398,-1.7398,-1.7398,-1.7398,-1.7474,-1.9132,-1.9951,-1.9981,-1.8084,-1.8515,-1.9751,-1.6247,-1.6033,-1.7178,-2.6854,-2.6734,-2.66,-2.6413,-2.6466,-2.6426,-2.6132,-2.6092,-2.6092,-2.6092,-2.5905,-2.5745,-2.5651,-2.5384,-2.509,-2.4796,-2.469,-2.4636,-2.4636,-2.4636,-2.4636,-2.4636,-2.4636,-2.4636,-2.4636,-2.4636,-2.4636,-2.4636,-2.4636,-2.4489,-2.4209,-2.4209,-2.3888,-2.3327,-2.3327,-2.3207,-2.3006,-2.3006,-2.306,-2.3209,-2.3209,-2.3086,-2.3006,-2.3006,-2.2939,-2.2928,-2.2928,-2.3065,-2.327,-2.327,-2.3474,-2.3679,-2.344,-2.3527,-2.3794,-2.3875,-2.4128,-2.4396,-2.4489,-2.4502,-2.4436,-2.4142,-2.4289,-2.4502,-2.4502,-2.4569,-2.4636,-2.4636,-2.4636,-2.4636,-2.4636,-2.4396,-2.4209,-2.4209,-2.3955,-2.3848,-2.4048,-2.4155,-2.4275,-2.4476,-2.4583,-2.4636,-2.4636,-2.4636,-2.4636,-2.4636,-2.4636,-2.4636,-2.4636,-2.4636,-2.4596,-2.4516,-2.4596,-2.4596,-2.4502,-2.4066,-2.3351,-2.2148,-2.0564,-1.9208,-1.8082,-1.6492,-1.5727,-1.5727,-1.5727,-1.5727,-1.5727,-1.6254,-1.6519,-1.6487,-1.5897,-1.6068,-1.641,-1.536,-1.5267,-1.565,-2.668,-2.6507,-2.6386,-2.6386,-2.6293,-2.6159,-2.5985,-2.5852,-2.5785,-2.5785,-2.5625,-2.5464,-2.5358,-2.5184,-2.4957,-2.4663,-2.4636,-2.4636,-2.4636,-2.4636,-2.4636,-2.4636,-2.4636,-2.4636,-2.4636,-2.4636,-2.4583,-2.4462,-2.4583,-2.4369,-2.3861,-2.3981,-2.3714,-2.314,-2.314,-2.3033,-2.2928,-2.2928,-2.2928,-2.2928,-2.2928,-2.2928,-2.2928,-2.2928,-2.2928,-2.2928,-2.2928,-2.2996,-2.3201,-2.3201,-2.3323,-2.3513,-2.349,-2.3621,-2.3821,-2.4048,-2.4369,-2.4636,-2.4636,-2.4636,-2.4596,-2.4422,-2.4502,-2.4636,-2.4636,-2.4636,-2.4636,-2.4636,-2.4636,-2.4636,-2.4636,-2.4489,-2.4369,-2.4369,-2.4222,-2.4168,-2.4356,-2.4369,-2.4436,-2.4609,-2.4636,-2.4636,-2.4636,-2.4636,-2.4636,-2.4636,-2.4636,-2.4636,-2.4636,-2.4636,-2.4636,-2.4636,-2.4636,-2.4636,-2.4636,-2.3957,-2.3129,-2.2223,-2.1239,-1.9585,-1.7407,-1.6415,-1.5573,-1.4968,-1.4968,-1.4968,-1.4968,-1.4968,-1.4968,-1.4968,-1.4968,-1.4968,-1.4968,-1.4968,-1.4968,-1.4968,-2.644,-2.6386,-2.6386,-2.636,-2.6132,-2.601,-2.597,-2.5651,-2.5478,-2.5478,-2.5451,-2.5344,-2.5104,-2.5064,-2.493,-2.4663,-2.4636,-2.4636,-2.4636,-2.4636,-2.4636,-2.4636,-2.4636,-2.4623,-2.4596,-2.4596,-2.4449,-2.4168,-2.4436,-2.4142,-2.334,-2.3634,-2.3447,-2.2928,-2.2954,-2.2886,-2.2928,-2.2928,-2.2928,-2.2928,-2.2928,-2.2928,-2.2928,-2.2928,-2.2928,-2.2928,-2.2928,-2.2928,-2.2928,-2.2928,-2.2928,-2.3035,-2.3554,-2.3728,-2.3848,-2.4422,-2.4596,-2.4609,-2.4549,-2.4636,-2.4636,-2.4636,-2.4636,-2.4636,-2.4636,-2.4636,-2.4636,-2.4636,-2.4636,-2.4636,-2.4636,-2.4636,-2.4636,-2.4636,-2.4636,-2.4636,-2.4636,-2.4636,-2.4636,-2.4636,-2.4636,-2.4636,-2.4636,-2.4636,-2.4636,-2.4636,-2.4636,-2.4562,-2.4414,-2.4488,-2.4488,-2.4179,-2.4327,-2.4327,-2.4179,-2.2744,-2.2073,-2.2223,-2.2073,-2.0414,-1.7407,-1.7407,-1.6492,-1.4968,-1.4968,-1.4968,-1.4968,-1.4968,-1.4968,-1.4968,-1.4968,-1.4968,-1.4968,-1.4968,-1.4968,-1.4968,-2.64,-2.6386,-2.6319,-2.6092,-2.6077,-2.5798,-2.5344,-2.5211,-2.517,-2.517,-2.497,-2.489,-2.5064,-2.4877,-2.4703,-2.4649,-2.4636,-2.4636,-2.4636,-2.4636,-2.4636,-2.4636,-2.4636,-2.4529,-2.4302,-2.4302,-2.4155,-2.3861,-2.3928,-2.3741,-2.334,-2.3634,-2.3447,-2.2941,-2.3113,-2.3086,-2.2928,-2.2928,-2.2928,-2.2928,-2.2928,-2.2928,-2.2928,-2.2928,-2.2928,-2.2928,-2.2928,-2.2928,-2.2928,-2.2928,-2.2928,-2.2926,-2.33,-2.342,-2.3541,-2.4128,-2.4302,-2.4342,-2.4569,-2.4636,-2.4636,-2.4636,-2.4636,-2.4636,-2.4636,-2.4636,-2.4636,-2.4636,-2.4636,-2.4636,-2.4636,-2.4636,-2.4636,-2.4636,-2.4636,-2.4636,-2.4636,-2.4636,-2.4636,-2.4636,-2.4636,-2.4636,-2.4636,-2.4636,-2.4636,-2.4636,-2.4636,-2.4031,-2.2831,-2.3957,-2.3426,-2.0939,-2.2073,-2.2148,-2.0864,-2.0489,-2.0939,-2.2148,-2.0939,-1.9283,-1.7407,-1.7407,-1.6492,-1.4968,-1.4968,-1.4968,-1.4968,-1.4968,-1.4968,-1.4968,-1.4968,-1.4968,-1.4968,-1.4968,-1.4968,-1.4968,-2.6386,-2.6279,-2.6132,-2.5985,-2.5732,-2.5438,-2.513,-2.4957,-2.4863,-2.4863,-2.473,-2.469,-2.485,-2.473,-2.4636,-2.4636,-2.4636,-2.4636,-2.4636,-2.4636,-2.4636,-2.4636,-2.4636,-2.4436,-2.4008,-2.3995,-2.3848,-2.3554,-2.3701,-2.3541,-2.3113,-2.342,-2.3313,-2.2941,-2.3033,-2.302,-2.2928,-2.2928,-2.2928,-2.2928,-2.2928,-2.2928,-2.2928,-2.2928,-2.2928,-2.2928,-2.2928,-2.2928,-2.2928,-2.2928,-2.2928,-2.2913,-2.3233,-2.342,-2.3621,-2.4075,-2.4302,-2.4436,-2.4596,-2.4636,-2.4636,-2.4636,-2.4636,-2.4636,-2.4636,-2.4636,-2.4636,-2.4636,-2.4636,-2.4341,-2.3574,-2.3426,-2.3203,-2.2446,-2.298,-2.3426,-2.3426,-2.4105,-2.4636,-2.4636,-2.4636,-2.4636,-2.4636,-2.3883,-2.3426,-2.3426,-2.2744,-2.1924,-2.1089,-2.1849,-2.1538,-1.9887,-2.0639,-2.0639,-1.9811,-1.9057,-1.9057,-1.9887,-1.9811,-1.8991,-1.7407,-1.7407,-1.6492,-1.4968,-1.4968,-1.4968,-1.4968,-1.4968,-1.4968,-1.4968,-1.4968,-1.4968,-1.4968,-1.4968,-1.4968,-1.4968,-2.6319,-2.6119,-2.5996,-2.5825,-2.5411,-2.5064,-2.501,-2.4796,-2.4636,-2.4636,-2.4636,-2.4636,-2.4636,-2.4636,-2.4636,-2.4636,-2.4636,-2.4636,-2.4636,-2.4636,-2.4636,-2.4636,-2.4636,-2.4382,-2.3861,-2.3794,-2.3594,-2.3247,-2.35,-2.3354,-2.2873,-2.3126,-2.3113,-2.2928,-2.2928,-2.2928,-2.2928,-2.2928,-2.2928,-2.2928,-2.2928,-2.2928,-2.2928,-2.2928,-2.2928,-2.2928,-2.2928,-2.2928,-2.2928,-2.2928,-2.2899,-2.2993,-2.3247,-2.3527,-2.3834,-2.4115,-2.4369,-2.4569,-2.4623,-2.4636,-2.4562,-2.4253,-2.4179,-2.4105,-2.3809,-2.3957,-2.4105,-2.3809,-2.3809,-2.3351,-2.2073,-2.1775,-2.1314,-2.0037,-2.0939,-2.1775,-2.1775,-2.298,-2.3883,-2.4179,-2.4414,-2.4636,-2.4636,-2.3426,-2.2521,-2.2223,-2.0939,-1.9962,-1.9434,-1.9661,-1.9585,-1.8981,-1.9283,-1.9283,-1.8981,-1.7626,-1.7026,-1.7026,-1.8299,-1.8299,-1.7026,-1.7255,-1.6492,-1.4968,-1.4968,-1.4968,-1.4968,-1.4968,-1.4968,-1.4968,-1.4968,-1.4968,-1.4968,-1.4968,-1.4968,-1.4968,-2.6066,-2.5985,-2.5876,-2.5291,-2.513,-2.4997,-2.473,-2.4663,-2.4636,-2.4636,-2.4636,-2.4636,-2.4636,-2.4636,-2.4636,-2.4636,-2.4636,-2.4636,-2.4636,-2.4636,-2.4636,-2.4636,-2.4636,-2.4476,-2.4155,-2.3901,-2.35,-2.2926,-2.3035,-2.3008,-2.2928,-2.2968,-2.2899,-2.2928,-2.2928,-2.2928,-2.2928,-2.2928,-2.2928,-2.2928,-2.2928,-2.2928,-2.2928,-2.2928,-2.2928,-2.2928,-2.2928,-2.2928,-2.2928,-2.2928,-2.3046,-2.3273,-2.3313,-2.3527,-2.3834,-2.4115,-2.4235,-2.4315,-2.4569,-2.4636,-2.4267,-2.2893,-2.2521,-2.2148,-2.0789,-2.155,-2.2148,-2.0714,-2.0414,-2.0414,-2.0188,-2.0113,-2.0037,-1.9811,-1.9962,-2.0113,-2.0113,-2.0338,-2.0939,-2.2372,-2.3735,-2.4636,-2.4636,-2.4414,-2.3735,-2.2297,-2.1999,-2.0639,-1.7854,-1.9057,-1.8527,-1.5727,-1.7017,-1.7093,-1.565,-1.542,-1.5344,-1.5344,-1.5573,-1.5573,-1.5344,-1.6797,-1.6492,-1.4968,-1.4968,-1.4968,-1.4968,-1.4968,-1.4968,-1.4968,-1.4968,-1.4968,-1.4968,-1.4968,-1.4968,-1.4968,-2.5732,-2.5585,-2.5384,-2.513,-2.4943,-2.4783,-2.4649,-2.4636,-2.4636,-2.4636,-2.4636,-2.4636,-2.4636,-2.4636,-2.4636,-2.4636,-2.4636,-2.4636,-2.4636,-2.4636,-2.4636,-2.4636,-2.4636,-2.4422,-2.3968,-2.3834,-2.3474,-2.2928,-2.2928,-2.2928,-2.2928,-2.2928,-2.2928,-2.2928,-2.2928,-2.2928,-2.2928,-2.2928,-2.2928,-2.2928,-2.2928,-2.2928,-2.2928,-2.2928,-2.2928,-2.2928,-2.2928,-2.2928,-2.2928,-2.2928,-2.2953,-2.31,-2.3273,-2.3527,-2.3834,-2.4115,-2.4315,-2.4476,-2.4596,-2.3914,-2.3001,-2.2335,-2.1433,-2.0322,-1.8799,-1.8981,-1.9585,-1.9736,-1.9811,-1.951,-1.8613,-1.8461,-1.8148,-1.7236,-1.7854,-1.8461,-1.8461,-1.9208,-2.0037,-2.0789,-2.2297,-2.3277,-2.3277,-2.2446,-2.1625,-2.0939,-1.9197,-1.754,-1.6109,-1.6712,-1.6483,-1.5045,-1.565,-1.5727,-1.5045,-1.4968,-1.4968,-1.4968,-1.4968,-1.4968,-1.5045,-1.5727,-1.565,-1.4968,-1.4968,-1.4968,-1.4968,-1.4968,-1.4968,-1.4968,-1.4968,-1.4968,-1.4968,-1.4968,-1.4968,-1.4968]}]]